     2.11           OBSERVATION DATA    G (GPS)             RINEX VERSION / TYPE
teqc 2010Oct21 OPUS Account 20111025 20:05:52UTC            PGM / RUN BY / DATE
C 1522                                                      MARKER NAME
1158                                                        MARKER NUMBER
CSMIDDLETON NGS                                             OBSERVER / AGENCY
4624K01647 TRIMBLE NETR5 4.41                               REC # / TYPE / VERS
12694052 TRM41249.00 NONE                                   ANT # / TYPE
  -739194.3587 -5490156.4815  3150741.9352                  APPROX POSITION XYZ
        2.0040        0.0000        0.0000                  ANTENNA: DELTA H/E/N
     1     1                                                WAVELENGTH FACT L1/2
     5    L1    L2    C1    P1    P2                        # / TYPES OF OBSERV
    15                                                      LEAP SECONDS
  2011     7    28    17    44    0.0000000     GPS         TIME OF FIRST OBS
                                                            END OF HEADER
 11  7 28 17 44  0.0000000  0 12G08G06G07G28G20G19G03G11G16G10G13G23
 126605664.36116  98653850.23753  24092268.961                    24092278.898
 119454344.35417  93081343.93154  22731406.859                    22731415.512
 116045330.86917  90424964.12355  22082693.297                    22082700.988
 129968668.84516 101274316.32053  24732213.055                    24732224.137
 131894393.54116 102774957.33052  25098685.117                    25098696.453
 111004091.35918  86496719.20656  21123376.563                    21123382.199
 110601744.10118  86183210.57455  21046813.164                    21046820.223
 131071155.97616 102133254.44952  24941975.570                    24941985.758
 122671068.55117  95587875.37654  23343528.516                    23343535.840
 125532111.10117  97817255.99653  23887966.484                    23887974.949
 105273969.15918  82031692.25056  20032970.641                    20032977.629
 107838906.48818  84030340.71556  20521062.313                    20521067.844
 11  7 28 17 44 30.0000000  0 12G08G06G07G28G20G19G03G11G16G10G13G23
 126536710.067 6  98600119.72543  24079147.563                    24079157.480
 119517368.386 7  93130453.52744  22743400.188                    22743408.313
 115988950.022 7  90381031.01845  22071963.797                    22071971.359
 129893039.365 6 101215384.36243  24717821.344                    24717832.324
 131975209.841 5 102837930.87842  25114063.938                    25114075.664
 110970251.260 7  86470350.31146  21116936.867                    21116942.824
 110642233.835 8  86214760.99945  21054517.992                    21054525.293
 130997279.007 6 102075688.04842  24927917.172                    24927928.012
 122762149.663 6  95658847.63144  23360859.742                    23360867.926
 125550148.224 6  97831310.89543  23891398.984                    23891408.152
 105270634.918 8  82029094.13246  20032335.742                    20032342.598
 107896235.306 8  84075012.49046  20531971.727                    20531977.766
 11  7 28 17 45  0.0000000  0 12G08G06G07G28G20G19G03G11G16G10G13G23
 126467695.509 7  98546342.18343  24066014.039                    24066024.102
 119580835.744 7  93179908.58044  22755477.664                    22755485.227
 115932613.786 7  90337132.66945  22061243.492                    22061251.031
 129817610.423 6 101156608.69143  24703467.383                    24703478.297
 132055823.368 6 102900746.39442  25129402.844                    25129416.535
 110936978.427 7  86444423.44446  21110605.219                    21110611.055
 110683312.694 7  86246770.47745  21062334.578                    21062343.043
 130923229.907 6 102017987.60442  24913825.914                    24913837.027
 122853244.620 6  95729830.61844  23378194.961                    23378203.484
 125568630.406 7  97845712.56643  23894916.359                    23894925.156
 105267879.505 7  82026947.04746  20031811.898                    20031818.520
 107954081.863 8  84120087.68946  20542979.703                    20542985.063
 11  7 28 17 45 30.0000000  0 12G08G06G07G28G20G19G03G11G16G10G13G23
 126398622.972 6  98492519.44143  24052870.242                    24052879.539
 119644746.753 7  93229709.34844  22767639.375                    22767647.742
 115876325.253 8  90293271.47845  22050532.289                    22050539.926
 129742385.236 6 101097991.68842  24689152.359                    24689163.039
 132136234.231 6 102963403.97142  25144705.938                    25144718.199
 110904277.014 7  86418941.83346  21104382.047                    21104388.379
 110724981.742 8  86279239.82345  21070264.016                    21070272.109
 130849012.820 6 101960156.19342  24899703.008                    24899713.789
 122944353.445 6  95800824.43944  23395532.828                    23395540.820
 125587558.362 7  97860461.58943  23898518.133                    23898527.125
 105265705.809 8  82025253.24646  20031398.180                    20031405.094
 108012446.932 8  84165566.91246  20554086.227                    20554092.098
 11  7 28 17 46  0.0000000  0 12G08G06G07G28G20G19G03G11G16G10G13G23
 126329492.768 6  98438651.81643  24039714.961                    24039724.707
 119709099.920 7  93279854.61844  22779884.836                    22779893.863
 115820085.709 7  90249448.47545  22039830.367                    22039837.773
 129667364.469 6 101039534.02742  24674876.102                    24674886.836
 132216441.128 6 103025902.70042  25159968.383                    25159980.770
 110872148.760 7  86393906.84746  21098268.508                    21098274.469
 110767240.093 8  86312168.39045  21078305.766                    21078313.711
 130774630.635 6 101902196.20542  24885547.305                    24885558.996
 123035475.325 6  95871828.46144  23412872.945                    23412880.590
 125606931.032 7  97875557.11343  23902204.625                    23902214.203
 105264115.192 8  82024013.78946  20031095.297                    20031102.277
 108071329.743 8  84211449.57546  20565291.164                    20565296.660
 11  7 28 17 46 30.0000000  0 12G08G06G07G28G20G19G03G11G16G10G13G23
 126260304.128 7  98384738.65243  24026548.406                    24026558.598
 119773891.819 7  93330341.81544  22792214.703                    22792223.734
 115763894.482 7  90205663.10545  22029137.219                    22029144.816
 129592547.587 6 100981235.23243  24660639.789                    24660650.398
 132296440.724 6 103088239.83242  25175191.297                    25175204.395
 110840594.228 7  86369318.91146  21092264.094                    21092269.863
 110810085.166 8  86345554.14845  21086459.016                    21086466.344
 130700084.389 5 101844108.25542  24871361.773                    24871373.707
 123126607.361 6  95942840.37844  23430215.039                    23430222.547
 125626745.550 6  97890996.94043  23905974.836                    23905984.121
 105263107.530 8  82023228.58846  20030903.867                    20030910.414
 108130727.729 8  84257733.68146  20576594.367                    20576599.758
 11  7 28 17 47  0.0000000  0 12G08G06G07G28G20G19G03G11G16G10G13G23
 126191057.129 7  98330780.01443  24013371.547                    24013381.078
 119839120.676 7  93381169.43844  22804627.617                    22804636.254
 115707752.550 7  90161916.16545  22018454.180                    22018461.227
 129517935.313 6 100923095.83342  24646441.016                    24646451.543
 132376231.071 6 103150413.87442  25190376.031                    25190388.598
 110809615.096 8  86345179.33946  21086368.961                    21086374.969
 110853515.309 8  86379395.80245  21094723.422                    21094730.598
 130625376.386 6 101785894.32542  24857144.922                    24857157.480
 123217747.925 6  96013858.93544  23447558.906                    23447566.629
 125647000.291 7  97906779.84343  23909828.961                    23909838.770
 105262683.747 8  82022898.35346  20030823.000                    20030829.758
 108190639.436 8  84304418.08746  20587995.266                    20588000.363
 11  7 28 17 47 30.0000000  0 12G08G06G07G28G20G19G03G11G16G10G13G23
 126121752.018 7  98276776.08843  24000182.688                    24000192.355
 119904784.621 7  93432336.12244  22817122.750                    22817130.926
 115651661.142 7  90118208.59345  22007780.445                    22007787.250
 129443528.188 6 100865116.37842  24632281.695                    24632291.969
 132455810.315 6 103212423.54942  25205519.719                    25205531.758
 110779213.535 8  86321489.83046  21080583.625                    21080589.891
 110897528.992 8  86413692.16045  21103099.086                    21103107.145
 130550508.849 5 101727556.14342  24842897.125                    24842910.684
 123308895.702 7  96084883.13044  23464903.281                    23464911.379
 125667694.092 7  97922904.86743  23913767.203                    23913776.617
 105262844.651 8  82023023.71846  20030853.977                    20030860.371
 108251063.736 8  84351501.91946  20599493.445                    20599499.160
 11  7 28 17 48  0.0000000  0 12G08G06G07G28G20G19G03G11G16G10G13G23
 126052389.140 7  98222727.16343  23986983.852                    23986993.281
 119970881.556 7  93483840.18944  22829700.625                    22829709.328
 115595620.812 7  90074540.82445  21997115.969                    21997123.094
 129369326.914 6 100807297.33142  24618161.297                    24618172.496
 132535176.329 6 103274267.04142  25220622.039                    25220634.895
 110749390.960 7  86298251.47146  21074908.633                    21074914.344
 110942124.900 8  86448442.20845  21111585.203                    21111593.496
 130475484.597 6 101669095.83342  24828621.414                    24828633.820
 123400048.757 6  96155911.41944  23482249.445                    23482256.715
 125688825.025 6  97939370.46343  23917788.156                    23917798.008
 105263591.086 8  82023605.34846  20030995.586                    20031002.777
 108311998.929 8  84398983.85246  20611089.219                    20611094.605
 11  7 28 17 48 30.0000000  0 12G08G06G07G28G20G19G03G11G16G10G13G23
 125982968.575 7  98168633.29743  23973773.227                    23973782.191
 120037409.704 7  93535680.27944  22842361.164                    22842368.809
 115539632.734 7  90030913.76245  21986461.672                    21986469.082
 129295332.322 6 100749639.33542  24604079.555                    24604091.266
 132614327.569 6 103335943.17442  25235684.961                    25235696.898
 110720149.085 8  86275465.61146  21069344.063                    21069349.910
 110987301.715 8  86483644.90945  21120182.117                    21120189.332
 130400306.001 6 101610515.28742  24814314.828                    24814327.711
 123491206.118 6  96226943.09444  23499596.281                    23499603.535
 125710391.554 6  97956175.50643  23921892.633                    23921901.402
 105264924.397 8  82024644.27546  20031249.398                    20031256.355
 108373443.995 8  84446863.08846  20622781.695                    20622787.504
 11  7 28 17 49  0.0000000  0 12G08G06G07G28G20G19G03G11G16G10G13G23
 125913490.683 7  98114494.71543  23960552.781                    23960561.336
 120104367.062 7  93587854.81444  22855102.711                    22855110.512
 115483697.613 7  89987327.97445  21975817.781                    21975824.883
 129221544.845 6 100692142.67642  24590038.680                    24590050.020
 132693261.967 6 103397450.28142  25250705.789                    25250717.520
 110691489.310 7  86253133.34246  21063889.969                    21063896.086
 111033057.433 8  86519298.70745  21128889.086                    21128896.535
 130324975.216 6 101551816.03043  24799980.070                    24799992.391
 123582365.838 6  96297976.55544  23516943.555                    23516950.988
 125732391.839 6  97973318.55343  23926078.461                    23926088.711
 105266844.815 7  82026140.69146  20031614.727                    20031621.828
 108435397.295 8  84495138.34646  20634571.164                    20634576.785
 11  7 28 17 49 30.0000000  0 12G08G06G07G28G20G19G03G11G16G10G13G23
 125843955.744 7  98060311.73243  23947319.992                    23947329.227
 120171751.530 7  93640362.17744  22867924.711                    22867934.047
 115427816.286 7  89943784.09845  21965183.852                    21965190.977
 129147965.043 6 100634807.95242  24576037.656                    24576048.379
 132771977.620 6 103458787.05642  25265683.570                    25265697.309
 110663413.497 7  86231256.10146  21058547.609                    21058553.242
 111079390.737 8  86555402.56245  21137705.961                    21137714.082
 130249494.848 6 101493000.26743  24785617.336                    24785628.523
 123673526.353 6  96369010.67844  23534289.969                    23534297.980
 125754824.358 7  97990798.38743  23930346.922                    23930357.516
 105269353.500 8  82028095.49246  20032092.195                    20032099.332
 108497857.465 8  84543808.56946  20646457.164                    20646462.168
 11  7 28 17 50  0.0000000  0 12G08G06G07G28G20G19G03G11G16G10G13G23
 125774363.616 7  98006084.14843  23934077.141                    23934085.953
 120239560.770 7  93693200.49744  22880829.172                    22880837.992
 115371989.599 7  89900282.78945  21954560.086                    21954567.770
 129074593.260 6 100577635.24042  24562074.047                    24562085.977
 132850472.352 6 103519951.64142  25280621.875                    25280635.664
 110635922.771 7  86209834.77246  21053316.109                    21053322.098
 111126299.834 8  86591955.08645  21146632.164                    21146640.258
 130173866.861 6 101434069.50943  24771225.492                    24771237.215
 123764686.317 6  96440044.35443  23551637.461                    23551644.996
 125777687.471 7  98008613.76743  23934697.828                    23934708.211
 105272450.711 8  82030508.88646  20032681.719                    20032688.559
 108560822.783 8  84592872.40346  20658439.180                    20658444.660
 11  7 28 17 50 30.0000000  0 12G08G06G07G28G20G19G03G11G16G10G13G23
 125704714.619 6  97951812.23543  23920822.648                    23920831.867
 120307792.958 7  93746368.40944  22893813.242                    22893821.555
 115316218.544 7  89856824.84345  21943947.055                    21943954.340
 129001429.855 6 100520624.83242  24548152.117                    24548162.809
 132928744.228 6 103580942.54642  25295516.469                    25295530.176
 110609018.524 7  86188870.44046  21048196.320                    21048202.426
 111173782.856 8  86628954.81145  21155668.242                    21155676.688
 130098093.753 6 101375025.62642  24756805.969                    24756818.113
 123855844.085 6  96511076.32743  23568984.688                    23568991.879
 125800979.209 7  98026763.09343  23939131.211                    23939139.988
 105276136.995 7  82033381.29646  20033383.141                    20033390.242
 108624291.752 8  84642328.70246  20670516.719                    20670522.715
 11  7 28 17 51  0.0000000  0 12G08G06G07G28G20G19G03G11G16G10G13G23
 125635009.028 6  97897496.25843  23907558.461                    23907567.934
 120376446.096 7  93799864.33044  22906877.469                    22906885.922
 115260504.081 7  89813410.98245  21933345.164                    21933352.332
 128928475.571 6 100463777.50642  24534269.695                    24534279.914
 133006791.888 6 103641758.77442  25310368.125                    25310381.539
 110582702.655 8  86168364.57246  21043188.836                    21043194.633
 111221838.580 8  86666400.81545  21164813.023                    21164820.676
 130022177.970 6 101315870.62242  24742359.633                    24742370.992
 123946998.244 6  96582105.50344  23586330.703                    23586338.121
 125824697.494 7  98045244.83443  23943644.391                    23943654.121
 105280413.474 8  82036713.60146  20034197.383                    20034204.188
 108688263.058 8  84692176.43346  20682690.078                    20682695.535
 11  7 28 17 51 30.0000000  0 12G08G06G07G28G20G19G03G11G16G10G13G23
 125565246.952 7  97843136.27043  23894283.133                    23894292.660
 120445518.088 7  93853686.64144  22920021.398                    22920030.102
 115204847.006 7  89770041.85845  21922754.289                    21922761.387
 128855730.943 6 100407093.51743  24520426.914                    24520437.129
 133084612.951 6 103702398.40942  25325177.828                    25325190.219
 110556976.515 8  86148318.24246  21038293.391                    21038299.348
 111270464.965 8  86704291.50945  21174066.297                    21174074.496
 129946121.764 6 101256606.18143  24727886.797                    24727897.816
 124038146.973 6  96653130.42344  23603675.055                    23603683.836
 125848840.917 7  98064057.85743  23948238.461                    23948248.941
 105285280.553 8  82040506.10746  20035123.156                    20035130.148
 108752734.603 8  84742413.95646  20694958.508                    20694964.074
 11  7 28 17 52  0.0000000  0 12G08G06G07G28G20G19G03G11G16G10G13G23
 125495428.506 7  97788732.34544  23880997.266                    23881006.309
 120515006.527 7  93907833.44644  22933244.672                    22933252.883
 115149248.277 7  89726718.18345  21912173.570                    21912181.516
 128783196.351 6 100350573.17143  24506623.805                    24506633.766
 133162205.495 6 103762859.95142  25339942.391                    25339955.625
 110531841.499 7  86128732.51946  21033509.711                    21033515.992
 111319660.167 7  86742625.39745  21183428.156                    21183436.363
 129869927.624 6 101197234.21443  24713387.352                    24713398.523
 124129288.633 6  96724149.78144  23621019.750                    23621027.066
 125873407.684 7  98083200.75343  23952913.336                    23952923.750
 105290738.756 8  82044759.23346  20036161.977                    20036168.949
 108817704.936 8  84793040.15046  20707321.719                    20707327.641
 11  7 28 17 52 30.0000000  0 12G08G06G07G28G20G19G03G11G16G10G13G23
 125425554.025 7  97734284.74943  23867700.539                    23867709.813
 120584909.422 7  93962303.18744  22946546.609                    22946555.754
 115093708.712 7  89683440.62345  21901605.125                    21901612.457
 128710872.285 6 100294216.82243  24492860.797                    24492871.203
 133239567.876 6                  25354665.180
 110507298.669 8  86109608.25046  21028840.344                    21028845.965
 111369422.765 8  86781401.42045  21192897.305                    21192905.469
 129793597.565 6 101137756.38343  24698862.070                    24698873.746
 124220422.215 7  96795162.92244  23638361.977                    23638369.516
 125898395.800 6  98102671.96643  23957669.219                    23957678.609
 105296788.823 7  82049473.55246  20037313.375                    20037319.875
 108883172.600 8  84844053.86446  20719779.867                    20719785.156
 11  7 28 17 53  0.0000000  0 12G08G06G07G28G20G19G03G11G16G10G13G23
 125355623.708 7  97679793.66943  23854392.898                    23854402.363
 120655224.434 7  94017094.08444  22959927.352                    22959936.160
 115038229.173 7  89640209.82145  21891047.297                    21891054.949
 128638759.171 6 100238024.88243  24479138.148                    24479148.969
 133316697.768 5 103883262.16852  25369341.211                    25369354.582
 110483349.342 8  86090946.43546  21024282.461                    21024288.121
 111419750.733 8  86820618.01245  21202474.586                    21202482.449
 129717134.226 6 101078174.68543  24684311.320                    24684322.738
 124311545.796 7  96866168.28344  23655701.969                    23655708.867
 125923803.605 7  98122470.21743  23962503.633                    23962513.762
 105303431.149 8  82054649.37146  20038577.516                    20038584.250
 108949135.702 8  84895453.64146  20732332.664                    20732338.098
 11  7 28 17 53 30.0000000  0 12G08G06G07G28G20G19G03G11G16G10G13G23
 125285637.808 7  97625259.27344  23841075.203                    23841084.781
 120725949.610 7  94072204.57044  22973386.055                    22973394.254
 114982810.503 7  89597026.45746  21880501.586                    21880509.398
 128566857.196 6 100181997.43443  24465455.469                    24465465.984
 133393593.580 5 103943180.83842  25383975.398                    25383988.055
 110459995.086 8  86072748.32646  21019838.266                    21019844.094
 111470642.369 7  86860273.81545  21212159.102                    21212167.215
 129640539.962 6 101018490.97942  24669735.875                    24669746.672
 124402658.042 6  96937164.74943  23673040.391                    23673047.699
 125949629.264 6  98142594.07943  23967417.906                    23967428.090
 105310666.477 8  82060287.27446  20039953.586                    20039960.875
 109015592.629 8  84947238.21546  20744978.898                    20744984.461
 11  7 28 17 54  0.0000000  0 12G08G06G07G28G20G19G03G11G16G10G13G23
 125215596.460 7  97570681.67244  23827746.438                    23827756.461
 120797082.529 7  94127632.81244  22986921.633                    22986930.672
 114927453.577 7  89553891.19246  21869967.992                    21869975.422
 128495166.832 6 100126134.90243  24451813.586                    24451823.867
 133470253.182 5 104002915.46643  25398562.484                    25398576.680
 110437236.831 8  86055014.62246  21015507.688                    21015513.344
 111522095.780 7  86900367.35445  21221949.836                    21221958.273
 129563817.143 6 100958707.11542  24655136.039                    24655146.418
 124493757.276 6  97008151.10243  23690376.117                    23690382.906
 125975870.316 6  98163041.58843  23972411.836                    23972421.699
 105318494.745 8  82066387.20146  20041443.531                    20041450.523
 109082541.566 8  84999406.18346  20757718.602                    20757724.277
 11  7 28 17 54 30.0000000  0 12G08G06G07G28G20G19G03G11G16G10G13G23
 125145500.277 6  97516061.33343  23814407.633                    23814417.082
 120868621.088 6  94183377.08444  23000535.477                    23000544.027
 114872159.387 7  89510804.83446  21859445.188                    21859453.289
 128423688.550 6 100070437.57943  24438211.141                    24438221.367
 133546674.49715 104062464.37152  25413104.781                    25413119.027
 110415075.838 7  86037746.32846  21011290.000                    21011296.348
 111574108.911 7  86940897.05245  21231847.938                    21231855.895
 129486968.067 6 100898824.83942  24640511.016                    24640522.176
 124584842.038 6  97079126.16543  23707708.523                    23707716.465
 126002524.969 6  98183811.41143  23977484.203                    23977493.742
 105326916.530 7  82072949.61346  20043046.859                    20043053.199
 109149980.887 8  85051956.26246  20770552.227                    20770557.809
 11  7 28 17 55  0.0000000  0 12G08G06G07G28G20G19G03G11G16G10G13G23
 125075348.854 7  97461397.94543  23801058.492                    23801067.820
 120940562.842 7  94239435.56844  23014225.328                    23014233.875
 114816928.957 7  89467768.15545  21848935.773                    21848943.324
 128352422.620 6 100014905.76843  24424650.680                    24424660.117
 133622856.189 5 104121826.61142  25427600.734                    25427616.277
 110393513.518 8  86020944.52646  21007187.188                    21007193.270
 111626679.643 7  86981861.25045  21241851.914                    21241859.504
 129409995.256 6 100838846.12742  24625864.898                    24625875.531
 124675910.710 6  97150088.69743  23725038.117                    23725045.613
 126029591.648 6  98204902.28043  23982634.516                    23982644.742
 105335932.123 8  82079974.73646  20044761.813                    20044768.957
 109217908.821 8  85104887.07646  20783478.617                    20783484.215
 11  7 28 17 55 30.0000000  0 12G08G06G07G28G20G19G03G11G16G10G13G23
 125005142.776 7  97406692.00243  23787698.938                    23787707.574
 121012906.087 6  94295806.90044  23027992.180                    23028000.402
 114761763.693 7  89424782.25246  21838437.984                    21838445.121
 128281369.915 6  99959540.09943  24411129.258                    24411139.137
 133698796.124 4                  25442051.398
 110372550.952 8  86004610.07846  21003198.672                    21003203.922
 111679806.693 7  87023258.93045  21251962.070                    21251969.441
 129332901.149 6 100778772.88442  24611194.555                    24611205.066
 124766962.225 6  97221037.88543  23742365.180                    23742372.543
 126057068.337 6  98226312.65843  23987862.578                    23987873.289
 105345542.595 8  82087463.40746  20046590.805                    20046597.695
 109286323.949 8  85158197.52746  20796497.531                    20796503.234
 11  7 28 17 56  0.0000000  0 12G08G06G07G28G20G19G03G11G16G10G13G23
 124934882.318 7  97351943.67243  23774328.836                    23774337.398
 121085648.363 6  94352489.15244  23041834.055                    23041842.715
 114706663.709 7  89381847.20345  21827952.727                    21827960.223
 128210530.148 6  99904340.33043  24397648.195                    24397658.715
 133774492.51614                  25456456.422
 110352189.348 7  85988743.91146  20999323.508                    20999329.359
 111733487.569 8  87065088.15945  21262176.695                    21262184.836
 129255688.082 6 100718606.99742  24596500.375                    24596511.320
 124857994.998 6  97291972.44743  23759687.414                    23759695.324
 126084953.139 6  98248041.02243  23993169.422                    23993179.453
 105355747.944 8  82095415.60546  20048532.797                    20048539.824
 109355224.080 8  85211885.89946  20809608.711                    20809614.438
 11  7 28 17 56 30.0000000  0 12G08G06G07G28G20G19G03G11G16G10G13G23
 124864567.662 7  97297153.06444  23760947.500                    23760956.918
 121158787.109 6  94409480.36244  23055752.102                    23055760.730
 114651630.199 8  89338963.96745  21817480.344                    21817487.695
 128139903.805 6  99849306.85343  24384208.633                    24384218.801
 133849943.543 5                  25470816.148
 110332429.751 8  85973346.84146  20995563.211                    20995569.254
 111787720.372 7  87107347.46745  21272497.156                    21272504.473
 129178358.487 5 100658350.24342  24581785.156                    24581796.051
 124949007.199 6  97362890.97543  23777007.180                    23777014.758
 126113243.552 6  98270085.46543  23998552.813                    23998563.070
 105366548.250 7  82103831.41746  20050587.836                    20050594.973
 109424607.208 8  85265950.63046  20822811.969                    20822817.723
 11  7 28 17 57  0.0000000  0 12G08G06G07G28G20G19G03G11G16G10G13G23
 124794199.068 7  97242320.47844  23747557.156                    23747566.438
 121232320.390 7  94466779.01644  23069745.672                    23069753.219
 114596664.071 7  89296133.23445  21807020.617                    21807027.895
 128069491.283 6  99794440.05643  24370810.375                    24370819.738
 133925146.83815                  25485125.875
 110313273.389 7  85958419.81846  20991917.734                    20991923.848
 111842503.699 7  87150035.76245  21282921.945                    21282929.215
 129100914.652 6 100598004.46342  24567047.773                    24567058.910
 125039997.673 7  97433792.59243  23794322.000                    23794329.898
 126141937.840 6  98292444.58643  24004013.961                    24004023.211
 105377944.108 7  82112711.28546  20052756.414                    20052763.305
 109494471.865 8  85320390.58446  20836106.852                    20836112.691
 11  7 28 17 57 30.0000000  0 12G08G06G07G28G20G19G03G11G16G10G13G23
 124723776.387 7  97187445.70544  23734156.117                    23734165.324
 121306245.601 7  94524383.04544  23083812.680                    23083820.680
 114541766.258 8  89253355.73545  21796573.961                    21796580.898
 127999292.834 6  99739739.98943  24357451.383                    24357461.500
 134000100.958 5 104415790.80552  25499390.859                    25499403.809
 110294720.868 8  85943963.32646  20988387.344                    20988393.375
 111897834.964 8  87193151.01345  21293451.156                    21293458.656
 129023358.881 6 100537571.47742  24552289.711                    24552300.613
 125130964.541 6  97504675.80244  23811632.258                    23811640.008
 126171033.842 6  98315116.74043  24009550.617                    24009559.762
 105389935.181 8  82122054.96346  20055038.625                    20055045.289
 109564815.707 8  85375203.91946  20849492.781                    20849498.797
 11  7 28 17 58  0.0000000  0 12G08G06G07G28G20G19G03G11G16G10G13G23
 124653300.435 7  97132529.43443  23720744.531                    23720753.926
 121380560.576 7  94582290.80044  23097953.898                    23097963.305
 114486937.890 8  89210632.34545  21786140.445                    21786147.648
 127929308.848 6  99685207.12342  24344133.258                    24344143.469
 134074803.840 5 104474000.65842  25513606.078                    25513619.223
 110276773.353 8  85929978.26746  20984972.453                    20984977.734
 111953712.225 7  87236691.72145  21304084.102                    21304092.035
 128945693.894 6 100477053.36642  24537510.625                    24537521.418
 125221906.685 6  97575539.73844  23828938.742                    23828946.328
 126200529.581 6  98338100.37343  24015162.969                    24015173.191
 105402521.976 8  82131862.83946  20057433.563                    20057440.418
 109635636.977 8  85430389.27346  20862969.875                    20862975.789
 11  7 28 17 58 30.0000000  0 12G08G06G07G28G20G19G03G11G16G10G13G23
 124582771.414 7  97077571.82043  23707323.711                    23707332.867
 121455262.912 7  94640500.37544  23112170.414                    23112178.508
 114432179.800 8  89167963.71146  21775720.500                    21775727.793
 127859539.387 6  99630841.37143  24330855.492                    24330866.969
 134149254.047 5 104532013.65742  25527772.883                    25527787.184
 110259431.762 7  85916465.34946  20981672.305                    20981677.742
 112010133.033 7  87280655.96845  21314820.336                    21314828.559
 128867922.066 6 100416451.99142  24522711.289                    24522722.195
 125312822.730 6  97646383.34743  23846239.820                    23846247.051
 126230422.825 6  98361393.75743  24020851.750                    24020861.891
 105415704.724 8  82142135.10046  20059942.453                    20059948.945
 109706933.778 8  85485945.17946  20876537.367                    20876543.082
 11  7 28 17 59  0.0000000  0 12G08G06G07G28G20G19G03G11G16G10G13G23
 124512189.405 7  97022572.90443  23693891.875                    23693901.289
 121530350.366 7  94699010.03944  23126458.273                    23126466.594
 114377492.987 8  89125350.64045  21765313.617                    21765320.922
 127789984.953 6  99576643.16643  24317621.086                    24317631.277
 134223449.83715 104589821.51253  25541892.297                    25541902.828
 110242697.019 8  85903425.30746  20978487.938                    20978493.727
 112067095.670 7  87325042.42245  21325659.984                    21325668.227
 128790045.870 6 100355769.35243  24507892.250                    24507902.543
 125403711.268 6  97717205.51743  23863534.594                    23863542.547
 126260711.570 6  98384995.33843  24026616.211                    24026625.582
 105429483.728 8  82152871.96046  20062564.453                    20062570.801
 109778704.331 8  85541870.23546  20890194.570                    20890200.531
 11  7 28 17 59 30.0000000  0 12G08G06G07G28G20G19G03G11G16G10G13G23
 124441554.885 7  96967533.07944  23680450.625                    23680459.996
 121605820.524 6  94757817.92944  23140820.180                    23140828.680
 114322878.233 7  89082793.69846  21754921.055                    21754928.293
 127720645.476 6  99522612.51243  24304425.984                    24304436.613
 134297388.97015 104647436.16252  25555961.547                    25555975.180
 110226570.157 7  85890858.92646  20975418.828                    20975424.613
 112124598.048 7  87369849.45645  21336602.023                    21336610.789
 128712067.766 6 100295007.27642  24493053.008                    24493063.449
 125494570.589 6  97788004.93343  23880823.758                    23880832.285
 126291393.639 6  98408903.39743  24032454.633                    24032464.336
 105443858.964 7  82164073.43446  20065299.641                    20065306.902
 109850946.534 8  85598162.81546  20903942.094                    20903947.797
 11  7 28 18  0  0.0000000  0 12G08G06G07G28G20G19G03G11G16G10G13G23
 124370867.908 7  96912452.38643  23666999.828                    23667008.828
 121681671.302 7  94816922.41044  23155254.078                    23155262.574
 114268336.889 8  89040293.95645  21744541.898                    21744548.922
 127651521.577 6  99468749.85843  24291271.641                    24291282.125
 134371070.162 6 104704850.03342  25569982.711                    25569997.453
 110211052.180 7  85878767.01346  20972465.719                    20972471.641
 112182638.182 7  87415075.51245  21347647.445                    21347655.621
 128633990.240 6 100234167.70943  24478194.672                    24478206.406
 125585399.629 6  97858780.73943  23898108.867                    23898117.336
 126322467.332 6  98433116.61543  24038367.219                    24038377.762
 105458830.762 8  82175739.74346  20068149.242                    20068155.895
 109923658.551 7  85654821.48846  20917779.047                    20917784.277
 11  7 28 18  0 30.0000000  0 12G08G06G07G28G20G19G03G11G16G10G13G23
 124300128.972 7  96857331.19844  23653538.563                    23653547.887
 121757900.250 7  94876321.56544  23169759.898                    23169769.012
 114213869.872 7  88997852.13645  21734177.352                    21734184.727
 127582613.267 6  99415055.17043  24278159.688                    24278169.402
 134444491.061 6 104762061.04242  25583955.617                    25583969.305
 110196143.905 8  85867150.17346  20969628.914                    20969634.652
 112241213.443 7  87460718.53945  21358793.922                    21358801.883
 128555815.582 6 100173252.44843  24463319.430                    24463330.246
 125676196.881 6  97929531.75943  23915387.008                    23915395.160
 126353930.278 6  98457633.13543  24044354.828                    24044365.145
 105474398.844 8  82187870.70846  20071111.555                    20071118.398
 109996838.372 8  85711844.67546  20931704.281                    20931710.281
 11  7 28 18  1  0.0000000  0 12G08G06G07G28G20G19G03G11G16G10G13G23
 124229338.789 6  96802170.07744  23640067.266                    23640076.695
 121834505.117 7  94936013.62044  23184336.984                    23184346.031
 114159478.304 8  88955469.11045  21723826.852                    21723833.852
 127513921.233 6  99361529.00043  24265087.758                    24265097.250
 134517650.078 6 104819067.98442  25597877.297                    25597891.293
 110181846.254 8  85856009.15346  20966908.359                    20966913.531
 112300322.417 7  87506777.47645  21370041.891                    21370049.762
 128477546.495 6 100112263.62043  24448425.297                    24448435.723
 125766961.000 6  98000256.96943  23932658.617                    23932666.621
 126385780.280 6  98482451.25643  24050414.664                    24050426.191
 105490563.917 8  82200466.84746  20074187.539                    20074194.664
 110070484.150 7  85769230.93846  20945718.438                    20945724.242
 11  7 28 18  1 30.0000000  0 12G08G06G07G28G20G19G03G11G16G10G13G23
 124158496.886 7  96746968.63944  23626586.172                    23626595.848
 121911483.423 7  94995996.67844  23198986.172                    23198994.926
 114105163.002 8  88913145.51645  21713490.688                    21713498.035
 127445445.548 6  99308171.47643  24252057.813                    24252067.477
 134590545.829 6 104875869.75442  25611749.602                    25611762.395
 110168160.098 7  85845344.63246  20964304.070                    20964309.523
 112359962.446 7  87553250.20745  21381391.422                    21381398.996
 128399185.716 6 100051203.33943  24433512.844                    24433524.000
 125857690.660 6  98070955.34343  23949923.977                    23949932.004
 126418015.020 6  98507569.19443  24056549.289                    24056560.059
 105507325.790 8  82213528.03346  20077377.133                    20077384.141
 110144593.705 8  85826978.59546  20959821.258                    20959827.094
 11  7 28 18  2  0.0000000  0 12G08G06G07G28G20G19G03G11G16G10G13G23
 124087604.230 6  96691727.68044  23613096.563                    23613105.461
 121988832.818 7  95056268.88644  23213704.719                    23213713.492
 114050925.323 8  88870882.40245  21703169.953                    21703177.102
 127377186.101 6  99254982.47943  24239067.867                    24239078.047
 134663176.332 6 104932464.82942  25625569.602                    25625584.570
 110155085.692 7  85835156.78946  20961815.727                    20961821.516
 112420131.577 7  87600135.22945  21392840.695                    21392848.703
 128320735.375 6  99990073.28843  24418584.969                    24418595.023
 125948384.480 6  98141625.80043  23967183.039                    23967190.188
 126450632.450 6  98532985.32243  24062756.375                    24062766.613
 105524684.264 8  82227054.10246  20080680.820                    20080687.684
 110219164.999 8  85885086.04546  20974011.398                    20974017.711
 11  7 28 18  2 30.0000000  0 12G08G06G07G28G20G19G03G11G16G10G13G23
 124016661.062 7  96636447.34244  23599596.305                    23599605.133
 122066550.926 7  95116828.41044  23228493.617                    23228502.871
 113996766.168 8  88828680.47545  21692863.547                    21692870.871
 127309143.190 6  99201962.17543  24226119.477                    24226129.438
 134735539.939 6 104988851.95542  25639339.867                    25639354.965
 110142624.205 8  85825446.56046  20959444.578                    20959450.383
 112480827.499 7  87647430.72745  21404391.195                    21404398.723
 128242198.173 6  99928875.53642  24403638.453                    24403650.070
 126039040.800 7  98212267.02843  23984434.625                    23984441.488
 126483630.663 6  98558698.18243  24069035.797                    24069046.410
 105542639.416 8  82241045.11246  20084097.352                    20084104.176
 110294196.118 7  85943551.80346  20988289.797                    20988295.566
 11  7 28 18  3  0.0000000  0 12G08G06G07G28G20G19G03G11G16G10G13G23
 123945667.596 7  96581127.83044  23586086.234                    23586094.973
 122144635.443 7  95177673.46244  23243352.305                    23243361.539
 113942686.526 8  88786540.50445  21682572.695                    21682580.074
 127241316.926 6  99149110.69443  24213212.695                    24213221.984
 134807634.576 5                  25653060.195
 110130776.500 8  85816214.60246  20957189.688                    20957195.609
 112542047.837 7  87695134.88445  21416040.547                    21416048.430
 128163576.715 6  99867612.13042  24388677.844                    24388688.504
 126129658.786 6  98282878.41743  24001678.297                    24001685.859
 126517007.374 6  98584705.89143  24075387.422                    24075397.566
 105561191.325 8  82255501.13846  20087627.578                    20087634.805
 110369684.994 7  86002374.24546  21002654.672                    21002660.598
 11  7 28 18  3 30.0000000  0 12G08G06G07G28G20G19G03G11G16G10G13G23
 123874624.387 7  96525769.54244  23572567.469                    23572576.285
 122223083.937 7  95238802.12444  23258281.203                    23258290.383
 113888687.368 8  88744463.25046  21672296.805                    21672303.984
 127173707.841 6  99096428.45543  24200347.352                    24200356.777
 134879459.003 6                  25666727.938
 110119543.136 8  85807461.34546  20955052.289                    20955058.004
 112603790.369 7  87743245.91945  21427790.570                    21427798.324
 128084873.356 6  99806284.91843  24373700.875                    24373712.004
 126220236.892 6  98353458.70743  24018914.695                    24018922.027
 126550760.078 6  98611006.67643  24081810.156                    24081820.570
 105580339.968 8  82270422.13246  20091271.875                    20091278.457
 110445629.410 8  86061551.66346  21017106.742                    21017112.723
 11  7 28 18  4  0.0000000  0 12G08G06G07G28G20G19G03G11G16G10G13G23
 123803531.451 7  96470372.52244  23559039.383                    23559047.789
 122301893.899 7  95300212.46344  23273278.992                    23273286.941
 113834769.898 8  88702449.66545  21662036.648                    21662044.074
 127106315.951 6  99043915.42643  24187522.141                    24187532.074
 134951011.537 6                  25680342.898
 110108924.697 8  85799187.24346  20953032.203                    20953037.676
 112666052.762 7  87791762.05545  21439638.805                    21439646.004
 128006090.761 6  99744895.97243  24358709.469                    24358719.621
 126310773.799 6  98424006.89043  24036143.672                    24036151.277
 126584886.757 6  98637598.83643  24088303.992                    24088314.855
 105600085.016 8  82285807.87346  20095028.984                    20095036.152
 110522027.251 8  86121082.38845  21031644.844                    21031650.609
 11  7 28 18  4 30.0000000  0 12G08G06G07G28G20G19G03G11G16G10G13G23
 123732389.540 6  96414937.33044  23545501.602                    23545509.922
 122381062.978 6  95361902.60244  23288344.281                    23288351.848
 113780935.163 7  88660500.53446  21651792.203                    21651799.563
 127039141.160 6  98991571.56143  24174739.320                    24174748.961
 135022290.377 6                  25693907.469
 110098921.785 8  85791392.78146  20951127.836                    20951133.832
 112728833.042 7  87840681.72545  21451584.781                    21451592.859
 127927231.021 6  99683446.92942  24343702.750                    24343713.133
 126401268.413 6  98494522.10843  24053364.023                    24053372.289
 126619385.207 6  98664480.68543  24094868.797                    24094879.984
 105620426.284 8  82301658.20246  20098899.695                    20098906.863
 110598876.393 8  86180964.78746  21046268.305                    21046274.453
 11  7 28 18  5  0.0000000  0 12G08G06G07G28G20G19G03G11G16G10G13G23
 123661199.196 7  96359464.38244  23531953.758                    23531962.551
 122460588.871 6  95423870.81744  23303476.445                    23303485.508
 113727184.261 7  88618616.73046  21641563.969                    21641571.262
 126972183.683 6  98939397.02543  24161997.508                    24162007.141
 135093293.403 5                  25707419.469
 110089535.087 8  85784078.48546  20949342.039                    20949347.379
 112792129.021 7  87890003.24745  21463629.508                    21463637.355
 127848297.281 6  99621940.21142  24328682.195                    24328692.496
 126491719.189 6  98565003.18943  24070575.727                    24070584.449
 126654253.204 6  98691650.51043  24101504.531                    24101514.910
 105641363.821 8  82317973.14746  20102884.055                    20102890.730
 110676174.907 8  86241197.34145  21060978.000                    21060984.184
 11  7 28 18  5 30.0000000  0 12G08G06G07G28G20G19G03G11G16G10G13G23
 123589960.446 6  96303953.71244  23518398.031                    23518405.902
 122540469.048 6  95486115.08344  23318677.820                    23318686.359
 113673517.996 8  88576798.88646  21631351.648                    21631358.809
 126905443.719 6  98887391.95043  24149296.633                    24149307.242
 135164019.342 5                  25720877.836
 110080765.258 7  85777244.86446  20947673.414                    20947679.086
 112855938.356 7  87939724.79145  21475772.523                    21475779.988
 127769291.877 6  99560377.66343  24313647.531                    24313658.043
 126582125.033 6  98635449.21843  24087778.641                    24087787.961
 126689488.176 6  98719106.24043  24108210.234                    24108220.395
 105662897.328 8  82334752.48846  20106981.742                    20106988.969
 110753920.402 8  86301778.18645  21075772.711                    21075778.320
 11  7 28 18  6  0.0000000  0 12G08G06G07G28G20G19G03G11G16G10G13G23
 123518673.883 7  96248405.80044  23504832.328                    23504840.840
 122620701.134 6  95548633.53844  23333945.727                    23333954.477
 113619937.787 8  88535048.08146  21621155.648                    21621162.641
 126838921.522 6  98835556.54043  24136638.484                    24136647.961
 135234466.523 5                  25734283.781
 110072612.771 8  85770892.29146  20946121.797                    20946127.422
 112920258.116 7  87989844.05545  21488012.352                    21488020.063
 127690217.707 6  99498761.48943  24298600.766                    24298610.969
 126672484.352 6  98705858.98943  24104974.281                    24104983.395
 126725087.908 6  98746846.24143  24114984.625                    24114994.727
 105685026.429 8  82351995.92846  20111192.969                    20111199.359
 110832110.845 8  86362705.74445  21090651.898                    21090657.730
 11  7 28 18  6 30.0000000  0 12G08G06G07G28G20G19G03G11G16G10G13G23
 123447339.982 7  96192820.98544  23491257.594                    23491265.926
 122701282.900 6  95611424.49344  23349279.344                    23349288.203
 113566445.027 8  88493365.43246  21610976.141                    21610983.535
 126772617.247 6  98783890.92043  24124021.445                    24124030.156
 135304633.510 5                  25747635.117
 110065078.214 8  85765021.22046  20944687.953                    20944693.965
 112985086.849 7  88040359.92145  21500348.773                    21500356.453
 127611077.189 6  99437093.62942  24283540.313                    24283550.402
 126762796.383 6  98776231.88643  24122159.625                    24122168.859
 126761050.489 6  98774868.97443  24121827.344                    24121837.887
 105707751.792 8  82369703.98546  20115517.766                    20115524.258
 110910743.952 8  86423978.25145  21105615.352                    21105620.832
 11  7 28 18  7  0.0000000  0 12G08G06G07G28G20G19G03G11G16G10G13G23
 123375959.532 7  96137199.90844  23477674.750                    23477682.461
 122782211.714 6  95674485.85944  23364679.984                    23364688.676
 113513040.750 8  88451751.72246  21600813.859                    21600821.258
 126706530.866 6  98732395.14043  24111444.477                    24111454.727
 135374518.80616                  25760934.414
 110058162.011 8  85759631.99546  20943371.891                    20943377.820
 113050421.856 7  88091270.28345  21512781.875                    21512789.676
 127531872.687 6  99375375.95442  24268467.977                    24268478.578
 126853059.553 6  98846566.76843  24139336.609                    24139345.652
 126797373.305 6  98803172.41943  24128739.555                    24128749.398
 105731072.463 8  82387875.91746  20119954.852                    20119961.539
 110989817.766 8  86485594.14945  21120662.133                    21120668.555
 11  7 28 18  7 30.0000000  0 12G08G06G07G28G20G19G03G11G16G10G13G23
 123304532.469 7  96081542.50644  23464082.305                    23464090.699
 122863485.172 6  95737815.81644  23380145.211                    23380154.121
 113459726.067 8  88410207.82946  21590668.234                    21590675.488
 126640662.639 6  98681069.30343  24098910.992                    24098920.453
 135444120.53415                  25774178.586
 110051864.638 8  85754724.96946  20942173.563                    20942179.148
 113116260.597 7  88142573.19045  21525310.625                    21525317.820
 127452606.815 6  99313610.36843  24253384.672                    24253394.492
 126943272.786 6  98916862.71343  24156503.875                    24156512.504
 126834054.130 6  98831754.82343  24135720.211                    24135729.863
 105754988.272 8  82406511.59446  20124505.742                    20124512.973
 111069330.076 8  86547551.73345  21135792.742                    21135799.313
 11  7 28 18  8  0.0000000  0 12G08G06G07G28G20G19G03G11G16G10G13G23
 123233059.442 7  96025849.27543  23450481.086                    23450489.992
 122945101.009 6  95801412.53844  23395677.055                    23395685.105
 113406502.266 8  88368734.75146  21580539.852                    21580546.984
 126575012.775 6  98629913.63443  24086417.555                    24086427.898
 135513436.04515                  25787369.547
 110046186.840 8  85750300.72746  20941092.828                    20941098.512
 113182600.858 7  88194266.89045  21537934.664                    21537942.508
 127373282.558 6  99251799.32443  24238288.914                    24238299.848
 127033435.041 6  98987118.91543  24173661.734                    24173669.699
 126871090.758 6  98860614.45843  24142768.211                    24142778.023
 105779498.719 8  82425610.63046  20129170.203                    20129177.133
 111149278.588 8  86609849.21645  21151006.984                    21151013.188
 11  7 28 18  8 30.0000000  0 11G08G06G07G28G19G03G11G16G10G13G23
 123161540.699 7  95970120.44144  23436871.125                    23436880.211
 123027056.403 6  95865273.85544  23411272.695                    23411281.363
 113353369.944 8  88327332.96546  21570429.297                    21570436.480
 126509581.096 6  98578927.95843  24073966.820                    24073976.352
 110041128.704 8  85746359.33746  20940130.609                    20940136.234
 113249440.281 7  88246349.52445  21550653.578                    21550661.008
 127293902.472 6  99189944.75443  24223184.047                    24223194.090
 127123544.593 6  99057334.11743  24190809.117                    24190817.059
 126908480.791 6  98889749.47943  24149883.211                    24149893.328
 105804603.927 8  82445173.10146  20133947.695                    20133954.613
 111229661.002 8  86672484.80045  21166303.688                    21166309.469
 11  7 28 18  9  0.0000000  0 11G08G06G07G28G19G03G11G16G10G13G23
 123089976.734 7  95914356.37443  23423253.727                    23423261.949
 123109349.126 6  95929398.02344  23426932.453                    23426941.324
 113300330.475 8  88286003.52246  21560336.086                    21560343.656
 126444367.657 6  98528112.33643  24061556.672                    24061566.898
 110036690.537 8  85742901.04446  20939286.203                    20939291.707
 113316776.420 7  88298819.21945  21563467.125                    21563474.754
 127214469.226 6  99128048.79943  24208068.273                    24208078.176
 127213600.549 6  99127507.51543  24207946.461                    24207953.855
 126946221.943 6  98919158.10043  24157064.516                    24157075.672
 105830303.383 8  82465198.63946  20138837.781                    20138845.215
 111310474.931 8  86735456.63645  21181681.813                    21181687.699
 11  7 28 18  9 30.0000000  0 11G08G06G07G28G19G03G11G16G10G13G23
 123018368.342 7  95858557.66444  23409627.070                    23409635.570
 123191976.851 6  95993783.20944  23442656.211                    23442664.906
 113247385.572 8  88244747.77646  21550261.477                    21550268.699
 126379372.664 6  98477466.93443  24049188.695                    24049198.621
 110032872.956 8  85739926.30646  20938559.508                    20938564.930
 113384606.580 7  88351673.87345  21576374.656                    21576382.367
 127134985.257 6  99066113.34443  24192943.164                    24192953.500
 127303602.039 6  99197638.49743  24225072.211                    24225080.375
 126984311.496 6  98948838.22743  24164312.625                    24164323.105
 105856596.545 8  82485686.79246  20143841.578                    20143848.496
 111391718.583 8  86798763.32146  21197142.070                    21197148.348
 11  7 28 18 10  0.0000000  0 11G08G06G07G28G19G03G11G16G10G13G23
 122946715.992 7  95802724.72144  23395991.898                    23396000.203
 123274936.775 6  96058427.28244  23458442.922                    23458451.938
 113194536.012 7  88203566.31745  21540203.953                    21540211.324
 126314596.102 6  98426991.72943  24036862.063                    24036871.590
 110029676.016 7  85737435.20546  20937950.977                    20937957.129
 113452928.454 7  88404911.68145  21589376.055                    21589383.566
 127055453.157 6  99004140.34343  24177809.289                    24177818.379
 127393547.548 6  99267725.86943  24242189.102                    24242196.980
 127022747.152 6  98978788.03043  24171627.656                    24171637.141
 105883483.041 8  82506637.28846  20148957.914                    20148965.039
 111473389.190 8  86862402.69545  21212683.438                    21212689.352
 11  7 28 18 10 30.0000000  0 11G08G06G07G28G19G03G11G16G10G13G23
 122875019.838 7  95746857.63044  23382349.008                    23382356.797
 123358226.348 7  96123328.17844  23474292.680                    23474301.098
 113141782.609 8  88162459.78646  21530165.469                    21530172.613
 126250037.682 6  98376686.47743  24024577.367                    24024585.984
 110027100.003 8  85735427.94146  20937460.898                    20937466.336
 113521739.472 7  88458530.63145  21602470.703                    21602478.477
 126975875.481 6  98942131.77543  24162665.852                    24162675.258
 127483435.643 6  99337768.47143  24259294.031                    24259302.957
 127061526.512 6  99009005.63943  24179006.672                    24179016.969
 105910962.426 8  82528049.77446  20154187.516                    20154194.281
 111555484.385 8  86926372.91245  21228305.875                    21228311.719
 11  7 28 18 11  0.0000000  0 11G08G06G07G28G19G03G11G16G10G13G23
 122803280.763 7  95690957.08844  23368697.039                    23368705.324
 123441843.277 7  96188484.20644  23490203.781                    23490212.656
 113089126.810 8  88121429.30946  21520145.758                    21520152.602
 126185697.800 6  98326551.54243  24012334.063                    24012342.977
 110025145.106 8  85733904.64646  20937088.758                    20937094.504
 113591037.282 7  88512528.89245  21615657.289                    21615665.438
 126896254.935 6  98880089.88243  24147513.039                    24147524.238
 127573265.405 6  99407765.65643  24276388.039                    24276396.828
 127100647.048 6  99039489.10443  24186451.492                    24186461.301
 105939034.211 8  82549923.87546  20159529.047                    20159535.902
 111638002.174 8  86990672.42645  21244008.508                    21244014.320
 11  7 28 18 11 30.0000000  0 11G08G06G07G28G19G03G11G16G10G13G23
 122731498.987 7  95635023.27744  23355036.766                    23355046.066
 123525784.838 7  96253893.17144  23506177.828                    23506186.359
 113036569.884 8  88080475.87646  21510144.000                    21510151.500
 126121576.391 6  98276586.84843  24000131.313                    24000140.797
 110023811.483 7  85732865.47546  20936835.172                    20936840.633
 113660819.178 7  88566904.38045  21628936.516                    21628943.863
 126816594.219 6  98818016.67743  24132353.930                    24132365.281
 127663035.659 6  99477716.38543  24293471.320                    24293479.172
 127140106.580 6  99070236.73243  24193960.508                    24193969.727
 105967697.732 8  82572259.06746  20164983.844                    20164990.328
 111720939.940 8  87055299.19145  21259791.133                    21259796.719
 11  7 28 18 12  0.0000000  0 11G08G06G07G28G19G03G11G16G10G13G23
 122659675.257 7  95579056.76944  23341370.266                    23341377.887
 123610049.044 7  96319553.51244  23522212.867                    23522221.340
 112984113.199 8  88039600.56446  21500161.906                    21500169.047
 126057673.752 6  98226792.58643  23987971.977                    23987980.520
 110023099.667 8  85732310.82146  20936699.680                    20936705.371
 113731083.331 7  88621655.66045  21642307.047                    21642314.809
 126736896.217 6  98755914.42643  24117188.781                    24117199.297
 127752745.324 6  99547620.00243  24310542.242                    24310550.262
 127179902.865 6  99101246.76843  24201533.555                    24201543.402
 105996952.717 8  82595055.14046  20170550.578                    20170557.238
 111804295.767 8  87120251.71645  21275653.039                    21275658.688
 11  7 28 18 12 30.0000000  0 11G08G06G07G28G19G03G11G16G10G13G23
 122587810.064 7  95523057.98444  23327694.313                    23327703.164
 123694633.194 6  96385463.18844  23538308.852                    23538317.488
 112931757.960 7  87998804.28746  21490199.188                    21490206.141
 125993989.618 6  98177168.65843  23975852.828                    23975862.098
 110023009.868 8  85732240.84746  20936682.281                    20936688.254
 113801826.683 7  88676780.31545  21655769.109                    21655777.605
 126657163.618 6  98693785.21643  24102015.922                    24102026.801
 127842393.314 6  99617475.48443  24327601.867                    24327610.363
 127220033.305 6  99132517.19543  24209170.586                    24209179.340
 106026798.748 8  82618311.76846  20176229.875                    20176236.898
 111888067.103 8  87185528.01045  21291594.359                    21291600.359
 11  7 28 18 13  0.0000000  0 11G08G06G07G28G19G03G11G16G10G13G23
 122515903.759 7  95467027.13544  23314011.164                    23314019.270
 123779534.629 6  96451620.10244  23554464.523                    23554473.824
 112879505.348 8  87958087.98946  21480255.766                    21480262.840
 125930523.997 6  98127714.96943  23963775.375                    23963784.492
 110023542.017 8  85732655.51646  20936783.938                    20936788.918
 113873046.727 7  88732276.42845  21669322.203                    21669330.211
 126577399.074 6  98631631.07743  24086836.953                    24086847.219
 127931978.548 6  99687282.07943  24344649.258                    24344657.047
 127260495.306 6  99164045.95343  24216868.938                    24216879.434
 106057234.986 8  82642028.29546  20182021.523                    20182028.758
 111972251.454 8  87251126.15045  21307614.320                    21307619.875
 11  7 28 18 13 30.0000000  0 11G08G06G07G28G19G03G11G16G10G13G23
 122443957.195 7  95410964.92244  23300319.750                    23300328.945
 123864751.112 6  96518022.48744  23570681.258                    23570689.969
 112827356.584 8  87917452.60845  21470332.086                    21470339.191
 125867277.061 6  98078431.70843  23951740.516                    23951749.938
 110024696.506 8  85733555.12246  20937003.703                    20937008.949
 113944740.859 7  88788141.97145  21682964.977                    21682973.039
 126497605.152 6  98569454.07143  24071652.453                    24071662.902
 128021499.852 6  99757038.88143  24361683.867                    24361693.570
 127301286.382 6  99195831.16043  24224631.883                    24224642.488
 106088260.997 8  82666204.38946  20187925.727                    20187933.109
 112056846.516 8  87317044.31245  21323711.945                    21323717.930
 11  7 28 18 14  0.0000000  0 11G08G06G07G28G19G03G11G16G10G13G23
 122371971.016 7  95354871.83844  23286621.664                    23286629.508
 123950279.981 6  96584668.30344  23586956.430                    23586965.750
 112775312.906 8  87876899.10846  21460428.406                    21460435.605
 125804248.633 6  98029318.74143  23939746.125                    23939756.023
 110026473.106 8  85734939.48646  20937341.844                    20937346.953
 114016906.727 7  88844375.09545  21696697.484                    21696705.281
 126417784.649 6  98507256.35443  24056463.172                    24056473.711
 128110956.106 6  99826744.97143  24378707.625                    24378715.977
 127342404.200 6  99227870.97043  24232456.648                    24232466.133
 106119876.099 8  82690839.50846  20193942.422                    20193949.301
 112141849.995 8  87383280.72345  21339887.875                    21339893.824
 11  7 28 18 14 30.0000000  0 11G08G06G07G28G19G03G11G16G10G13G23
 122299945.704 7  95298748.25544  23272915.109                    23272924.215
 124036118.839 6  96651555.67944  23603291.633                    23603300.383
 112723375.694 8  87836428.57046  21450545.094                    21450552.375
 125741438.822 6  97980376.15043  23927793.703                    23927803.250
 110028872.131 7  85736808.86846  20937798.320                    20937803.883
 114089541.825 7  88900973.84645  21710519.055                    21710527.703
 126337940.439 6  98445040.12043  24041270.266                    24041280.227
 128200346.300 6  99896399.61243  24395717.117                    24395726.570
 127383846.308 6  99260163.47343  24240343.281                    24240352.820
 106152080.001 8  82715933.43146  20200070.180                    20200077.320
 112227259.565 8  87449833.56845  21356140.789                    21356146.820
 11  7 28 18 15  0.0000000  0 11G08G06G07G28G19G03G11G16G10G13G23
 122227881.677 7  95242594.51644  23259201.703                    23259210.797
 124122265.028 7  96718682.53244  23619683.719                    23619693.367
 112671546.215 8  87796041.99146  21440682.195                    21440689.246
 125678847.345 6  97931603.67643  23915883.344                    23915892.121
 110031893.450 8  85739163.15446  20938373.055                    20938378.676
 114162643.726 7  88957936.32045  21724430.563                    21724438.723
 126258075.193 6  98382807.53043  24026071.938                    24026082.371
 128289669.539 5  99966002.04543  24412715.461                    24412724.297
 127425610.142 6  99292706.64143  24248290.492                    24248300.395
 106184871.782 8  82741485.45246  20206310.828                    20206317.371
 112313072.737 8  87516700.91245  21372470.359                    21372476.387
 11  7 28 18 15 30.0000000  0 11G08G06G07G28G19G03G11G16G10G13G23
 122155779.757 7  95186411.26344  23245481.750                    23245489.988
 124208715.738 7  96786046.66744  23636135.352                    23636144.934
 112619825.206 8  87755739.91946  21430840.438                    21430847.441
 125616473.589 6  97883000.86243  23904013.469                    23904022.590
 110035536.688 8  85742002.05946  20939066.102                    20939071.695
 114236209.416 7  89015260.21045  21738429.820                    21738437.770
 126178191.054 6  98320560.18243  24010869.953                    24010880.215
 128378924.302 6 100035551.11743  24429700.180                    24429708.684
 127467692.994 7  99325498.38443  24256298.266                    24256308.191
 106218249.978 8  82767494.41846  20212661.836                    20212669.039
 112399286.563 8  87583880.44145  21388876.352                    21388882.402
 11  7 28 18 16  0.0000000  0 12G08G06G24G07G28G19G03G11G16G10G13G23
 122083640.744 7  95130199.07644  23231753.258                    23231762.219
 124295469.124 7  96853646.64844  23652644.578                    23652653.434
 133640301.86815                  25430907.328
 112568215.068 8  87715524.24346  21421018.906                    21421026.754
 125554318.735 6  97834568.60943  23892185.719                    23892194.648
 110039802.339 8  85745325.95246  20939877.727                    20939883.855
 114310236.880 7  89072943.90945  21752516.336                    21752524.570
 126098291.512 6  98258300.87643  23995666.227                    23995675.656
 128468110.033 6 100105046.43243  24446671.477                    24446680.070
 127510092.861 6  99358537.18443  24264366.586                    24264376.910
 106252214.893 8  82793960.56146  20219125.789                    20219132.703
 112485899.118 8  87651370.67945  21405358.195                    21405364.180
 11  7 28 18 16 30.0000000  0 11G08G06G07G28G19G03G11G16G10G13G23
 122011465.280 7  95073958.51244  23218019.219                    23218027.262
 124382522.463 6  96921480.37744  23669210.109                    23669219.426
 112516716.342 8  87675395.38846  21411219.406                    21411226.332
 125492382.123 6  97786306.43343  23880399.219                    23880408.453
 110044690.474 7  85749134.89546  20940808.344                    20940813.270
 114384723.104 7  89130985.09845  21766690.852                    21766698.633
 126018379.186 6  98196031.58243  23980458.758                    23980468.590
 128557225.615 6 100174487.08143  24463630.563                    24463638.719
 127552807.068 6  99391820.91343  24272495.266                    24272505.145
 106286765.582 8  82820883.15246  20225700.383                    20225707.387
 112572908.034 8  87719169.77245  21421915.414                    21421921.578
 11  7 28 18 17  0.0000000  0 11G08G06G07G28G19G03G11G16G10G13G23
 121939253.595 7  95017689.69644  23204277.797                    23204285.684
 124469872.945 6  96989545.64443  23685831.867                    23685841.672
 112465330.502 7  87635354.49346  21401440.961                    21401447.699
 125430663.720 6  97738214.28543  23868655.117                    23868663.883
 110050200.438 8  85753428.38946  20941856.664                    20941862.078
 114459665.538 7  89189381.74945  21780952.055                    21780960.129
 125938456.446 6  98133754.18043  23965250.461                    23965260.109
 128646269.668 6 100243871.98743  24480575.328                    24480583.234
 127595832.948 6  99425347.50543  24280682.492                    24280692.980
 106321900.906 8  82848261.30146  20232386.492                    20232393.270
 112660310.676 8  87787275.65645  21438547.914                    21438554.129
 11  7 28 18 17 30.0000000  0 12G08G06G24G07G28G19G03G11G16G10G13G23
 121867005.889 7  94961392.83144  23190529.344                    23190537.906
 124557517.575 6  97057840.13743  23702510.383                    23702519.410
 133453990.78315                  25395423.352
 112414058.083 7  87595401.97346  21391683.898                    21391691.152
 125369162.374 6  97690291.29743  23856950.961                    23856961.188
 110056331.891 7  85758206.15746  20943023.484                    20943028.582
 114535060.912 7  89248131.37145  21795299.148                    21795306.891
 125858526.184 6  98071470.90043  23950039.320                    23950049.832
 128735241.078 6 100313200.30343  24497505.086                    24497513.941
 127639167.555 6  99459114.69043  24288928.617                    24288939.301
 106357619.527 8  82876093.96146  20239183.773                    20239190.340
 112748104.295 8  87855686.20445  21455254.117                    21455261.051
 11  7 28 18 18  0.0000000  0 12G08G06G24G07G28G19G03G11G16G10G13G23
 121794724.042 7  94905069.33044  23176774.703                    23176783.375
 124645455.112 7  97126362.86243  23719244.398                    23719253.391
 133391343.46315                  25383503.188
 112362901.796 7  87555539.94946  21381949.305                    21381956.223
 125307879.743 6  97642538.68843  23845289.453                    23845299.137
 110063085.691 7  85763468.86346  20944308.313                    20944314.203
 114610907.659 7  89307232.69545  21809733.078                    21809740.660
 125778591.705 6  98009184.38343  23934828.664                    23934839.324
 128824139.448 6 100382471.69443  24514422.391                    24514430.461
 127682809.462 6  99493121.32943  24297233.852                    24297243.988
 106393922.005 8  82904381.58346  20246091.453                    20246098.398
 112836286.952 8  87924399.88945  21472035.023                    21472040.922
 11  7 28 18 18 30.0000000  0 11G08G06G07G28G19G03G11G16G10G13G23
 121722407.848 7  94848719.08244  23163013.484                    23163021.828
 124733681.936 6  97195111.00143  23736033.070                    23736041.766
 112311862.072 7  87515768.74446  21372236.609                    21372243.941
 125246814.763 6  97594955.72443  23833668.781                    23833678.535
 110070460.801 8  85769215.71146  20945711.898                    20945717.254
 114687202.743 7  89366683.38545  21824250.484                    21824258.453
 125698654.934 6  97946896.03843  23919617.648                    23919628.020
 128912963.355 6 100451685.05443  24531325.602                    24531332.953
 127726755.120 6  99527364.62243  24305597.258                    24305606.035
 106430806.551 7  82933122.75646  20253110.219                    20253117.527
 112924855.744 8  87993414.46145  21488889.094                    21488895.371
 11  7 28 18 19  0.0000000  0 12G08G06G24G07G28G19G03G11G16G10G13G23
 121650058.447 7  94792342.95444  23149245.141                    23149253.844
 124822196.087 6  97264083.04243  23752877.320                    23752885.457
 133265334.14315                  25359521.273
 112260940.637 8  87476089.71346  21362546.727                    21362553.848
 125185967.418 6  97547542.29143  23822090.203                    23822099.508
 110078457.547 7  85775446.93246  20947233.914                    20947239.293
 114763943.374 7  89426481.23845  21838854.180                    21838862.297
 125618719.255 6  97884608.60843  23904405.711                    23904416.121
 129001712.008 6 100520839.81543  24548213.820                    24548221.129
 127771002.306 6  99561842.90243  24314016.445                    24314026.270
 106468272.484 8  82962316.96346  20260239.688                    20260246.871
 113013808.236 7  88062728.01845  21505816.648                    21505822.594
 11  7 28 18 19 30.0000000  0 12G08G06G24G07G28G19G03G11G16G10G13G23
 121577676.656 7  94735941.57844  23135472.000                    23135480.254
 124910995.126 6  97333277.05743  23769775.180                    23769783.320
 133201960.652 4                  25347461.758
 112210139.118 8  87436504.12746  21352879.227                    21352886.535
 125125338.033 6  97500298.71343  23810553.398                    23810562.418
 110087075.810 8  85782162.45446  20948873.813                    20948879.453
 114841127.051 7  89486624.32645  21853541.781                    21853549.625
 125538787.738 6  97822324.35443  23889195.227                    23889205.715
 129090384.801 6 100589935.41042  24565087.672                    24565095.617
 127815548.628 6  99596554.24543  24322493.023                    24322503.258
 106506319.602 8  82991964.02946  20267479.969                    20267487.285
 113103142.236 8  88132338.85345  21522816.281                    21522822.359
 11  7 28 18 20  0.0000000  0 12G08G06G24G07G28G19G03G11G16G10G13G23
 121505262.939 7  94679515.35044  23121691.969                    23121700.195
 125000076.105 6  97402690.76443  23786726.328                    23786735.090
 133138349.80016                  25335357.328
 112159458.288 8  87397012.59346  21343235.250                    21343242.527
 125064925.929 6  97453224.41143  23799056.758                    23799065.973
 110096315.130 8  85789361.93246  20950632.391                    20950637.574
 114918751.295 7  89547110.70645  21868313.547                    21868321.648
 125458862.575 6  97760045.11643  23873985.578                    23873996.188
 129178980.317 6 100658970.81042  24581946.344                    24581955.344
 127860391.241 6  99631496.49843  24331026.117                    24331037.008
 106544946.016 8  83022062.50946  20274830.531                    20274837.563
 113192854.802 8  88202244.67645  21539887.969                    21539893.973
 11  7 28 18 20 30.0000000  0 12G08G06G24G07G28G19G03G11G16G10G13G23
 121432818.138 7  94623064.89244  23107906.172                    23107914.730
 125089436.584 6  97472322.26344  23803731.813                    23803740.492
 133074502.653 6 103694339.32952  25323206.906                    25323220.652
 112108899.826 8  87357616.41046  21333614.234                    21333621.316
 125004731.021 6  97406319.35543  23787601.836                    23787611.621
 110106175.072 8  85797045.00446  20952508.648                    20952513.758
 114996813.011 7  89607937.99145  21883167.352                    21883176.566
 125378946.819 6  97697773.20243  23858778.633                    23858788.664
 129267497.725 6 100727945.39742  24598790.297                    24598799.152
 127905527.638 6  99666667.64643  24339615.711                    24339626.121
 106584151.018 8  83052611.83346  20282290.727                    20282298.063
 113282943.597 8  88272443.67845  21557031.336                    21557037.246
 11  7 28 18 21  0.0000000  0 12G08G06G24G07G28G19G03G11G16G10G13G23
 121360342.514 7  94566590.43144  23094114.094                    23094122.453
 125179074.207 6  97542169.71244  23820789.281                    23820798.168
 133010421.101 5                  25311011.313
 112058465.083 8  87318316.62846  21324016.727                    21324023.875
 124944753.358 6  97359583.57743  23776188.211                    23776197.730
 110116655.228 8  85805211.37146  20954502.352                    20954508.195
 115075309.719 7  89669104.21045  21898105.086                    21898113.887
 125299043.294 6  97635510.79043  23843573.320                    23843583.484
 129355936.095 6 100796858.32942  24615620.953                    24615628.426
 127950955.399 6  99702065.84443  24348260.703                    24348269.953
 106623933.813 8  83083611.38146  20289861.461                    20289868.316
 113373405.855 7  88342933.66645  21574245.719                    21574252.160
 11  7 28 18 21 30.0000000  0 12G08G06G24G07G28G19G03G11G16G10G13G23
 121287837.461 7  94510093.00644  23080317.461                    23080325.453
 125268986.457 6  97612231.14244  23837899.430                    23837907.742
 132946108.007 6                  25298774.336
 112008155.469 8  87279114.36146  21314443.031                    21314450.418
 124884992.465 7  97313016.75544  23764816.938                    23764825.250
 110127755.386 8  85813860.84146  20956614.461                    20956620.398
 115154238.518 7  89730607.14945  21913125.023                    21913133.223
 125219154.892 6  97573260.21143  23828371.070                    23828380.867
 129444294.476 6 100865708.93242  24632434.133                    24632443.281
 127996671.803 6  99737688.96643  24356959.719                    24356969.887
 106664293.362 8  83115060.35646  20297541.453                    20297548.453
 113464239.509 8  88413713.07245  21591530.828                    21591537.398
 11  7 28 18 22  0.0000000  0 12G08G06G24G07G28G19G03G11G16G10G13G23
 121215303.546 7  94453573.12544  23066514.297                    23066522.602
 125359170.431 7  97682504.31543  23855061.164                    23855069.520
 132881565.073 6 103544006.73352  25286492.484                    25286505.059
 111957972.155 8  87240010.50246  21304893.617                    21304900.488
 124825448.525 6  97266618.96543  23753485.672                    23753494.539
 110139475.095 8  85822993.08146  20958844.867                    20958850.512
 115233596.833 7  89792444.76344  21928226.531                    21928234.969
 125139284.090 6  97511023.33243  23813171.422                    23813181.512
 129532571.797 6 100934496.40442  24649232.641                    24649240.871
 128042673.932 6  99773534.74243  24365713.492                    24365724.523
 106705228.480 8  83146957.82646  20305331.172                    20305338.363
 113555441.612 8  88484779.56045  21608885.555                    21608892.746
 11  7 28 18 22 30.0000000  0 12G08G06G24G07G28G19G03G11G16G10G13G23
 121142741.435 7  94397031.25844  23052706.680                    23052714.547
 125449623.706 6  97752987.31543  23872272.898                    23872281.570
 132816794.137 5 103493536.11952  25274166.227                    25274180.551
 111907916.623 7  87201006.21646  21295368.242                    21295375.352
 124766121.330 6  97220390.08343  23742195.781                    23742204.695
 110151813.967 8  85832607.78546  20961193.422                    20961198.500
 115313381.974 7  89854614.95145  21943409.430                    21943417.383
 125059433.999 6  97448802.59343  23797976.906                    23797986.691
 129620767.416 6 101003220.15542  24666016.828                    24666024.668
 128088959.506 6  99809601.37143  24374522.383                    24374532.027
 106746738.266 7  83179303.08746  20313230.383                    20313237.703
 113647009.502 8  88556131.09245  21626310.742                    21626317.594
 11  7 28 18 23  0.0000000  0 12G08G06G24G07G28G19G03G11G16G10G13G23
 121070151.768 7  94340467.91144  23038892.766                    23038900.996
 125540343.808 6  97823678.26243  23889536.813                    23889545.492
 132751797.738 6 103442889.60744  25261798.047                    25261813.516
 111857990.430 7  87162102.70146  21285867.938                    21285874.605
 124707010.287 7  97174329.59943  23730947.195                    23730956.199
 110164771.707 7  85842704.73646  20963658.969                    20963664.324
 115393590.997 7  89917115.46344  21958672.523                    21958680.438
 124979607.304 6  97386600.09343  23782785.953                    23782796.281
 129708880.439 6 101071879.60942  24682784.195                    24682791.816
 128135526.027 6  99845886.90543  24383383.234                    24383393.824
 106788821.732 8  83212095.37346  20321238.430                    20321245.879
 113738940.597 7  88627765.64545  21643804.828                    21643811.238
 11  7 28 18 23 30.0000000  0 12G08G06G24G07G28G19G03G11G16G10G13G23
 120997535.765 7  94283884.04544  23025074.461                    23025082.930
 125631328.392 6  97894575.28243  23906849.688                    23906859.254
 132686576.973 5 103392068.38342  25249386.797                    25249403.188
 111808195.259 7  87123301.28646  21276391.875                    21276398.664
 124648115.931 7  97128437.97944  23719740.398                    23719749.207
 110178348.017 7  85853283.68046  20966242.469                    20966248.023
 115474221.525 7  89979944.43044  21974016.016                    21974023.246
 124899807.256 6  97324418.35943  23767601.383                    23767610.871
 129796910.054 6 101140474.03642  24699534.891                    24699543.371
 128182370.508 6  99882388.99142  24392297.992                    24392308.242
 106831477.559 8  83245333.65146  20329355.227                    20329362.684
 113831232.690 7  88699681.48345  21661367.688                    21661374.188
 11  7 28 18 24  0.0000000  0 12G08G06G24G07G28G19G03G11G16G10G13G23
 120924893.501 7  94227279.72044  23011250.914                    23011259.594
 125722574.608 6  97965676.14543  23924213.766                    23924222.965
 132621134.463 6 103341074.32443  25236933.789                    25236949.637
 111758531.921 8  87084602.60446  21266941.016                    21266948.199
 124589437.407 7  97082714.54944  23708573.906                    23708582.637
 110192542.122 8  85864344.03946  20968943.789                    20968948.871
 115555270.501 7  90043099.45245  21989438.961                    21989447.066
 124820036.399 6  97262259.33343  23752421.031                    23752430.188
 129884855.348 6 101209002.79642  24716271.008                    24716278.727
 128229490.286 6  99919105.67543  24401264.070                    24401274.539
 106874704.569 8  83279017.00946  20337581.820                    20337588.660
 113923882.749 7  88771876.26745  21678998.430                    21679004.652
 11  7 28 18 24 30.0000000  0 12G08G06G24G07G28G19G03G11G16G10G13G23
 120852226.355 7  94170656.01644  22997423.023                    22997430.820
 125814080.090 6  98036979.05343  23941626.758                    23941635.809
 132555472.675 5 103289909.38342  25224439.539                    25224455.375
 111709002.396 8  87046008.18246  21257516.305                    21257522.742
 124530974.842 7  97037159.39043  23697449.484                    23697457.531
 110207353.680 7  85875885.51546  20971761.594                    20971767.316
 115636735.215 7  90106578.43945  22004940.508                    22004948.852
 124740297.799 6  97200125.47943  23737246.883                    23737256.781
 129972715.250 6 101277464.96042  24732990.414                    24732998.594
 128276882.779 5  99956034.82543  24410282.703                    24410293.422
 106918501.819 8  83313144.70746  20345915.969                    20345922.891
 114016888.322 7  88844348.05645  21696696.711                    21696703.496
 11  7 28 18 25  0.0000000  0 11G08G06G07G28G19G03G11G16G10G13G23
 120779535.101 7  94114013.48744  22983589.688                    22983598.094
 125905842.260 6  98108481.98443  23959089.320                    23959097.625
 111659607.823 8  87007518.92246  21248116.836                    21248123.633
 124472727.805 7  96991772.19543  23686364.500                    23686373.184
 110222781.846 8  85887907.47046  20974697.477                    20974703.020
 115718613.088 7  90170379.36144  22020521.570                    22020529.777
 124660594.082 6  97138018.76543  23722080.742                    23722088.734
 130060488.838 6 101345859.89142  24749693.469                    24749700.797
 128324545.519 6  99993174.59542  24419352.188                    24419363.070
 106962867.992 8  83347715.72646  20354358.609                    20354365.695
 114110246.645 7  88917094.72845  21714462.078                    21714469.039
 11  7 28 18 25 30.0000000  0 11G08G06G07G28G19G03G11G16G10G13G23
 120706820.515 7  94057352.81644  22969752.867                    22969761.746
 125997858.556 6  98180182.94743  23976598.820                    23976607.434
 111610349.934 8  86969136.16946  21238742.977                    21238749.695
 124414696.151 6  96946552.82843  23675321.320                    23675329.887
 110238826.620 7  85900409.89746  20977751.086                    20977756.141
 115800901.383 7  90234500.06244  22036181.078                    22036189.063
 124580928.072 7  97075941.45943  23706920.063                    23706929.625
 130148175.638 6 101414187.21042  24766379.180                    24766387.445
 128372476.038 6 100030522.94343  24428474.039                    24428484.313
 107007801.992 8  83382729.20546  20362909.266                    20362916.523
 114203955.167 7  88990114.27745  21732294.719                    21732301.086
 11  7 28 18 26  0.0000000  0 12G08G06G24G07G28G19G03G11G16G10G13G23
 120634083.508 7  94000674.65344  22955911.602                    22955919.617
 126090126.370 6  98252079.91643  23994157.516                    23994165.652
 132357191.48416                  25186706.117
 111561230.003 8  86930860.90246  21229395.711                    21229402.699
 124356879.650 6  96901501.08943  23664319.109                    23664327.832
 110255486.984 8  85913392.00346  20980921.297                    20980927.219
 115883597.288 7  90298938.39544  22051917.703                    22051926.027
 124501302.903 7  97013895.94143  23691767.883                    23691777.246
 130235774.492 6 101482446.00642  24783049.141                    24783057.285
 128420671.419 6 100068077.74243  24437644.453                    24437655.277
 107053302.560 8  83418184.17246  20371567.695                    20371574.863
 114298011.355 7  89063404.73345  21750192.734                    21750199.117
 11  7 28 18 26 30.0000000  0 12G08G06G24G07G28G19G03G11G16G10G13G23
 120561324.770 7  93943979.53844  22942066.078                    22942074.289
 126182643.052 6  98324170.81143  24011762.039                    24011770.793
 132290671.817 6 103083572.05354  25174047.117                    25174063.129
 111512249.473 8  86892694.27846  21220075.313                    21220082.215
 124299278.076 6  96856616.86643  23653357.938                    23653366.375
 110272762.050 8  85926853.09946  20984208.469                    20984214.074
 115966697.705 7  90363691.94945  22067730.922                    22067739.535
 124421721.228 6  96951884.30243  23676623.891                    23676633.453
 130323284.724 6 101550635.69942  24799701.250                    24799709.773
 128469128.534 6 100105836.50043  24446865.563                    24446876.426
 107099368.140 8  83454079.40046  20380333.539                    20380341.125
 114392412.380 7  89136963.89445  21768156.758                    21768163.473
 11  7 28 18 27  0.0000000  0 12G08G06G24G07G28G19G03G11G16G10G13G23
 120488545.060 7  93887268.11444  22928216.234                    22928224.539
 126275406.170 6  98396453.71043  24029414.766                    24029423.691
 132223943.018 6 103031575.74543  25161349.664                    25161365.719
 111463409.827 8  86854637.41946  21210781.305                    21210788.031
 124241890.985 7  96811899.77243  23642437.875                    23642446.438
 110290651.523 8  85940792.94946  20987612.586                    20987618.703
 116050200.378 7  90428758.92445  22083621.492                    22083629.563
 124342186.061 6  96889908.93143  23661488.117                    23661498.531
 130410705.419 5 101618755.70042  24816336.813                    24816345.246
 128517845.142 6 100143797.37943  24456136.258                    24456146.871
 107145997.806 8  83490414.18446  20389206.828                    20389214.285
 114487155.878 7  89210789.92245  21786185.867                    21786192.508
 11  7 28 18 27 30.0000000  0 11G08G06G07G28G19G03G11G16G10G13G23
 120415745.109 7  93830540.88644  22914362.969                    22914370.934
 126368412.963 6  98468926.48843  24047113.117                    24047122.293
 111414712.077 8  86816691.13846  21201514.484                    21201521.598
 124184718.074 6  96767349.56443  23631557.867                    23631566.801
 110309154.431 8  85955210.79646  20991133.773                    20991139.012
 116134101.912 7  90494136.71144  22099587.195                    22099595.746
 124262700.081 6  96827971.88743  23646363.125                    23646371.910
 130498035.810 5 101686805.17342  24832955.211                    24832963.695
 128566818.717 6 100181958.54143  24465455.922                    24465466.297
 107193189.936 8  83527187.24546  20398187.047                    20398194.480
 114582238.632 7  89284880.30745  21804279.555                    21804286.035
 11  7 28 18 28  0.0000000  0 12G08G06G24G07G28G19G03G11G16G10G13G23
 120342926.443 7  93773799.12644  22900506.203                    22900513.797
 126461661.280 6  98541587.45843  24064857.258                    24064866.371
 132089866.17016                  25135836.258
 111366158.573 8  86778857.24146  21192275.406                    21192281.703
 124127759.393 6  96722966.27044  23620718.609                    23620727.434
 110328270.555 8  85970106.49246  20994771.719                    20994776.797
 116218399.947 7  90559823.48945  22115628.664                    22115636.746
 124183266.546 6  96766075.70743  23631247.461                    23631256.742
 130585275.465 5 101754784.10642  24849555.781                    24849566.223
 128616046.502 6 100220317.79843  24474823.398                    24474834.559
 107240943.701 8  83564397.94446  20407274.703                    20407281.898
 114677658.557 7  89359233.41445  21822437.391                    21822444.102
 11  7 28 18 28 30.0000000  0 12G08G06G24G07G28G19G03G11G16G10G13G23
 120270089.789 7  93717043.30144  22886645.625                    22886654.000
 126555148.259 6  98614434.40943  24082646.898                    24082656.648
 132022522.994 6                  25123020.617
 111317750.348 8  86741136.56346  21183063.320                    21183070.332
 124071014.271 6  96678749.40043  23609920.500                    23609928.965
 110347998.757 7  85985479.12046  20998525.875                    20998530.855
 116303091.497 7  90625816.86345  22131745.242                    22131752.969
 124103888.004 6  96704222.35943  23616141.484                    23616151.125
 130672422.939 5 101822691.20552  24866140.633                    24866150.535
 128665525.737 6 100258872.96343  24484239.789                    24484250.105
 107289257.056 8  83602044.69446  20416468.469                    20416475.082
 114773412.370 7  89433846.69745  21840659.133                    21840665.594
 11  7 28 18 29  0.0000000  0 12G08G06G24G07G28G19G03G11G16G10G13G23
 120197235.692 7  93660273.92344  22872782.297                    22872790.789
 126648871.221 6  98687465.26143  24100481.922                    24100491.500
 131954979.465 6 102821982.39153  25110166.703                    25110179.426
 111269488.877 8  86703530.23046  21173879.273                    21173886.449
 124014482.371 7  96634698.65743  23599162.359                    23599171.105
 110368338.444 8  86001328.23846  21002395.906                    21002401.570
 116388173.404 7  90692114.43944  22147935.094                    22147943.574
 124024567.493 6  96642414.25343  23601047.367                    23601056.941
 130759477.995 5 101890526.25942  24882706.250                    24882716.117
 128715253.497 6 100297621.79443  24493702.742                    24493712.492
 107338128.905 8  83640126.62746  20425767.711                    20425775.473
 114869497.489 7  89508718.13445  21858943.016                    21858950.230
 11  7 28 18 29 30.0000000  0 12G08G06G24G07G28G19G03G11G16G10G13G23
 120124365.317 7  93603491.85344  22858914.766                    22858923.730
 126742827.976 6  98760678.27943  24118361.344                    24118371.426
 131887237.992 5 102769197.03942  25097276.406                    25097291.078
 111221375.850 8  86666039.57846  21164723.648                    21164730.949
 123958163.840 6  96590814.17743  23588445.609                    23588454.332
 110389288.645 8  86017653.08646  21006382.906                    21006388.879
 116473643.439 7  90758714.44844  22164199.555                    22164207.738
 123945308.208 6  96580653.85343  23585965.297                    23585974.770
 130846439.793 5                  24899256.023
 128765227.157 6 100336562.26143  24503212.211                    24503222.316
 107387558.101 8  83678642.85046  20435174.344                    20435181.535
 114965911.281 7  89583845.68045  21877290.070                    21877296.836
 11  7 28 18 30  0.0000000  0 12G08G06G24G07G28G19G03G11G16G10G13G23
 120051479.255 7  93546697.53444  22845045.680                    22845054.102
 126837015.925 6  98834071.39143  24136285.492                    24136294.684
 131819300.31915 102716259.02152  25084347.711                    25084363.961
 111173412.770 8  86628665.77046  21155596.148                    21155603.777
 123902058.144 7  96547095.51343  23577768.992                    23577777.691
 110410848.648 8  86034453.09646  21010485.383                    21010491.152
 116559498.286 7  90825614.29044  22180537.461                    22180545.141
 123866112.802 6  96518943.23643  23570894.172                    23570904.621
 130933307.487 5                  24915786.094
 128815443.938 6 100375692.11443  24512768.211                    24512778.652
 107437543.134 8  83717592.19946  20444686.547                    20444693.496
 115062651.238 7  89659227.39245  21895699.406                    21895705.945
 11  7 28 18 30 30.0000000  0 12G08G06G24G07G28G19G03G11G16G10G13G23
 119978578.800 7  93489892.03544  22831173.211                    22831181.266
 126931432.368 6  98907642.59143  24154252.039                    24154261.730
 131751169.006 6 102663169.95042  25071383.203                    25071398.949
 111125601.265 8  86591410.06346  21146498.617                    21146505.422
 123846165.236 6  96503542.69744  23567133.398                    23567141.656
 110433017.768 7  86051727.73446  21014704.422                    21014709.875
 116645735.422 7  90892812.02544  22196947.328                    22196955.684
 123786984.525 6  96457284.94343  23555837.484                    23555846.621
 131020080.488 5                  24932298.344
 128865901.315 6 100415009.47443  24522369.617                    24522380.430
 107488082.544 8  83756973.52846  20454303.484                    20454310.813
 115159714.637 7  89734861.12945  21914169.977                    21914176.523
 11  7 28 18 31  0.0000000  0 12G08G06G24G07G28G19G03G11G16G10G13G23
 119905664.909 7  93433076.05044  22817297.602                    22817306.199
 127026074.920 6  98981390.00043  24172262.383                    24172271.277
 131682846.127 6                  25058381.555
 111077943.020 8  86554273.78546  21137429.273                    21137436.277
 123790484.232 7  96460154.98443  23556536.320                    23556545.883
 110455795.103 7  86069476.31546  21019038.531                    21019044.094
 116732352.240 7  90960305.60944  22213430.781                    22213438.340
 123707926.194 7  96395681.14543  23540792.477                    23540802.238
 131106758.011 5                  24948792.047
 128916596.624 6 100454512.24343  24532017.148                    24532027.766
 107539174.937 8  83796785.75746  20464026.266                    20464033.551
 115257098.709 7  89810744.74145  21932701.828                    21932708.496
 11  7 28 18 31 30.0000000  0 12G08G06G24G07G28G19G03G11G16G10G13G23
 119832738.646 7  93376250.42044  22803420.211                    22803428.762
 127120940.801 6  99055311.40243  24190315.156                    24190323.824
 131614334.179 6                  25045342.594
 111030439.292 8  86517257.89346  21128389.727                    21128396.516
 123735015.194 7  96416932.43344  23545981.289                    23545990.395
 110479179.708 7  86087698.08746  21023488.406                    21023493.840
 116819345.465 7  91028092.50144  22229984.961                    22229993.078
 123628940.461 7  96334133.89943  23525762.234                    23525771.750
 131193339.605 5                  24965268.836
 128967526.976 6 100494198.16743  24541708.930                    24541719.480
 107590818.924 8  83837027.78446  20473853.594                    20473861.090
 115354800.568 7  89886875.96945  21951293.688                    21951301.070
 11  7 28 18 32  0.0000000  0 12G08G06G24G07G28G19G03G11G16G10G13G23
 119759800.684 7  93319415.67644  22789540.672                    22789549.426
 127216027.608 6  99129404.97143  24208409.313                    24208418.043
 131545634.844 6 102503012.92452  25032270.305                    25032283.559
 110983091.446 8  86480363.47746  21119379.883                    21119387.195
 123679757.710 7  96373874.71344  23535466.047                    23535475.289
 110503170.227 7  86106391.99746  21028053.383                    21028059.441
 116906712.365 7  91096170.57644  22246610.117                    22246618.504
 123550030.363 7  96272645.61743  23510746.492                    23510755.328
 131279824.095 5                  24981724.891
 129018689.428 6 100534064.89543  24551444.547                    24551455.328
 107643012.711 7  83877698.23746  20483786.531                    20483793.199
 115452817.200 7  89963252.48945  21969946.031                    21969952.289
 11  7 28 18 32 30.0000000  0 12G08G06G24G07G28G19G03G11G16G10G13G23
 119686852.249 7  93262572.76144  22775659.313                    22775667.680
 127311332.792 6  99203668.70443  24226545.711                    24226554.117
 131476750.698 6                  25019162.117
 110935901.227 8  86443591.88246  21110399.898                    21110406.316
 123624711.181 7  96330981.38044  23524991.367                    23525000.258
 110527766.092 7  86125557.60246  21032734.234                    21032739.723
 116994450.107 7  91164537.61644  22263306.359                    22263314.785
 123471198.892 7  96211218.59043  23495745.289                    23495754.496
 131366210.808 5                  24998164.406
 129070081.584 6 100574110.64543  24561223.688                    24561235.180
 107695754.751 8  83918795.89946  20493822.664                    20493829.828
 115551146.364 7  90039872.53645  21988657.750                    21988664.191
 11  7 28 18 33  0.0000000  0 12G08G06G24G07G28G19G03G11G16G10G13G23
 119613894.428 7  93205722.54244  22761775.844                    22761784.297
 127406853.753 6  99278100.61343  24244722.328                    24244731.082
 131407684.333 5                  25006018.781
 110888870.603 8  86406944.65746  21101450.188                    21101456.863
 123569875.567 7  96288252.37544  23514556.461                    23514564.570
 110552966.456 8  86145194.24346  21037529.625                    21037535.539
 117082555.785 7  91233191.33344  22280072.289                    22280081.047
 123392449.261 7  96149855.34344  23480759.242                    23480768.715
 131452499.33715                  25014583.867
 129121700.552 6 100614333.12143  24571046.320                    24571058.211
 107749043.668 8  83960319.70446  20503963.430                    20503970.125
 115649785.101 7  90116733.80445  22007427.320                    22007434.234
 11  7 28 18 33 30.0000000  0 12G08G06G24G07G28G19G03G11G16G10G13G23
 119540927.979 7  93148865.59344  22747890.633                    22747899.207
 127502587.688 6  99352698.42643  24262940.336                    24262948.676
 131338437.392 6                  24992840.586
 110842000.524 8  86370422.51446  21092531.109                    21092537.945
 123515250.171 7  96245687.21544  23504161.023                    23504170.336
 110578769.892 8  86165300.81746  21042439.883                    21042445.391
 117171026.927 7  91302129.82444  22296907.391                    22296916.066
 123313783.914 6  96088557.74043  23465789.391                    23465799.434
 131538688.921 5                  25030985.734
 129173543.299 6 100654729.99043  24580912.141                    24580922.914
 107802877.481 8  84002268.10046  20514207.609                    20514214.941
 115748730.530 7  90193834.04345  22026256.391                    22026263.063
 11  7 28 18 34  0.0000000  0 12G08G06G24G07G28G19G03G11G16G10G13G23
 119467953.887 7  93092002.68344  22734004.047                    22734012.160
 127598532.537 6  99427460.62343  24281197.703                    24281206.906
 131269012.513 6 102287460.85852  24979631.109                    24979644.512
 110795292.909 8  86334026.97646  21083643.188                    21083649.664
 123460834.978 7  96203285.83544  23493806.320                    23493815.410
 110605175.645 8  86185876.72246  21047464.859                    21047470.316
 117259860.292 7  91371350.59744  22313811.828                    22313820.156
 123235206.243 6  96027328.47243  23450836.148                    23450845.922
 131624778.55715                  25047366.836
 129225607.549 6 100695299.43843  24590820.141                    24590830.996
 107857254.774 8  84044639.97546  20524555.008                    20524562.516
 115847979.943 7  90271171.18045  22045142.750                    22045150.191
 11  7 28 18 34 30.0000000  0 12G08G06G24G07G28G19G03G11G16G10G13G23
 119394973.223 7  93035134.66044  22720116.438                    22720124.473
 127694685.543 6  99502384.98443  24299495.367                    24299504.531
 131199412.266 5 102233227.05142  24966385.633                    24966399.949
 110748749.376 8  86297759.29846  21074785.906                    21074792.797
 123406629.788 7  96161048.08944  23483492.070                    23483500.734
 110632182.826 7  86206921.28446  21052604.180                    21052609.602
 117349053.272 7  91440851.58244  22330784.953                    22330793.008
 123156719.027 6  95966169.70543  23435901.000                    23435909.844
 131710768.467 5                  25063730.602
 129277890.226 6 100736039.12143  24600769.016                    24600780.156
 107912174.122 8  84087434.23846  20535006.078                    20535013.270
 115947530.686 7  90348743.08745  22064087.039                    22064094.023
 11  7 28 18 35  0.0000000  0 12G08G06G24G07G28G19G03G11G16G10G13G23
 119321986.997 7  92978262.30744  22706227.781                    22706235.996
 127791044.430 6  99577469.76243  24317830.766                    24317840.633
 131129638.889 6 102178858.35142  24953107.117                    24953123.059
 110702371.466 8  86261620.67246  21065960.367                    21065967.434
 123352633.714 7  96118973.26544  23473217.203                    23473224.801
 110659790.380 7  86228433.66746  21057857.711                    21057863.078
 117438602.717 7  91510630.32044  22347825.836                    22347834.500
 123078325.517 6  95905083.91843  23420982.766                    23420992.219
 131796657.17515                  25080075.750
 129330388.816 6 100776947.00243  24610759.617                    24610770.418
 107967634.214 8  84130649.86146  20545559.672                    20545566.680
 116047380.098 7  90426547.74945  22083087.828                    22083094.934
 11  7 28 18 35 30.0000000  0 12G08G06G24G07G28G19G03G11G16G10G13G23
 119248996.727 7  92921386.79544  22692338.039                    22692345.801
 127887606.391 6  99652712.83243  24336206.273                    24336216.207
 131059694.300 5 102124356.30942  24939796.617                    24939812.621
 110656160.854 8  86225612.41446  21057166.938                    21057173.738
 123298846.477 7  96077061.20044  23462980.930                    23462989.590
 110687996.837 7  86250412.73046  21063224.961                    21063230.914
 117528505.929 7  91580684.72944  22364933.719                    22364941.594
 123000028.647 6  95844073.43443  23406083.813                    23406092.754
 131882444.55615                  25096400.141
 129383100.276 6 100818020.77643  24620789.289                    24620800.824
 108023633.305 8  84174285.49146  20556216.117                    20556223.309
 116147525.198 7  90504582.80545  22102144.945                    22102151.926
 11  7 28 18 36  0.0000000  0 12G08G06G24G07G28G19G03G11G16G10G13G23
 119176003.282 7  92864508.82544  22678447.969                    22678456.117
 127984368.904 6  99728112.08743  24354620.078                    24354629.418
 130989581.114 5 102069722.83642  24926455.320                    24926471.043
 110610119.259 8  86189735.85846  21048405.477                    21048412.453
 123245267.873 7  96035311.70244  23452784.938                    23452794.121
 110716801.403 7  86272857.82646  21068706.484                    21068711.641
 117618760.169 7  91651012.66644  22382108.914                    22382116.855
 122921831.131 6  95783140.39443  23391203.117                    23391212.348
 131968129.675 5                  25112704.000
 129436021.797 6 100859258.22143  24630860.742                    24630871.371
 108080169.106 8  84218339.32946  20566974.570                    20566981.828
 116247963.147 7  90582846.04845  22121257.859                    22121264.340
 11  7 28 18 36 30.0000000  0 12G08G06G24G07G28G19G03G11G16G10G13G23
 119103007.286 7  92807628.85044  22664557.117                    22664564.883
 128081329.332 6  99803665.59243  24373071.008                    24373080.418
 130919301.711 5 102014959.77242  24913082.266                    24913096.813
 110564247.834 8  86153991.89646  21039676.438                    21039683.344
 123191897.215 7  95993724.25444  23442629.008                    23442637.766
 110746202.431 7  86295767.72146  21074301.445                    21074306.746
 117709362.183 7  91721611.60944  22399349.406                    22399358.078
 122843735.867 6  95722287.02243  23376341.758                    23376351.395
 132053711.942 4                  25128989.750
 129489150.829 6 100900657.34743  24640970.398                    24640981.941
 108137239.820 8  84262809.98546  20577834.891                    20577841.879
 116348690.966 7  90661335.17145  22140425.758                    22140432.289
 11  7 28 18 37  0.0000000  0 12G08G06G24G07G28G19G03G11G16G10G13G23
 119030010.010 7  92750747.89044  22650666.234                    22650673.863
 128178485.439 6  99879371.60043  24391559.602                    24391568.957
 130848858.242 6 101960069.04242  24899676.047                    24899691.855
 110518548.544 8  86118382.07246  21030979.969                    21030987.273
 123138734.339 7  95952298.71144  23432512.258                    23432520.863
 110776199.123 7  86319141.77046  21080009.492                    21080015.152
 117800309.249 7  91792479.42244  22416656.539                    22416664.633
 122765745.895 6  95661515.68943  23361500.500                    23361510.289
 132139190.890 5                  25145255.648
 129542484.720 6 100942216.16543  24651120.633                    24651131.406
 108194844.251 8  84307696.52246  20588796.180                    20588803.680
 116449706.237 7  90740048.27345  22159648.070                    22159654.793
 11  7 28 18 37 30.0000000  0 12G08G06G24G07G28G19G03G11G16G10G13G23
 118957012.543 7  92693866.77544  22636775.352                    22636783.305
 128275834.352 6  99955227.83043  24410083.805                    24410093.918
 130778253.554 6 101905052.53442  24886241.172                    24886255.547
 110473022.935 8  86082907.58346  21022316.914                    21022323.898
 123085778.442 7  95911034.44344  23422434.688                    23422443.695
 110806789.962 7  86342978.77746  21085830.953                    21085837.051
 117891598.243 7  91863613.67444  22434028.055                    22434036.277
 122687864.479 6  95600828.95043  23346679.813                    23346689.617
 132224565.795 5                  25161503.273
 129596020.232 6 100983932.05143  24661307.602                    24661318.883
 108252980.431 8  84352997.40946  20599859.320                    20599866.625
 116551006.058 7  90818983.12344  22178925.406                    22178932.012
 11  7 28 18 38  0.0000000  0 11G08G06G24G07G28G19G03G11G10G13G23
 118884016.299 7  92636986.59644  22622885.070                    22622892.641
 128373373.768 6 100031232.51243  24428645.414                    24428655.402
 130707489.787 5 101849912.11342  24872773.813                    24872788.902
 110427672.687 8  86047569.73446  21013686.781                    21013694.098
 123033029.531 7  95869931.48244  23412397.570                    23412406.055
 110837974.107 7  86367278.11246  21091764.961                    21091770.996
 117983226.791 7  91935012.48944  22451464.484                    22451473.039
 122610094.597 7  95540229.12243  23331880.766                    23331890.516
 129649755.073 6 101025803.24643  24671532.836                    24671543.973
 108311646.677 8  84398711.33146  20611023.250                    20611030.652
 116652587.476 7  90898137.37245  22198254.836                    22198262.102
 11  7 28 18 38 30.0000000  0 12G08G06G24G07G28G19G03G11G16G10G13G23
 118811022.048 7  92580108.01144  22608993.961                    22609001.531
 128471101.033 6 100107383.56543  24447241.867                    24447251.406
 130636569.258 6 101794649.48542  24859277.773                    24859293.277
 110382499.267 8  86012369.67046  21005090.375                    21005097.777
 122980486.813 7  95828989.18744  23402399.039                    23402407.496
 110869750.130 7  86392038.63846  21097811.672                    21097817.457
 118075191.830 7  92006673.51244  22468964.742                    22468972.789
 122532439.045 6  95479718.37143  23317103.359                    23317112.617
 132394995.62215                  25193936.273
 129703686.156 6 101067827.33242  24681795.930                    24681807.117
 108370841.046 7  84444836.77946  20622287.680                    20622294.527
 116754447.482 7  90977508.71545  22217638.523                    22217645.723
 11  7 28 18 39  0.0000000  0 12G08G06G24G07G28G19G03G11G16G10G13G23
 118738031.161 7  92523232.01944  22595104.383                    22595112.047
 128569013.625 6 100183679.02143  24465874.313                    24465883.926
 130565494.454 6 101739266.65542  24845754.273                    24845768.281
 110337504.604 8  85977308.90246  20996528.555                    20996535.367
 122928149.797 7  95788207.19544  23392439.648                    23392448.008
 110902116.674 7  86417259.32046  21103970.766                    21103976.707
 118167490.114 6  92078594.22744  22486528.320                    22486536.703
 122454900.792 6  95419299.03743  23302348.648                    23302357.996
 132480055.117 5                  25210122.914
 129757810.663 6 101110002.19643  24692095.297                    24692107.016
 108430561.712 7  84491372.32946  20633651.859                    20633659.582
 116856583.352 7  91057095.02644  22237074.445                    22237081.410
 11  7 28 18 39 30.0000000  0 12G08G06G24G07G28G19G03G11G16G10G13G23
 118665044.476 7  92466359.31944  22581215.008                    22581223.418
 128667108.973 6 100260116.91143  24484540.945                    24484550.969
 130494267.649 6 101683765.34242  24832199.516                    24832214.441
 110292690.094 8  85942388.52046  20988000.906                    20988007.590
 122876018.076 7  95747585.15444  23382519.359                    23382527.586
 110935072.265 8  86442938.98846  21110242.320                    21110247.594
 118260118.963 6  92150772.51144  22504154.539                    22504163.145
 122377482.851 7  95358973.43143  23287616.898                    23287625.488
 132565008.435 5                  25226288.531
 129812125.541 6 101152325.37143  24702432.000                    24702442.520
 108490806.714 8  84538316.45346  20645116.422                    20645123.930
 116958992.431 7  91136894.20145  22256562.813                    22256569.332
 11  7 28 18 40  0.0000000  0 12G08G06G24G07G28G19G03G11G16G10G13G23
 118592063.437 7  92409490.99845  22567327.867                    22567335.270
 128765384.549 6 100336695.24343  24503242.250                    24503251.969
 130422890.983 6 101628147.28243  24818617.039                    24818631.379
 110248057.278 8  85907609.70846  20979506.688                    20979513.988
 122824091.047 7  95707122.63644  23372636.867                    23372645.781
 110968615.518 7  86469076.57846  21116625.219                    21116630.984
 118353075.626 6  92223206.23644  22521844.461                    22521851.703
 122300188.159 7  95298743.87244  23272908.195                    23272916.742
 132649854.71515                  25242434.906
 129866628.506 6 101194795.10843  24712803.680                    24712814.227
 108551574.188 8  84585667.69446  20656679.781                    20656687.180
 117061671.688 7  91216903.92244  22276101.984                    22276108.531
 11  7 28 18 40 30.0000000  0 12G08G06G24G07G28G19G03G11G16G10G13G23
 118519089.010 7  92352627.83645  22553441.648                    22553449.000
 128863837.785 6 100413411.99143  24521977.680                    24521987.266
 130351366.937 6 101572414.38942  24805005.586                    24805020.508
 110203607.760 8  85872973.72446  20971048.898                    20971055.789
 122772368.610 7  95666819.50643  23362795.148                    23362802.938
 111002745.203 7  86495671.13546  21123119.617                    21123125.129
 118446356.986 7  92295892.96744  22539595.766                    22539603.617
 122223019.667 7  95238612.63743  23258223.477                    23258231.996
 132734593.356 5                  25258560.664
 129921316.406 6 101237408.93643  24723209.375                    24723221.641
 108612862.297 8  84633424.62846  20668342.508                    20668349.789
 117164618.150 7  91297121.84345  22295692.281                    22295698.992
 11  7 28 18 41  0.0000000  0 12G08G06G24G07G28G19G03G11G16G10G13G23
 118446122.324 7  92295770.70044  22539556.164                    22539563.941
 128962466.337 6 100490265.35543  24540745.758                    24540755.586
 130279698.389 6 101516568.77642  24791368.078                    24791382.375
 110159343.582 8  85838482.16746  20962625.836                    20962632.652
 122720850.049 7  95626675.24444  23352991.219                    23352999.703
 111037460.004 8  86522721.62046  21129725.789                    21129731.203
 118539960.216 7  92368830.49444  22557407.102                    22557415.844
 122145980.800 7  95178582.44044  23243562.805                    23243572.105
 132819224.326 5                  25274664.531
 129976186.442 6 101280164.71942  24733651.406                    24733662.594
 108674669.136 8  84681585.77346  20680104.305                    20680111.809
 117267829.223 7  91377545.97044  22315332.141                    22315339.793
 11  7 28 18 41 30.0000000  0 12G08G06G24G07G28G19G03G11G16G10G13G23
 118373164.483 7  92238920.44545  22525672.219                    22525680.000
 129061267.620 6 100567253.36143  24559547.328                    24559556.492
 130207887.662 6 101460612.45542  24777702.664                    24777717.270
 110115266.229 8  85804136.20046  20954238.102                    20954245.117
 122669534.800 7  95586689.38844  23343226.414                    23343235.031
 111072758.448 8  86550226.89246  21136442.891                    21136448.504
 118633882.240 7  92442016.47244  22575280.016                    22575287.773
 122069074.329 7  95118655.35744  23228928.141                    23228937.566
 132903746.841 6                  25290749.469
 130031236.099 6 101323060.37943  24744127.664                    24744138.465
 108736992.897 8  84730149.70946  20691964.156                    20691971.891
 117371301.623 7  91458173.70745  22335022.422                    22335029.582
 11  7 28 18 42  0.0000000  0 12G08G06G24G07G28G19G03G11G16G10G13G23
 118300217.175 7  92182078.42245  22511790.711                    22511799.031
 129160239.308 6 100644374.06642  24578380.789                    24578390.641
 130135937.340 6 101404547.33942  24764011.070                    24764025.418
 110071377.859 8  85769937.48146  20945886.258                    20945893.074
 122618422.715 7  95546861.85644  23333499.531                    23333508.570
 111108639.317 7  86578185.99746  21143271.273                    21143276.371
 118728120.452 7  92515448.81844  22593213.234                    22593221.418
 121992303.479 6  95058833.98544  23214319.109                    23214328.457
 132988160.300 5                  25306812.578
 130086462.134 6 101366093.55242  24754636.852                    24754647.180
 108799831.872 8  84779115.10746  20703922.117                    20703929.469
 117475033.347 7  91539003.52644  22354762.094                    22354769.867
 11  7 28 18 42 30.0000000  0 12G08G06G24G07G28G19G03G11G16G10G13G23
 118227281.371 7  92125245.36245  22497911.461                    22497919.840
 129259378.949 6 100721625.70142  24597246.648                    24597256.711
 130063849.749 6 101348375.20042  24750293.539                    24750307.910
 110027680.018 8  85735887.23146  20937570.695                    20937577.895
 122567513.160 7  95507192.14444  23323812.188                    23323820.273
 111145101.161 7  86606597.83046  21150209.641                    21150214.559
 118822671.995 7  92589125.30144  22611205.578                    22611213.840
 121915671.162 7  94999120.57644  23199736.391                    23199745.188
 133072464.857 5                  25322855.828
 130141862.235 6 101409262.38243  24765178.219                    24765189.973
 108863184.052 8  84828480.40146  20715978.086                    20715984.988
 117579021.193 7  91620032.91245  22374550.734                    22374557.664
 11  7 28 18 43  0.0000000  0 12G08G06G24G07G28G19G03G11G16G10G13G23
 118154358.496 7  92068422.37245  22484035.281                    22484043.070
 129358683.992 5 100799006.16943  24616143.883                    24616153.594
 129991627.358 6 101292098.02542  24736550.766                    24736564.676
 109984174.200 8  85701986.59946  20929292.203                    20929298.961
 122516805.492 6  95467679.74444  23314162.852                    23314171.414
 111182142.317 7  86635461.05946  21157258.297                    21157263.684
 118917533.612 7  92663043.38644  22629257.531                    22629265.918
 121839180.286 7  94939517.38544  23185180.750                    23185189.883
 133156659.479 5                  25338876.844
 130197433.354 6 101452564.44642  24775754.336                    24775765.379
 108927047.139 8  84878243.81946  20728129.828                    20728137.672
 117683262.225 7  91701259.59944  22394387.250                    22394394.160
 11  7 28 18 43 30.0000000  0 12G08G06G24G07G28G19G03G11G16G10G13G23
 118081450.056 7  92011610.64745  22470160.695                    22470168.918
 129458151.951 6 100876513.57943  24635071.336                    24635081.480
 129919272.915 5 101235717.96242  24722780.953                    24722796.145
 109940862.234 8  85668237.02546  20921050.195                    20921056.672
 122466299.409 7  95428324.41344  23304551.234                    23304559.770
 111219761.522 7  86664774.70946  21164416.883                    21164422.605
 119012702.788 6  92737201.14744  22647367.742                    22647375.820
 121762834.173 7  94880026.97744  23170652.297                    23170661.492
 133240743.875 5                  25354877.602
 130253172.689 6 101495997.57042  24786360.992                    24786372.551
 108991419.379 8  84928403.96846  20740379.844                    20740387.066
 117787753.429 7  91782681.21245  22414270.992                    22414278.531
 11  7 28 18 44  0.0000000  0 12G08G06G24G07G28G19G03G11G16G10G13G23
 118008556.822 7  91954810.73645  22456289.922                    22456297.598
 129557780.082 6 100954145.81043  24654029.227                    24654040.164
 129846788.564 6 101179236.68242  24708987.992                    24709002.164
 109897745.572 8  85634639.63846  20912844.930                    20912852.055
 122415994.135 7  95389125.54344  23294978.492                    23294987.438
 111257956.949 8  86694537.37746  21171684.953                    21171690.410
 119108176.337 6  92811596.07444  22665535.273                    22665543.656
 121686635.833 6  94820651.74644  23156152.117                    23156161.211
 133324717.20015                  25370856.531
 130309077.501 6 101539559.63242  24796998.594                    24797010.672
 109056298.639 8  84978959.20846  20752725.930                    20752733.434
 117892491.769 7  91864295.39345  22434202.063                    22434209.145
 11  7 28 18 44 30.0000000  0 12G08G06G24G07G28G19G03G11G16G10G13G23
 117935680.048 7  91898023.67345  22442421.422                    22442429.313
 129657565.922 6 101031900.94743  24673019.422                    24673028.633
 129774176.777 6 101122656.09042  24695170.234                    24695185.340
 109854825.817 8  85601195.68046  20904677.742                    20904685.012
 122365888.927 7  95350082.56144  23285444.008                    23285452.777
 111296726.936 8  86724747.74346  21179062.539                    21179067.898
 119203951.524 7  92886226.02644  22683761.516                    22683769.297
 121610587.945 6  94761393.76344  23141680.563                    23141689.922
 133408579.387 5                  25386817.313
 130365144.747 6 101583248.26843  24807668.867                    24807680.289
 109121682.767 8  85029907.83846  20765168.391                    20765175.934
 117997474.762 7  91946100.21644  22454179.859                    22454187.555
 11  7 28 18 45  0.0000000  0 12G08G06G24G07G28G19G03G11G16G10G13G23
 117862821.107 7  91841250.51045  22428557.320                    22428565.496
 129757507.148 6 101109777.14843  24692037.609                    24692046.996
 129701440.389 6 101065978.33042  24681329.055                    24681343.336
 109812104.969 8  85567906.72146  20896548.500                    20896555.262
 122315983.739 7  95311195.47044  23275947.625                    23275955.340
 111336070.348 8  86755404.94446  21186549.586                    21186554.945
 119300025.566 7  92961088.87444  22702042.852                    22702051.535
 121534693.820 6  94702255.59243  23127238.891                    23127247.039
 133492330.06715                  25402754.398
 130421371.490 6 101627061.23743  24818368.734                    24818379.871
 109187569.920 8  85081248.44546  20777706.102                    20777713.598
 118102699.514 7  92028093.41944  22474203.711                    22474211.004
 11  7 28 18 45 30.0000000  0 12G08G06G24G07G28G19G03G11G16G10G13G23
 117789980.971 7  91784491.99845  22414696.367                    22414703.883
 129857601.175 6 101187772.46043  24711084.625                    24711094.066
 129628581.625 6 101009205.31042  24667464.094                    24667478.602
 109769584.468 8  85534773.87046  20888456.742                    20888463.508
 122266277.697 7  95272463.53844  23266488.609                    23266496.453
 111375985.027 8  86786507.28646  21194145.125                    21194150.727
 119396395.361 7  93036182.16244  22720382.563                    22720390.328
 121458956.040 7  94643239.22244  23112825.648                    23112834.793
 133575968.252 4                  25418667.734
 130477755.109 6 101670996.34642  24829098.297                    24829110.195
 109253957.526 8  85132979.00546  20790339.305                    20790347.035
 118208162.822 7  92110272.50744  22494272.680                    22494279.816
 11  7 28 18 46  0.0000000  0 12G08G06G24G07G28G19G03G11G16G10G13G23
 117717161.283 7  91727749.41445  22400838.531                    22400847.023
 129957845.403 6 101265884.77943  24730161.305                    24730170.402
 129555603.373 5 100952339.22042  24653576.961                    24653591.668
 109727266.326 8  85501798.70546  20880403.828                    20880410.336
 122216770.292 7  95233886.38744  23257067.805                    23257075.707
 111416469.607 8  86818053.69746  21201849.234                    21201854.633
 119493058.052 7  93111503.69444  22738776.734                    22738784.703
 121383377.887 6  94584347.27143  23098443.672                    23098453.266
 133659493.70214                  25434561.367
 130534292.979 6 101715051.66242  24839856.258                    24839867.184
 109320843.831 8  85185098.18146  20803067.055                    20803074.805
 118313861.994 7  92192635.40844  22514386.227                    22514393.668
 11  7 28 18 46 30.0000000  0 12G08G06G24G07G28G19G03G11G16G10G13G23
 117644363.480 7  91671023.88745  22386985.719                    22386994.211
 130058237.984 6 101344112.71243  24749264.469                    24749274.707
 129482508.458 6 100895382.16042  24639667.859                    24639681.332
 109685152.598 8  85468982.81646  20872390.008                    20872396.813
 122167461.349 7  95195463.89244  23247684.781                    23247692.680
 111457523.018 8  86850043.35646  21209661.227                    21209666.945
 119590011.141 7  93187051.49744  22757225.586                    22757234.371
 121307962.969 6  94525582.49844  23084093.023                    23084101.590
 133742904.94015                  25450437.414
 130590982.334 6 101759225.16142  24850644.133                    24850655.500
 109388227.179 8  85237604.64246  20815890.219                    20815897.707
 118419794.294 7  92275179.95244  22534545.313                    22534552.207
 11  7 28 18 47  0.0000000  0 12G08G06G24G07G28G19G03G11G16G10G13G23
 117571588.181 7  91614315.88745  22373137.336                    22373145.027
 130158775.843 6 101422453.83643  24768397.586                    24768405.848
 129409298.727 6 100838335.66443  24625736.570                    24625750.641
 109643244.474 8  85436327.15446  20864415.258                    20864422.164
 122118349.643 6  95157195.09044  23238339.039                    23238347.023
 111499142.976 8  86882474.49346  21217581.047                    21217586.559
 119687251.051 7  93262822.81544  22775730.266                    22775739.035
 121232713.737 6  94466946.81944  23069773.203                    23069782.652
 133826203.948 5                  25466288.422
 130647819.783 6 101803513.95642  24861460.031                    24861471.859
 109456104.669 8  85290496.15046  20828806.656                    20828814.133
 118525956.438 7  92357903.58544  22554746.703                    22554754.266
 11  7 28 18 47 30.0000000  0 12G08G06G24G07G28G19G03G11G16G10G13G23
 117498837.146 7  91557626.78945  22359293.391                    22359301.234
 130259456.644 6 101500906.33342  24787555.727                    24787565.273
 129335977.106 6 100781202.01542  24611784.531                    24611797.453
 109601543.981 8  85403833.27946  20856480.000                    20856486.422
 122069434.802 7  95119079.68644  23229030.672                    23229038.773
 111541327.825 8  86915345.79346  21225608.594                    21225614.387
 119784775.151 7  93338815.55943  22794288.242                    22794296.555
 121157633.569 7  94408442.87244  23055486.125                    23055495.223
 133909389.666 5                  25482117.672
 130704802.791 6 101847916.20042  24872303.719                    24872315.516
 109524474.319 8  85343771.16746  20841816.875                    20841824.434
 118632345.887 7  92440804.36344  22574991.844                    22574999.164
 11  7 28 18 48  0.0000000  0 12G08G06G24G07G28G19G03G11G16G10G13G23
 117426111.690 7  91500957.61845  22345453.867                    22345461.996
 130360277.939 6 101579468.34243  24806741.531                    24806751.238
 129262546.052 6 100723983.04042  24597809.828                    24597824.324
 109560052.836 8  85371502.51946  20848584.484                    20848591.020
 122020716.548 7  95081117.46444  23219759.953                    23219768.141
 111584075.993 7  86948656.04346  21233743.180                    21233749.086
 119882580.645 7  93415027.57744  22812900.773                    22812908.770
 121082725.018 6  94350072.64144  23041230.797                    23041240.242
 133992461.320 5                  25497924.641
 130761928.517 6 101892429.62442  24883174.641                    24883186.016
 109593334.165 8  85397428.14446  20854920.344                    20854928.156
 118738959.580 7  92523879.84544  22595280.617                    22595287.668
 11  7 28 18 48 30.0000000  0 12G08G06G24G07G28G19G03G11G16G10G13G23
 117353413.372 7  91444309.61445  22331619.727                    22331627.516
 130461237.514 6 101658138.04543  24825952.797                    24825963.012
 129189008.260 6 100666680.93542  24583816.578                    24583830.762
 109518772.821 8  85339336.29046  20840728.859                    20840735.422
 121972194.316 7  95043307.98144  23210526.492                    23210534.672
 111627385.796 7  86982403.93146  21241985.102                    21241990.727
 119980664.648 7  93491456.62244  22831564.852                    22831573.332
 121007991.480 7  94291838.77044  23027009.938                    23027018.953
 134075418.12514                  25513713.414
 130819194.272 6 101937052.18142  24894072.461                    24894082.973
 109662682.079 8  85451465.45046  20868117.195                    20868124.465
 118845794.750 7  92607127.91744  22615610.742                    22615617.430
 11  7 28 18 49  0.0000000  0 11G08G06G24G07G28G19G03G11G10G13G23
 117280743.860 7  91387684.03845  22317791.680                    22317799.242
 130562332.885 5 101736913.60242  24845191.344                    24845200.988
 129115366.482 6 100609297.83843  24569802.352                    24569817.199
 109477705.668 8  85307335.92646  20832913.875                    20832920.590
 121923867.455 6  95005650.75044  23201329.313                    23201338.219
 111671255.640 7  87016588.22346  21250333.000                    21250338.719
 120079024.384 6  93568100.52944  22850282.195                    22850290.520
 120933436.197 7  94233743.81144  23012822.688                    23012831.004
 130876597.408 6 101981781.76443  24904995.953                    24905007.160
 109732516.059 8  85505881.49146  20881406.086                    20881413.570
 118952848.788 7  92690546.54844  22635982.531                    22635988.910
 11  7 28 18 49 30.0000000  0 11G08G06G24G07G28G19G03G11G10G13G23
 117208103.778 7  91331081.42245  22303969.016                    22303976.711
 130663561.471 5 101815792.93542  24864454.438                    24864464.547
 129041623.117 6 100551835.55243  24555770.109                    24555783.809
 109436852.856 8  85275502.56346  20825140.055                    20825146.988
 121875735.459 7  94968145.37644  23192170.633                    23192178.512
 111715683.573 7  87051207.37946  21258787.414                    21258793.234
 120177656.459 6  93644956.66944  22869052.031                    22869059.375
 120859061.842 7  94175789.84644  22998669.086                    22998678.063
 130934134.673 6 102026615.87743  24915944.766                    24915956.078
 109802833.456 8  85560674.23046  20894787.055                    20894794.488
 119060118.144 7  92774132.95644  22656394.828                    22656402.391
 11  7 28 18 50  0.0000000  0 11G08G06G24G07G28G19G03G11G10G13G23
 117135494.841 7  91274503.04545  22290151.625                    22290158.516
 130764920.659 6 101894774.06142  24883743.367                    24883752.492
 128967780.717 6 100494296.09943  24541718.375                    24541732.336
 109396216.635 8  85243837.99046  20817407.258                    20817414.020
 121827797.479 7  94930791.16744  23183048.039                    23183056.023
 111760667.724 8  87086259.95946  21267347.898                    21267353.457
 120276558.406 6  93722023.06244  22887872.016                    22887880.668
 120784871.621 7  94117979.36544  22984551.250                    22984560.246
 130991803.235 6 102071552.33043  24926918.547                    24926930.008
 109873631.948 8  85615841.83946  20908259.930                    20908267.023
 119167600.158 7  92857885.04944  22676848.477                    22676855.699
 11  7 28 18 50 30.0000000  0 11G08G06G24G07G28G19G03G11G10G13G23
 117062918.549 7  91217950.11945  22276340.836                    22276348.438
 130866407.841 6 101973854.91442  24903055.016                    24903064.469
 128893841.945 6 100436681.54543  24527647.922                    24527662.000
 109355798.372 8  85212343.24146  20809716.078                    20809722.719
 121780052.461 7  94893587.32744  23173962.453                    23173970.855
 111806206.093 7  87121744.39546  21276013.242                    21276019.145
 120375727.347 7  93799297.49744  22906743.000                    22906751.770
 120710868.428 7  94060314.61144  22970468.641                    22970477.160
 131049600.364 6 102116588.93443  24937917.266                    24937928.344
 109944909.286 8  85671382.58546  20921823.086                    20921831.188
 119275292.006 7  92941800.65944  22697341.656                    22697348.742
 11  7 28 18 51  0.0000000  0 11G08G06G24G07G28G19G03G11G10G13G23
 116990376.064 7  91161423.52845  22262536.305                    22262543.449
 130968021.080 6 102053034.03842  24922390.500                    24922400.848
 128819809.655 6 100378994.15243  24513560.398                    24513573.875
 109315600.108 8  85181019.92146  20802066.578                    20802073.242
 121732500.470 7  94856533.90644  23164914.180                    23164921.965
 111852297.239 7  87157659.56146  21284784.359                    21284789.637
 120475160.421 7  93876777.73944  22925665.039                    22925673.289
 120637055.417 7  94002798.06144  22956422.938                    22956431.379
 131107523.224 6 102161723.47543  24948939.789                    24948951.316
 110016663.571 8  85727294.97046  20935477.664                    20935485.305
 119383190.721 7  93025877.47044  22717873.945                    22717881.297
 11  7 28 18 51 30.0000000  0 11G08G06G24G07G28G19G03G11G10G13G23
 116917868.894 7  91104924.45845  22248738.336                    22248746.270
 131069758.006 5                  24941751.813
 128745686.273 6 100321235.75143  24499455.195                    24499468.762
 109275623.191 8  85149869.08546  20794459.242                    20794466.004
 121685140.733 7  94819630.27144  23155901.500                    23155909.719
 111898938.982 7  87194003.77246  21293660.305                    21293665.516
 120574854.163 7  93954461.17444  22944635.516                    22944644.281
 120563435.641 7  93945432.09244  22942412.906                    22942421.633
 131165569.181 6 102206954.00043  24959985.477                    24959997.000
 110088892.290 8  85783577.04946  20949222.266                    20949230.020
 119491293.266 7  93110113.09644  22738445.219                    22738452.531
 11  7 28 18 52  0.0000000  0 11G08G06G24G07G28G19G03G11G10G13G23
 116845398.373 7  91048453.94045  22234947.406                    22234955.520
 131171615.803 5                  24961133.492
 128671474.549 5 100263408.62342  24485331.984                    24485346.512
 109235869.651 8  85118892.30746  20786894.656                    20786901.105
 121637972.595 7  94782875.94444  23146925.484                    23146933.324
 111946129.631 7  87230775.69546  21302639.797                    21302645.852
 120674806.115 7  94032345.76643  22963656.086                    22963664.391
 120490012.288 6  93888219.17644  22928441.156                    22928450.285
 131223735.050 6 102252277.91142  24971054.125                    24971066.168
 110161593.078 8  85840226.96646  20963057.047                    20963064.723
 119599596.891 7  93194505.42744  22759054.688                    22759062.648
 11  7 28 18 52 30.0000000  0 11G08G06G24G07G28G19G03G11G10G13G23
 116772966.310 7  90992013.40545  22221164.391                    22221172.488
 131273592.306 5                  24980540.484
 128597177.113 5 100205514.74142  24471193.242                    24471207.918
 109196341.510 8  85088091.16146  20779372.141                    20779379.348
 121590995.413 7  94746270.41744  23137986.383                    23137994.020
 111993867.482 8  87267973.99846  21311724.375                    21311729.832
 120775013.538 6  94110429.42744  22982725.242                    22982732.902
 120416788.386 6  93831161.67944  22914506.906                    22914516.148
 131282018.239 6 102297693.30543  24982144.773                    24982156.906
 110234763.777 8  85897243.04946  20976980.516                    20976988.180
 119708098.649 7  93279052.11144  22779701.828                    22779709.691
 11  7 28 18 53  0.0000000  0 11G08G06G24G07G28G19G03G11G10G13G23
 116700573.971 7  90935603.81245  22207388.227                    22207396.672
 131375685.261 5                  24999968.484
 128522796.734 5 100147556.12342  24457040.297                    24457053.266
 109157040.637 7  85057467.10646  20771892.898                    20771900.090
 121544208.845 7  94709813.41944  23129082.656                    23129091.266
 112042150.624 7  87305597.21546  21320912.078                    21320917.832
 120875473.437 6  94188709.81743  23001842.250                    23001850.152
 120343766.957 6  93774261.95244  22900611.391                    22900620.672
 131340416.131 6 102343198.00943  24993258.016                    24993269.668
 110308402.145 8  85954623.55346  20990994.102                    20991001.273
 119816795.724 7  93363751.01244  22800386.516                    22800394.250
 11  7 28 18 53 30.0000000  0 11G08G06G24G07G28G19G03G11G10G13G23
 116628222.338 7  90879225.96245  22193620.125                    22193628.605
 131477891.861 5                  25019415.719
 128448335.747 6 100089534.73942  24442870.219                    24442883.902
 109117968.122 8  85027020.98946  20764458.156                    20764464.926
 121497611.684 7  94673503.96744  23120215.867                    23120224.020
 112090976.493 7  87343643.33546  21330202.953                    21330209.023
 120976182.761 6  94267184.59743  23021006.258                    23021014.457
 120270950.689 6  93717522.08744  22886754.867                    22886763.672
 131398925.547 6 102388789.68643  25004392.422                    25004404.438
 110382505.568 8  86012366.44046  21005095.188                    21005103.199
 119925684.971 7  93448599.62944  22821108.273                    22821115.316
 11  7 28 18 54  0.0000000  0 11G08G06G24G07G28G19G03G11G10G13G23
 116555913.390 7  90822881.35345  22179860.680                    22179868.840
 131580209.912 6                  25038888.078
 128373797.328 5 100031453.05742  24428685.492                    24428700.406
 109079126.441 8  84996754.74946  20757067.250                    20757073.496
 121451203.452 7  94637341.76444  23111384.609                    23111392.527
 112140343.771 7  87382111.34146  21339597.828                    21339603.172
 121077138.850 6  94345851.61443  23040217.305                    23040226.254
 120198342.999 7  93660944.75744  22872938.203                    22872946.707
 131457543.657 6 102434466.01543  25015546.938                    25015558.719
 110457071.564 8  86070469.78246  21019284.844                    21019292.379
 120034763.619 7  93533595.86044  22841864.523                    22841872.316
 11  7 28 18 54 30.0000000  0 11G08G06G24G07G28G19G03G11G10G13G23
 116483648.706 7  90766571.23545  22166108.750                    22166116.676
 131682637.102 6                  25058378.031
 128299183.974 6  99973313.02542  24414487.641                    24414501.285
 109040517.363 8  84966669.74846  20749720.047                    20749726.867
 121404983.511 7  94601326.26244  23102588.945                    23102597.031
 112190250.383 7  87420999.60146  21349094.727                    21349100.484
 121178338.931 6  94424708.77043  23059475.133                    23059483.824
 120125946.665 7  93604532.11344  22859161.633                    22859170.352
 131516267.843 6 102480224.99842  25026721.914                    25026733.867
 110532097.795 8  86128931.73346  21033561.969                    21033569.922
 120144028.557 7  93618737.24144  22862657.281                    22862665.535
 11  7 28 18 55  0.0000000  0 11G08G06G24G07G28G19G03G11G10G13G23
 116411429.606 7  90710296.64545  22152365.844                    22152373.875
 131785170.700 6                  25077889.961
 128224498.393 6  99915116.69642  24400275.242                    24400288.797
 109002142.242 8  84936767.05546  20742417.570                    20742424.145
 121358951.236 7  94565456.99044  23093829.000                    23093837.527
 112240693.858 7  87460306.20246  21358694.180                    21358699.430
 121279779.873 7  94503753.59843  23078778.836                    23078787.598
 120053764.980 7  93548286.69944  22845425.781                    22845435.223
 131575094.996 6 102526064.21443  25037916.117                    25037928.578
 110607581.855 8  86187750.43745  21047926.203                    21047933.547
 120253476.942 7  93704021.55444  22883484.430                    22883492.805
 11  7 28 18 55 30.0000000  0 11G08G06G24G07G28G19G03G11G10G13G23
 116339257.483 7  90654058.64745  22138632.008                    22138639.832
 131887808.553 5                  25097421.453
 128149743.327 6  99856866.22542  24386049.211                    24386063.098
 108964003.357 8  84907048.44346  20735159.656                    20735166.535
 121313106.096 7  94529733.53644  23085105.313                    23085112.926
 112291672.850 8  87500030.07346  21368395.219                    21368400.578
 121381459.173 7  94582984.17144  23098128.055                    23098136.523
 119981801.045 7  93492210.95544  22831731.758                    22831740.684
 131634022.713 6 102571981.76043  25049130.547                    25049142.398
 110683521.617 7  86246924.22845  21062377.047                    21062384.559
 120363105.946 6  93789446.61544  22904346.406                    22904354.348
 11  7 28 18 56  0.0000000  0 11G08G06G24G07G28G19G03G11G10G13G23
 116267134.081 7  90597858.62545  22124907.688                    22124915.422
 131990548.219 5                  25116972.773
 128074921.613 6  99798563.81942  24371810.852                    24371824.609
 108926102.130 8  84877515.02846  20727947.539                    20727954.063
 121267447.303 7  94494155.26844  23076417.141                    23076424.375
 112343184.885 8  87540169.30546  21378197.633                    21378202.879
 121483373.487 6  94662397.87243  23117520.805                    23117530.199
 119910057.639 6  93436307.06944  22818078.914                    22818087.820
 131693047.730 6 102617975.14542  25060362.023                    25060374.027
 110759914.238 8  86306450.89945  21076914.250                    21076921.602
 120472912.780 6  93875010.25344  22925241.945                    22925249.973
 11  7 28 18 56 30.0000000  0 11G08G06G24G07G28G19G03G11G10G13G23
 116195061.026 7  90541697.82245  22111192.563                    22111200.137
 132093387.560 5                  25136542.156
 128000035.799 6  99740211.45042  24357560.234                    24357573.867
 108888440.603 8  84848168.37946  20720780.586                    20720787.199
 121221974.280 7  94458721.78844  23067763.578                    23067771.609
 112395228.227 8  87580722.55146  21388100.813                    21388106.090
 121585520.133 7  94741992.58944  23136959.695                    23136968.266
 119838537.936 7  93380577.49244  22804468.602                    22804477.445
 131752167.484 6 102664042.32943  25071611.680                    25071625.113
 110836757.535 8  86366328.74745  21091536.922                    21091544.500
 120582894.448 6  93960710.12044  22946170.633                    22946178.594
 11  7 28 18 57  0.0000000  0 11G08G06G24G07G28G19G03G11G10G13G23
 116123039.919 7  90485577.50545  22097487.695                    22097494.527
 132196324.231 5                  25156128.203
 127925088.689 6  99681811.31543  24343298.039                    24343311.875
 108851020.717 8  84819010.02846  20713659.945                    20713666.570
 121176686.332 7  94423432.52144  23059144.703                    23059153.555
 112447800.979 8  87621688.31246  21398104.914                    21398110.652
 121687896.458 7  94821766.27443  23156441.047                    23156449.332
 119767245.089 7  93325024.63944  22790902.734                    22790911.629
 131811378.936 6 102710181.03743  25082880.148                    25082891.938
 110914049.130 8  86426555.92145  21106245.086                    21106252.508
 120693047.897 6  94046543.84844  22967132.883                    22967140.219
 11  7 28 18 57 30.0000000  0 11G08G06G24G07G28G19G03G11G10G13G23
 116051072.474 7  90429498.99645  22083792.633                    22083800.098
 132299355.901 5                  25175735.938
 127850083.031 6  99623365.55243  24329024.734                    24329039.031
 108813844.496 8  84790041.55246  20706585.250                    20706592.352
 121131582.793 7  94388286.93444  23050562.352                    23050570.590
 112500900.789 8  87663064.77646  21408209.844                    21408215.328
 121790499.518 6  94901716.65643  23175965.977                    23175974.445
 119696182.234 7  93269651.04144  22777380.141                    22777388.523
 131870679.417 5 102756389.04642  25094165.055                    25094176.281
 110991786.471 8  86487130.42345  21121037.938                    21121045.750
 120803370.536 6  94132509.39544  22988126.914                    22988134.309
 11  7 28 18 58  0.0000000  0 11G08G06G24G07G28G19G03G11G10G13G23
 115979159.698 7  90373463.08145  22070107.992                    22070115.176
 132402479.986 4                  25195359.727
 127775021.501 6  99564876.26843  24314741.563                    24314754.379
 108776913.248 8  84761263.95746  20699557.922                    20699564.777
 121086662.782 7  94353284.36144  23042014.586                    23042022.441
 112554525.575 7  87704850.30946  21418414.109                    21418419.582
 121893326.319 7  94981841.36043  23195533.445                    23195541.668
 119625352.257 7  93214458.88244  22763901.891                    22763910.281
 131930066.081 5 102802664.24742  25105465.438                    25105477.520
 111069967.044 8  86548050.30845  21135915.016                    21135923.105
 120913859.324 7  94218604.40644  23009152.578                    23009160.047
 11  7 28 18 58 30.0000000  0 11G08G06G24G07G28G19G03G11G10G13G23
 115907303.397 8  90317471.18445  22056433.828                    22056441.891
 132505693.82215                  25215002.250
 127699906.758 6  99506345.48343  24300447.820                    24300461.078
 108740228.761 8  84732678.64646  20692577.297                    20692583.945
 121041925.622 7  94318424.26744  23033501.320                    23033509.242
 112608672.947 8  87747043.04146  21428718.539                    21428723.066
 121996373.928 7  95062138.16943  23215142.359                    23215151.266
 119554757.906 7  93159450.34444  22750467.883                    22750476.824
 131989536.174 6 102849004.46743  25116782.656                    25116794.129
 111148588.094 8  86609313.41145  21150876.523                    21150884.102
 121024510.985 6  94304826.34644  23030208.305                    23030216.383
 11  7 28 18 59  0.0000000  0 11G08G06G24G07G28G19G03G11G10G13G23
 115835504.988 7  90261524.39345  22042771.211                    22042778.980
 132608995.681 5                  25234660.461
 127624741.798 6  99447775.55143  24286143.820                    24286156.934
 108703793.252 8  84704287.34246  20685643.578                    20685649.977
 120997370.543 7  94283706.07544  23025022.344                    23025030.301
 112663340.734 7  87789641.32346  21439120.336                    21439126.305
 122099639.289 6  95142604.61243  23234793.750                    23234802.289
 119484402.492 7  93104627.97444  22737079.742                    22737088.535
 132049087.104 6 102895407.67142  25128114.430                    25128126.723
 111227647.304 8  86670917.93845  21165921.070                    21165928.531
 121135322.731 6  94391173.00244  23051295.398                    23051303.148
 11  7 28 18 59 30.0000000  0 11G08G06G24G07G28G19G03G11G10G13G23
 115763765.978 7  90205623.89545  22029119.813                    22029127.441
 132712382.748 5                  25254332.766
 127549529.132 6  99389168.45443  24271830.727                    24271844.227
 108667608.116 8  84676091.13646  20678757.570                    20678764.574
 120952996.927 7  94249129.25244  23016578.711                    23016586.266
 112718527.254 8  87832643.77746  21449622.867                    21449627.895
 122203120.138 7  95223238.98443  23254484.992                    23254493.668
 119414289.121 7  93049994.23244  22723737.242                    22723746.066
 132108715.593 6 102941871.27743  25139461.625                    25139473.965
 111307141.871 8  86732861.70645  21181047.664                    21181055.574
 121246291.666 7  94477642.16344  23072411.625                    23072419.754
 11  7 28 19  0  0.0000000  0 11G08G06G24G07G28G19G03G11G10G13G23
 115692088.032 7  90149770.96445  22015480.063                    22015487.270
 132815853.013 5                  25274023.617
 127474271.330 6  99330526.15543  24257510.523                    24257523.402
 108631675.254 8  84648091.50546  20671919.781                    20671926.953
 120908804.121 7  94214693.34344  23008169.781                    23008176.918
 112774230.077 8  87876048.57346  21460222.234                    21460227.230
 122306813.587 7  95304039.03943  23274217.758                    23274225.875
 119344420.788 7  92995551.45344  22710442.219                    22710450.414
 132168419.029 6 102988393.26543  25150823.883                    25150835.582
 111387069.499 8  86795142.91945  21196258.094                    21196265.539
 121357414.921 6  94564231.54644  23093557.938                    23093566.297
 11  7 28 19  0 30.0000000  0 11G08G06G24G07G28G19G03G11G10G13G23
 115620472.973 7  90093967.04945  22001852.055                    22001859.445
 132919403.879 5                  25293727.875
 127398971.467 6  99271851.14943  24243180.766                    24243193.836
 108595996.538 8  84620289.91246  20665130.203                    20665137.102
 120864791.506 7  94180397.85844  22999793.141                    22999801.164
 112830447.106 8  87919854.04646  21470920.266                    21470925.875
 122410716.490 7  95385002.31043  23293989.172                    23293998.273
 119274800.220 7  92941301.71644  22697193.344                    22697201.598
 132228194.418 6 103034971.33143  25162198.414                    25162210.520
 111467427.419 8  86857759.43145  21211549.289                    21211557.469
 121468689.594 6  94650938.93144  23114733.469                    23114741.602
 11  7 28 19  1  0.0000000  0 11G08G06G24G07G28G19G03G11G10G13G23
 115548922.331 7  90038213.33345  21988235.992                    21988244.031
 133023033.435 5                  25313448.422
 127323632.667 6  99213145.78143  24228844.242                    24228857.340
 108560574.103 8  84592688.01246  20658390.023                    20658396.652
 120820958.271 7  94146242.15044  22991452.320                    22991460.020
 112887176.098 7  87964058.44146  21481715.680                    21481720.902
 122514826.264 6  95466126.75243  23313801.023                    23313809.160
 119205430.535 7  92887247.46744  22683992.922                    22684000.727
 132288038.960 5 103081603.35442  25173585.516                    25173598.938
 111548213.356 7  86920709.45645  21226923.008                    21226930.625
 121580112.733 6  94737761.99344  23135936.656                    23135944.582
 11  7 28 19  1 30.0000000  0 11G08G06G24G07G28G19G03G11G10G13G23
 115477438.043 7  89982511.30845  21974633.039                    21974640.816
 133126739.380 5                  25333183.086
 127248257.938 6  99154412.35143  24214500.563                    24214513.613
 108525409.844 8  84565287.29646  20651698.438                    20651705.211
 120777304.022 7  94112225.89944  22983145.078                    22983153.090
 112944415.297 7  88008660.40146  21492607.711                    21492613.660
 122619140.403 6  95547410.41743  23333651.617                    23333660.109
 119136315.066 7  92833391.32144  22670840.180                    22670848.555
 132347950.051 6 103128287.16042  25184987.117                    25185000.176
 111629424.779 7  86983991.02645  21242376.398                    21242384.219
 121691681.510 7  94824698.52244  23157167.016                    23157175.602
 11  7 28 19  2  0.0000000  0 11G08G06G24G07G28G19G03G11G10G13G23
 115406021.750 7  89926862.27245  21961043.195                    21961050.730
 133230519.325 5                  25352931.680
 127172849.622 6  99095652.79343  24200150.953                    24200163.938
 108490505.378 8  84538089.01046  20645056.141                    20645063.023
 120733827.661 7  94078348.26244  22974871.688                    22974879.938
 113002161.841 7  88053657.69346  21503596.195                    21503601.945
 122723655.673 6  95628850.83743  23353539.398                    23353548.695
 119067456.791 7  92779735.58144  22657737.297                    22657745.145
 132407924.824 5 103175020.57442  25196399.375                    25196413.254
 111711059.004 8  87047602.05945  21257911.289                    21257918.988
 121803393.147 7  94911746.38443  23178425.391                    23178433.699
 11  7 28 19  2 30.0000000  0 11G08G06G24G07G28G19G03G11G10G13G23
 115334675.020 7  89871267.43845  21947466.227                    21947473.578
 133334371.42314                  25372691.102
 127097410.859 6  99036869.45843  24185795.492                    24185808.086
 108455862.780 8  84511094.78646  20638464.258                    20638470.492
 120690528.515 7  94044608.72244  22966632.656                    22966640.273
 113060413.817 7  88099048.82246  21514681.891                    21514687.383
 122828369.363 6  95710445.87043  23373466.586                    23373474.969
 118998858.847 7  92726282.71844  22644682.953                    22644691.520
 132467960.736 5 103221801.61442  25207825.125                    25207837.098
 111793113.510 7  87111540.58045  21273525.742                    21273533.719
 121915244.821 6  94998903.35043  23199710.063                    23199718.324
 11  7 28 19  3  0.0000000  0 10G08G24G07G28G19G03G11G10G13G23
 115263399.645 7  89815728.20845  21933902.820                    21933910.871
 127021944.487 6  98978064.59743  24171435.172                    24171447.652
 108421484.106 7  84484306.21546  20631922.047                    20631928.820
 120647406.060 7  94011006.87544  22958426.070                    22958434.270
 113119169.372 7  88144832.35645  21525862.289                    21525867.609
 122933278.985 6  95792193.57743  23393429.398                    23393439.125
 118930524.599 6  92673035.31644  22631679.633                    22631687.922
 132528055.094 5 103268628.24742  25219260.875                    25219273.262
 111875585.645 7  87175804.53345  21289219.922                    21289227.563
 122027233.567 6  95086167.13143  23221021.016                    23221029.379
 11  7 28 19  3 30.0000000  0 11G08G24G07G17G28G19G03G11G10G13G23
 115192197.586 7  89760246.11345  21920353.938                    21920361.500
 126946453.567 6  98919240.62743  24157069.242                    24157082.598
 108387371.234 7  84457724.76246  20625430.484                    20625437.441
 134370174.68415                  25569802.938
 120604459.986 7  93977542.45244  22950254.195                    22950261.617
 113178426.041 7  88191006.36846  21537138.297                    21537143.867
 123038381.703 6  95874091.72343  23413430.555                    23413439.242
 118862456.959 7  92619995.66544  22618726.930                    22618734.570
 132588205.212 5 103315498.31742  25230705.297                    25230719.102
 111958473.159 7  87240392.14045  21304992.586                    21305000.855
 122139356.564 6  95173535.53343  23242357.633                    23242365.875
 11  7 28 19  4  0.0000000  0 11G08G24G07G17G28G19G03G11G10G13G23
 115121069.977 7  89704822.02545  21906818.547                    21906826.355
 126870940.150 6  98860399.08043  24142698.523                    24142711.617
 108353525.135 8  84431351.17546  20618989.672                    20618996.301
 134262841.788 6                  25549378.750
 120561688.281 7  93944213.89644  22942114.766                    22942122.445
 113238180.824 7  88237568.52046  21548509.313                    21548514.883
 123143674.450 6  95956137.91843  23433467.211                    23433475.809
 118794658.109 7  92567165.48144  22605825.398                    22605833.531
 132648407.539 6 103362409.04142  25242162.945                    25242175.707
 112041772.746 7  87305300.85545  21320843.969                    21320851.578
 122251610.519 6  95261005.95943  23263719.164                    23263727.152
 11  7 28 19  4 30.0000000  0 11G08G24G07G17G28G19G03G11G10G13G23
 115050018.366 7  89649457.15645  21893297.844                    21893305.688
 126795407.449 6  98801542.48343  24128325.609                    24128337.336
 108319948.198 7  84405187.32246  20612600.258                    20612607.133
 134155512.422 5                  25528953.492
 120519090.840 7  93911021.12644  22934008.586                    22934015.859
 113298431.563 7  88284517.12845  21559975.477                    21559980.480
 123249154.500 6  96038330.12443  23453539.219                    23453547.809
 118727131.332 7  92514547.28044  22592974.961                    22592983.715
 132708659.669 6 103409358.62542  25253628.047                    25253641.418
 112125481.537 8  87370528.43145  21336773.531                    21336781.387
 122363992.345 6  95348576.03843  23285104.781                    23285112.836
 11  7 28 19  5  0.0000000  0 11G08G24G07G17G28G19G03G11G10G13G23
 114979044.246 8  89594152.66045  21879791.906                    21879799.980
 126719858.157 6  98742672.96742  24113949.570                    24113960.973
 108286641.769 7  84379234.26346  20606262.008                    20606268.984
 134048188.002 6                  25508531.227
 120476666.753 7  93877963.42644  22925935.852                    22925943.125
 113359176.257 7  88331850.63846  21571534.508                    21571539.945
 123354818.625 6  96120665.77043  23473646.102                    23473654.887
 118659879.096 7  92462143.03144  22580177.250                    22580185.770
 132768958.229 6 103456344.35142  25265102.789                    25265115.559
 112209596.806 8  87436072.73945  21352780.531                    21352787.945
 122476499.109 6  95436243.46943  23306514.570                    23306522.363
 11  7 28 19  5 30.0000000  0 11G08G24G07G17G28G19G03G11G10G13G23
 114908149.767 7  89538910.23645  21866301.313                    21866308.742
 126644295.338 6  98683792.94442  24099570.188                    24099582.160
 108253607.739 8  84353493.45846  20599976.008                    20599982.996
 133940871.027 6 104369611.87552  25488109.102                    25488126.109
 120434415.153 7  93845040.14144  22917895.016                    22917902.949
 113420412.139 8  88379566.88845  21583186.945                    21583192.211
 123460664.101 6  96203142.69143  23493788.703                    23493797.402
 118592904.989 7  92409955.51044  22567432.547                    22567440.668
 132829300.907 5 103503364.47542  25276585.391                    25276598.336
 112294116.193 8  87501931.94945  21368863.258                    21368871.453
 122589127.946 6  95524006.01443  23327947.109                    23327955.082
 11  7 28 19  6  0.0000000  0 12G08G06G24G07G17G28G19G03G11G10G13G23
 114837336.644 8  89483731.20945  21852825.938                    21852833.664
 134063138.80315                  25511374.742
 126568721.529 6  98624904.32642  24085188.250                    24085200.633
 108220848.141 8  84327966.50046  20593741.773                    20593749.023
 133833562.875 6 104285995.24542  25467689.273                    25467705.414
 120392334.945 7  93812250.39644  22909887.969                    22909895.387
 113482136.951 7  88427664.12845  21594932.680                    21594938.004
 123566688.165 6  96285758.77943  23513964.305                    23513972.938
 118526212.008 7  92357987.03244  22554741.422                    22554749.508
 132889684.883 6 103550416.70542  25288076.422                    25288088.707
 112379036.782 7  87568103.78245  21385023.820                    21385031.570
 122701876.091 6  95611861.53143  23349402.688                    23349410.750
 11  7 28 19  6 30.0000000  0 12G08G06G24G07G17G28G19G03G11G10G13G23
 114766606.687 7  89428616.96945  21839366.422                    21839374.172
 134167481.436 5                  25531230.477
 126493139.607 6  98566009.41243  24070804.797                    24070817.340
 108188364.948 8  84302654.92746  20587560.805                    20587567.707
 133726266.158 6 104202387.52743  25447271.094                    25447287.348
 120350426.080 7  93779594.17844  22901912.977                    22901920.230
 113544348.503 7  88476140.64946  21606771.398                    21606777.250
 123672888.297 6  96368512.10043  23534174.320                    23534182.402
 118459802.845 7  92306239.70044  22542104.219                    22542113.035
 132950107.102 6 103597498.83642  25299575.031                    25299587.113
 112464355.781 8  87634586.06545  21401259.664                    21401266.949
 122814740.596 7  95699807.71044  23370880.258                    23370888.574
 11  7 28 19  7  0.0000000  0 12G08G06G24G07G17G28G19G03G11G10G13G23
 114695961.569 7  89373568.84645  21825922.641                    21825930.504
 134271875.787 5                  25551096.008
 126417552.792 6  98507110.62543  24056422.023                    24056433.852
 108156160.242 8  84277560.34746  20581432.500                    20581438.914
 133618983.207 6 104118790.48242  25426856.188                    25426871.156
 120308687.587 7  93747070.72044  22893969.891                    22893977.785
 113607044.533 7  88524994.66645  21618701.969                    21618707.895
 123779261.874 6  96451400.52843  23554415.258                    23554425.363
 118393680.901 7  92254716.18244  22529521.180                    22529529.754
 133010564.859 6 103644608.62542  25311080.063                    25311092.410
 112550070.755 7  87701376.89945  21417570.469                    21417578.691
 122927718.580 6  95787842.32143  23392378.289                    23392387.574
 11  7 28 19  7 30.0000000  0 12G08G06G24G07G17G28G19G03G11G10G13G23
 114625403.350 8  89318588.43845  21812496.234                    21812504.063
 134376319.201 5                  25570972.188
 126341964.119 6  98448210.45543  24042038.109                    24042049.914
 108124235.620 7  84252684.02046  20575357.602                    20575364.105
 133511716.134 6 104035205.91743  25406443.977                    25406458.734
 120267118.573 7  93714679.30544  22886060.063                    22886067.414
 113670222.613 7  88574224.32946  21630724.234                    21630730.254
 123885806.099 6  96534421.91543  23574690.219                    23574699.145
 118327849.012 7  92203418.66444  22516993.422                    22517002.094
 133071055.887 5 103691744.37852  25322590.961                    25322604.324
 112636179.229 7  87768474.35045  21433956.383                    21433964.246
 123040807.282 6  95875963.16644  23413899.398                    23413907.695
 11  7 28 19  8  0.0000000  0 12G08G06G24G07G17G28G19G03G11G10G13G23
 114554933.457 7  89263676.85645  21799086.086                    21799093.598
 134480809.428 5                  25590855.469
 126266376.165 6  98389310.92143  24027653.391                    24027665.824
 108092592.793 7  84228027.27446  20569335.875                    20569342.852
 133404466.286 6 103951634.72743  25386033.891                    25386049.914
 120225718.340 7  93682419.44044  22878181.430                    22878189.156
 113733880.022 7  88623827.48145  21642837.859                    21642843.512
 123992518.095 6  96617574.08743  23594996.648                    23595005.605
 118262309.930 7  92152349.31244  22504521.961                    22504529.887
 133131576.951 6 103738903.50152  25334108.391                    25334121.480
 112722677.780 7  87835875.76645  21450416.227                    21450424.324
 123154003.693 7  95964167.97244  23435440.375                    23435449.043
 11  7 28 19  8 30.0000000  0 12G08G06G24G07G17G28G19G03G11G10G13G23
 114484553.954 7  89208835.69745  21785693.125                    21785701.195
 134585344.398 5                  25610747.516
 126190791.983 6  98330414.30843  24013270.375                    24013283.363
 108061233.758 8  84203591.67546  20563368.313                    20563375.055
 133297236.293 6 103868079.05043  25365630.469                    25365644.809
 120184486.271 7  93650290.58944  22870335.453                    22870342.809
 113798014.453 8  88673802.34946  21655042.141                    21655048.355
 124099395.173 6  96700854.83943  23615335.359                    23615344.078
 118197066.799 7  92101510.58144  22492106.430                    22492115.109
 133192125.246 6 103786083.88542  25345629.859                    25345642.727
 112809564.296 7  87903579.48545  21466950.344                    21466958.598
 123267305.099 6  96052454.55843  23457001.320                    23457009.508
 11  7 28 19  9  0.0000000  0 12G08G06G24G07G17G28G19G03G11G10G13G23
 114414266.586 8  89154066.34145  21772318.172                    21772325.711
 134689922.14214                  25630647.555
 126115214.689 6  98271523.03543  23998887.898                    23998901.281
 108030160.695 8  84179378.90446  20557455.930                    20557462.137
 133190027.963 5 103784540.26642  25345227.484                    25345242.977
 120143421.582 7  93618292.18344  22862521.023                    22862528.617
 113862623.801 7  88724147.26746  21667337.305                    21667343.102
 124206435.012 6  96784262.41843  23635704.719                    23635713.270
 118132122.734 7  92050904.85044  22479748.375                    22479756.332
 133252698.366 6 103833283.59242  25357156.063                    25357169.129
 112896835.755 7  87971583.16245  21483557.594                    21483565.867
 123380708.575 6  96140820.70343  23478580.438                    23478589.527
 11  7 28 19  9 30.0000000  0 12G08G06G24G07G17G28G19G03G11G10G13G23
 114344073.187 8  89099370.21345  21758960.563                    21758968.375
 134794540.94714                  25650557.047
 126039647.415 6  98212639.58643  23984508.320                    23984521.398
 107999375.308 8  84155390.29646  20551597.328                    20551604.105
 133082843.578 5 103701020.04942  25324830.555                    25324846.949
 120102523.330 7  93586423.45144  22854738.008                    22854745.934
 113927705.710 7  88774860.43345  21679721.680                    21679727.063
 124313634.527 6  96867794.45243  23656103.797                    23656112.824
 118067481.009 7  92000534.72144  22467446.781                    22467455.285
 133313293.953 6 103880500.77943  25368687.633                    25368700.137
 112984489.453 7  88039884.69645  21500238.273                    21500245.488
 123494211.179 6  96229264.06143  23500179.266                    23500188.578
 11  7 28 19 10  0.0000000  0 12G08G06G24G07G17G28G19G03G11G10G13G23
 114273975.283 8  89044748.48445  21745621.641                    21745629.277
 134899196.11214                  25670473.484
 125964092.643 6  98153765.87643  23970129.875                    23970143.227
 107968878.952 8  84131626.90846  20545794.422                    20545800.535
 132975684.98515 103617520.07952  25304439.422                    25304455.512
 120061790.679 7  93554683.76244  22846986.852                    22846994.387
 113993257.350 8  88825939.62245  21692195.992                    21692201.598
 124420991.015 6  96951448.79543  23676532.797                    23676541.664
 118003143.608 7  91950401.72944  22455204.172                    22455212.500
 133373908.799 6 103927733.00343  25380222.625                    25380235.699
 113072522.365 7  88108481.71045  21516990.211                    21516998.207
 123607809.955 6  96317782.37143  23521797.430                    23521805.660
 11  7 28 19 10 30.0000000  0 12G08G06G24G07G17G28G19G03G11G10G13G23
 114203975.127 8  88990202.92145  21732300.813                    21732308.336
 135003888.68414                  25690394.484
 125888553.241 6  98094904.16343  23955755.539                    23955768.391
 107938674.053 8  84108090.62146  20540045.938                    20540052.082
 132868554.13414                  25284051.016
 120021223.066 7  93523072.65644  22839267.281                    22839274.453
 114059276.337 8  88877382.97045  21704758.641                    21704764.270
 124528501.841 6  97035223.37743  23696991.211                    23697000.332
 117939114.162 7  91900508.68644  22443019.688                    22443027.668
 133434540.075 6 103974977.97043  25391761.297                    25391773.813
 113160931.936 7  88177372.22945  21533814.016                    21533821.422
 123721502.140 7  96406373.44943  23543432.344                    23543441.387
 11  7 28 19 11  0.0000000  0 11G08G24G07G17G28G19G03G11G10G13G23
 114134074.722 8  88935735.09145  21718999.219                    21719006.633
 125813032.547 6  98036057.01043  23941385.109                    23941397.563
 107908762.688 8  84084783.07546  20534354.508                    20534360.949
 132761454.18915 103450567.39653  25263671.805                    25263685.094
 119980819.675 7  93491589.52044  22831579.070                    22831586.113
 114125760.445 8  88929188.74746  21717410.555                    21717416.313
 124636164.591 6  97119116.34743  23717479.344                    23717488.746
 117875395.820 7  91850858.07844  22430895.008                    22430902.613
 133495185.192 6 104022233.78342  25403300.984                    25403314.020
 113249715.275 7  88246554.00145  21550709.000                    21550716.660
 123835285.027 6  96495035.24943  23565084.398                    23565092.547
 11  7 28 19 11 30.0000000  0 11G08G24G07G17G28G19G03G11G10G13G23
 114064276.297 8  88881346.73345  21705717.359                    21705724.828
 125737534.053 6  97977227.17643  23927017.305                    23927029.805
 107879147.287 8  84061706.13546  20528718.563                    20528725.227
 132654386.982 6 103367138.66543  25243298.547                    25243312.566
 119940580.109 7  93460234.05444  22823921.664                    22823929.277
 114192708.005 7  88981355.66145  21730150.070                    21730155.543
 124743976.807 6  97203125.80643  23737995.977                    23738004.449
 117811992.119 7  91801452.61744  22418829.422                    22418837.000
 133555842.007 6 104069498.64043  25414842.859                    25414857.074
 113338870.499 7  88316025.55145  21567674.539                    21567682.387
 123949156.336 6  96583765.90043  23586753.727                    23586762.453
 11  7 28 19 12  0.0000000  0 11G08G24G07G17G28G19G03G11G10G13G23
 113994580.596 8  88827038.41045  21692454.320                    21692462.063
 125662059.459 6  97918415.97043  23912654.625                    23912668.090
 107849827.668 8  84038859.69146  20523139.094                    20523146.195
 132547353.668 6 103283736.26243  25222930.617                    25222945.246
 119900502.722 7  93429004.93244  22816295.367                    22816302.730
 114260114.827 7  89033880.44645  21742977.000                    21742983.195
 124851934.926 6  97287248.96343  23758539.781                    23758548.438
 117748904.307 7  91752293.31944  22406824.125                    22406831.418
 133616506.585 5 104116769.55942  25426387.438                    25426401.242
 113428393.358 7  88385783.56345  21584710.281                    21584718.098
 124063111.646 6  96672562.02643  23608438.555                    23608447.652
 11  7 28 19 12 30.0000000  0 11G08G24G07G17G28G19G03G11G10G13G23
 113924989.818 8  88772811.84545  21679212.570                    21679219.188
 125586612.017 6  97859625.92143  23898297.922                    23898310.789
 107820806.746 8  84016245.98746  20517617.000                    20517623.488
 132440356.801 6 103200362.28042  25202569.305                    25202584.117
 119860587.258 7  93397901.99645  22808699.164                    22808706.480
 114327978.710 8  89086761.36745  21755891.180                    21755897.293
 124960036.237 6  97371483.69643  23779110.680                    23779119.180
 117686135.881 7  91703382.89244  22394879.602                    22394887.688
 133677176.778 6 104164044.88542  25437933.227                    25437946.527
 113518281.194 7  88455825.97145  21601814.750                    21601823.219
 124177148.635 6  96761421.80243  23630140.219                    23630148.188
 11  7 28 19 13  0.0000000  0 11G08G24G07G17G28G19G03G11G10G13G23
 113855506.188 8  88718668.78445  21665989.070                    21665997.102
 125511194.850 6  97800859.48643  23883946.164                    23883958.719
 107792086.481 8  83993866.55246  20512151.313                    20512158.164
 132333398.723 6 103117018.52543  25182215.820                    25182230.879
 119820832.645 7  93366924.41445  22801134.414                    22801141.652
 114396297.750 8  89139996.95245  21768892.375                    21768897.898
 125068278.415 6  97455828.19543  23799707.539                    23799716.531
 117623690.013 7  91654723.80644  22382996.258                    22383004.453
 133737849.778 6 104211322.35443  25449479.320                    25449492.313
 113608531.697 7  88526150.98545  21618989.742                    21618997.469
 124291264.882 6  96850343.32443  23651855.117                    23651863.898
 11  7 28 19 13 30.0000000  0 11G08G24G07G17G28G19G03G11G10G13G23
 113786131.712 8  88664610.77145  21652788.086                    21652795.684
 125435811.098 6  97742119.06342  23869600.766                    23869612.855
 107763668.570 7  83971722.73346  20506743.469                    20506750.137
 132226481.300 6 103033706.45142  25161869.875                    25161885.324
 119781238.020 7  93336071.49245  22793599.641                    22793607.129
 114465069.230 7  89193585.11245  21781978.609                    21781984.410
 125176658.525 6  97540280.19743  23820332.164                    23820341.141
 117561569.659 7  91606318.37944  22371175.391                    22371183.539
 133798522.745 5 104258599.83742  25461024.586                    25461038.664
 113699141.851 7  88596756.23245  21636232.195                    21636239.805
 124405457.265 6  96939324.20643  23673585.797                    23673594.672
 11  7 28 19 14  0.0000000  0 11G08G24G07G17G28G19G03G11G10G13G23
 113716868.126 8  88610639.15945  21639607.805                    21639615.246
 125360463.897 6  97683407.14143  23855262.930                    23855274.910
 107735555.331 8  83949816.31646  20501393.656                    20501400.582
 132119606.849 6 102950427.78542  25141531.758                    25141547.414
 119741802.961 7  93305342.91444  22786094.797                    22786103.176
 114534290.649 7  89247523.85245  21795151.273                    21795157.555
 125285174.355 6  97624837.93743  23840981.422                    23840991.414
 117499777.909 7  91558169.01144  22359416.656                    22359424.383
 133859193.453 5 104305875.54242  25472570.203                    25472583.129
 113790109.170 7  88667639.80345  21653542.711                    21653550.602
 124519723.184 6  97028362.35543  23695329.641                    23695338.918
 11  7 28 19 14 30.0000000  0 11G08G24G07G17G28G19G03G11G10G13G23
 113647717.077 8  88556755.24745  21626448.477                    21626456.125
 125285155.634 6  97624725.54243  23840932.555                    23840944.039
 107707747.698 8  83928148.02846  20496102.031                    20496108.664
 132012776.895 6 102867183.86143  25121202.516                    25121217.215
 119702525.881 7  93274737.42544  22778620.828                    22778628.391
 114603959.060 8  89301810.91145  21808408.883                    21808414.832
 125393823.098 6  97709499.21643  23861657.172                    23861666.680
 117438316.941 7  91510277.38344  22347721.055                    22347729.059
 133919858.458 5 104353146.75842  25484113.758                    25484127.598
 113881429.996 7  88738798.83445  21670920.234                    21670928.473
 124634059.351 6  97117455.25543  23717086.781                    23717095.824
 11  7 28 19 15  0.0000000  0 11G08G24G07G17G28G19G03G11G10G13G23
 113578680.655 8  88502960.65345  21613311.594                    21613318.609
 125209889.766 6  97566076.95643  23826609.625                    23826621.172
 107680248.368 8  83906719.97546  20490869.156                    20490876.148
 131905993.922 6 102783976.55443  25100883.273                    25100897.492
 119663406.846 7  93244255.09545  22771177.313                    22771184.465
 114674072.006 7  89356444.36845  21821751.281                    21821756.430
 125502602.186 6  97794262.04643  23882356.164                    23882366.867
 117377189.944 7  91462646.00344  22336089.047                    22336096.719
 133980515.564 5 104400411.80842  25495657.789                    25495670.434
 113973101.845 7  88810231.37945  21688364.930                    21688373.070
 124748463.030 6  97206600.75843  23738857.766                    23738867.082
 11  7 28 19 15 30.0000000  0 11G08G24G07G17G28G19G03G11G10G13G23
 113509761.153 8  88449257.16845  21600196.203                    21600203.738
 125134669.358 6  97507463.80143  23812295.070                    23812307.234
 107653059.048 8  83885533.49846  20485695.414                    20485702.336
 131799259.923 6 102700807.34242  25080572.008                    25080587.074
 119624444.834 7  93213895.11345  22763762.867                    22763770.613
 114744627.356 8  89411422.54245  21835177.367                    21835182.965
 125611508.764 6  97879124.21343  23903081.461                    23903090.965
 117316400.224 7  91415277.43644  22324521.250                    22324529.328
 134041162.139 5 104447668.72842  25507198.063                    25507211.547
 114065122.127 7  88881935.43645  21705875.438                    21705883.961
 124862931.462 6  97295796.70543  23760640.195                    23760649.617
 11  7 28 19 16  0.0000000  0 11G08G24G07G17G28G19G03G11G10G13G23
 113440959.661 8  88395645.62945  21587103.703                    21587110.973
 125059497.059 6  97448888.16443  23797989.719                    23798002.531
 107626180.911 8  83864589.49846  20480580.625                    20480587.551
 131692577.376 6 102617678.33142  25060270.695                    25060285.621
 119585638.568 7  93183656.52444  22756377.586                    22756385.434
 114815622.049 7  89466743.06645  21848686.945                    21848692.527
 125720540.218 6  97964083.72443  23923829.000                    23923838.949
 117255950.160 7  91368173.54144  22313017.289                    22313025.832
 134101795.029 4 104494914.98842  25518735.445                    25518749.609
 114157487.418 7  88953908.33345  21723452.414                    21723460.453
 124977461.584 6  97385040.69443  23782434.281                    23782444.375
 11  7 28 19 16 30.0000000  0 11G08G24G07G17G28G19G03G11G10G13G23
 113372278.854 8  88342128.14945  21574033.938                    21574041.754
 124984375.937 6  97390352.35943  23783695.398                    23783707.078
 107599616.316 8  83843889.81446  20475525.516                    20475532.352
 131585948.441 6 102534591.05343  25039979.594                    25039994.629
 119546987.549 7  93153538.86545  22749022.938                    22749030.387
 114887053.806 7  89522404.14845  21862280.195                    21862285.582
 125829694.051 6  98049138.60743  23944600.797                    23944609.813
 117195842.852 7  91321336.72644  22301579.523                    22301587.520
 134162411.57614 104542148.43352  25530269.992                    25530285.496
 114250195.144 7  89026148.05045  21741094.172                    21741102.332
 125092050.898 6  97474330.80443  23804240.906                    23804250.414
 11  7 28 19 17  0.0000000  0 11G08G24G07G17G28G19G03G11G10G13G23
 113303720.425 8  88288706.01945  21560988.258                    21560995.746
 124909308.716 6  97331858.60043  23769409.805                    23769422.750
 107573366.742 8  83823435.59846  20470530.211                    20470537.055
 131479374.616 6 102451546.73542  25019700.023                    25019713.898
 119508490.765 7  93123541.40545  22741697.352                    22741704.648
 114958919.597 7  89578403.44445  21875955.984                    21875961.453
 125938967.579 6  98134286.76243  23965394.750                    23965403.625
 117136080.900 7  91274769.02644  22290207.063                    22290215.387
 134223008.72414 104589366.80452  25541801.641                    25541817.199
 114343241.849 7  89098651.91445  21758800.438                    21758808.516
 125206695.996 6  97563664.40943  23826057.156                    23826066.738
 11  7 28 19 17 30.0000000  0 11G08G24G07G17G28G19G03G11G10G13G23
 113235286.372 8  88235380.80745  21547965.438                    21547972.785
 124834298.939 6  97273409.60843  23755136.563                    23755148.289
 107547434.199 8  83803228.42246  20465595.664                    20465602.148
 131372858.154 6 102368547.13243  24999430.438                    24999444.012
 119470147.375 7  93093663.47244  22734400.648                    22734407.941
 115031217.040 7  89634739.08845  21889713.297                    21889718.914
 126048357.994 6  98219525.98943  23986211.625                    23986220.668
 117076667.753 7  91228473.10944  22278901.563                    22278909.449
 134283584.93215 104636568.74052  25553330.688                    25553344.527
 114436625.419 7  89171418.26945  21776570.828                    21776579.004
 125321394.259 6  97653039.46143  23847883.719                    23847893.488
 11  7 28 19 18  0.0000000  0 11G08G24G07G17G28G19G03G11G10G13G23
 113166978.697 8  88182154.07345  21534967.023                    21534974.797
 124759349.571 7  97215007.66244  23740873.680                    23740885.703
 107521820.934 8  83783270.03846  20460721.820                    20460728.363
 131266401.534 6 102285594.13743  24979171.844                    24979186.324
 119431956.513 7  93063904.38944  22727133.133                    22727140.672
 115103943.427 7  89691408.96245  21903553.016                    21903558.629
 126157863.188 6  98304854.63443  24007049.281                    24007058.363
 117017605.427 7  91182450.56744  22267661.688                    22267670.246
 134344137.03115 104683752.04552  25564852.492                    25564867.445
 114530342.304 7  89244444.35245  21794404.391                    21794412.773
 125436143.457 6  97742454.15343  23869720.563                    23869729.762
 11  7 28 19 18 30.0000000  0 11G08G24G07G17G28G19G03G11G10G13G23
 113098799.306 8  88129027.28745  21521992.500                    21522000.203
 124684463.433 6  97156655.01743  23726623.555                    23726635.680
 107496528.524 8  83763561.66646  20455908.492                    20455915.590
 131160006.525 5 102202689.17442  24958924.914                    24958939.574
 119393917.584 7  93034263.69745  22719894.508                    22719902.301
 115177096.263 7  89748411.13845  21917473.414                    21917479.094
 126267480.096 6  98390270.34543  24027908.609                    24027918.465
 116958896.914 7  91136703.73344  22256490.438                    22256498.289
 134404661.866 4 104730913.93842  25576369.859                    25576384.184
 114624389.720 7  89317727.98945  21812301.383                    21812309.621
 125550940.150 6  97831905.89843  23891565.492                    23891575.234
 11  7 28 19 19  0.0000000  0 11G08G24G07G17G28G19G03G11G10G13G23
 113030750.390 8  88076002.17845  21509043.430                    21509051.090
 124609643.678 6  97098354.12743  23712385.219                    23712397.375
 107471558.341 8  83744104.38046  20451157.016                    20451163.504
 131053675.282 6 102119833.90243  24938691.398                    24938704.867
 119356029.690 7  93004740.69644  22712684.758                    22712692.418
 115250672.742 7  89805743.43445  21931474.234                    21931479.664
 126377206.085 6  98475771.05843  24048789.008                    24048798.535
 116900545.230 7  91091234.94944  22245386.227                    22245393.887
 134465157.36215 104778053.12152  25587881.828                    25587896.770
 114718764.870 7  89391266.99745  21830260.328                    21830268.480
 125665781.912 6  97921392.75243  23913419.945                    23913429.094
 11  7 28 19 19 30.0000000  0 12G08G24G07G17G28G26G19G03G11G10G13G23
 112962834.026 8  88023080.36145  21496119.648                    21496126.969
 124534893.636 6  97040107.48443  23698160.570                    23698172.832
 107446913.098 8  83724900.29146  20446466.766                    20446474.180
 130947410.390 6 102037030.24743  24918468.227                    24918483.371
 119318292.192 7  92975334.89045  22705503.422                    22705510.836
 130491816.04515                  24831792.289
 115324670.616 7  89863404.09145  21945555.781                    21945561.762
 126487039.192 6  98561355.20843  24069689.492                    24069699.320
 116842553.617 7  91046046.73944  22234350.430                    22234358.395
 134525620.83615 104825167.37552  25599387.438                    25599402.746
 114813464.808 7  89465059.08945  21848281.359                    21848289.344
 125780665.573 6  98010912.23843  23935281.391                    23935291.145
 11  7 28 19 20  0.0000000  0 12G08G24G07G17G28G26G19G03G11G10G13G23
 112895052.174 8  87970263.36345  21483220.711                    21483228.273
 124460215.751 6  96981917.12343  23683949.492                    23683961.754
 107422594.032 8  83705950.37046  20441838.898                    20441846.219
 130841213.431 6 101954279.58543  24898259.820                    24898274.367
 119280704.101 7  92946045.50245  22698350.719                    22698358.477
 130391945.72214                  24812787.789
 115399086.924 7  89921390.78345  21959716.820                    21959722.602
 126596976.452 5  98647020.56643  24090609.992                    24090619.313
 116784924.569 7  91001141.05544  22223384.227                    22223392.316
 134586049.302 5 104872254.31542  25610888.719                    25610901.895
 114908486.628 7  89539102.00045  21866363.453                    21866371.656
 125895588.591 6  98100462.42243  23957150.094                    23957160.098
 11  7 28 19 20 30.0000000  0 12G08G24G07G17G28G26G19G03G11G10G13G23
 112827406.469 8  87917552.44145  21470348.641                    21470356.098
 124385612.985 6  96923785.23243  23669752.391                    23669765.082
 107398602.757 8  83687255.87146  20437273.781                    20437280.898
 130735086.538 6 101871583.46543  24878064.953                    24878079.055
 119243264.375 7  92916871.72445  22691226.406                    22691233.602
 130292356.59115                  24793836.664
 115473918.727 7  89979701.25545  21973957.000                    21973961.863
 126707015.350 5  98732765.02742  24111550.328                    24111559.402
 116727660.565 7  90956519.80444  22212486.984                    22212495.273
 134646439.981 5 104919311.82943  25622379.430                    25622393.762
 115003827.019 7  89613393.14045  21884506.133                    21884514.406
 126010547.549 6  98190040.58443  23979026.867                    23979035.953
 11  7 28 19 21  0.0000000  0 12G08G24G07G17G28G26G19G03G11G10G13G23
 112759899.218 8  87864949.41745  21457501.797                    21457509.598
 124311088.387 6  96865714.24543  23655571.586                    23655583.793
 107374941.404 8  83668818.44546  20432771.109                    20432778.031
 130629031.765 6 101788943.55943  24857883.289                    24857897.129
 119205972.130 7  92887812.86745  22684129.602                    22684137.320
 130193051.65014                  24774938.273
 115549163.786 7  90038333.74745  21988275.969                    21988280.848
 126817153.186 5  98818586.63742  24132508.266                    24132518.277
 116670764.456 7  90912185.23244  22201660.023                    22201668.152
 134706790.531 5 104966338.08242  25633863.461                    25633878.352
 115099483.163 7  89687930.32445  21902708.141                    21902716.742
 126125540.116 6  98279644.93843  24000908.625                    24000919.070
 11  7 28 19 21 30.0000000  0 12G08G24G07G17G28G26G19G03G11G10G13G23
 112692532.554 8  87812455.93345  21444682.766                    21444690.164
 124236645.448 6  96807706.90743  23641404.500                    23641417.121
 107351611.771 8  83650639.51846  20428331.742                    20428338.680
 130523051.653 6 101706361.80843  24837715.500                    24837729.730
 119168826.663 7  92858868.39345  22677061.055                    22677068.563
 130094033.64414                  24756096.672
 115624819.208 7  90097286.00445  22002672.367                    22002678.180
 126927387.535 5  98904483.39342  24153485.133                    24153495.191
 116614239.160 7  90868139.60344  22190903.820                    22190911.602
 134767098.369 6 105013331.00742  25645340.359                    25645355.047
 115195452.369 7  89762711.44245  21920971.328                    21920979.223
 126240563.636 6  98369273.42843  24022797.352                    24022807.402
 11  7 28 19 22  0.0000000  0 12G08G24G07G17G28G26G19G03G11G10G13G23
 112625308.895 8  87760073.88246  21431890.148                    21431898.016
 124162287.245 6  96749765.57243  23627255.055                    23627266.898
 107328615.755 8  83632720.53846  20423955.758                    20423962.582
 130417148.056 6 101623839.72143  24817562.859                    24817577.211
 119131827.340 7  92830037.78845  22670020.289                    22670028.008
 129995305.96214                  24737307.930
 115700882.207 7  90156555.84545  22017146.461                    22017152.137
 127037715.828 5  98990453.42242  24174480.789                    24174489.926
 116558087.714 7  90824385.28144  22180218.883                    22180226.035
 134827360.902 6 105060288.68743  25656808.281                    25656822.863
 115291731.580 7  89837734.14645  21939292.680                    21939300.492
 126355615.205 6  98458923.72143  24044691.148                    24044701.285
 11  7 28 19 22 30.0000000  0 12G08G24G07G17G28G26G19G03G11G10G13G23
 112558230.216 8  87707804.80045  21419125.891                    21419133.453
 124088016.854 6  96691892.67443  23613122.695                    23613133.867
 107305955.287 8  83615063.03846  20419643.336                    20419650.555
 130311323.276 6 101541379.03943  24797424.195                    24797438.301
 119094973.330 7  92801320.39045  22663007.383                    22663014.355
 129896871.37415                  24718577.289
 115777350.454 7  90216141.47145  22031697.977                    22031703.680
 127148135.700 6  99076494.79142  24195492.680                    24195502.691
 116502312.677 7  90780924.27645  22169604.797                    22169612.301
 134887575.800 6 105107209.26342  25668267.297                    25668281.031
 115388318.013 7  89912996.23345  21957671.930                    21957680.391
 126470692.151 6  98548593.85243  24066589.148                    24066599.660
 11  7 28 19 23  0.0000000  0 12G08G24G07G17G28G26G19G03G11G10G13G23
 112491298.387 8  87655650.15446  21406389.469                    21406396.766
 124013837.191 7  96634090.44343  23599006.109                    23599017.672
 107283632.265 8  83597668.47346  20415396.000                    20415402.078
 130205579.446 6 101458981.42743  24777301.734                    24777316.594
 119058263.610 7  92772715.44744  22656021.641                    22656028.996
 129798732.89315                  24699903.273
 115854221.255 7  90276040.77245  22046325.883                    22046331.242
 127258644.630 6  99162605.59642  24216522.047                    24216532.070
 116446916.759 7  90737758.67945  22159063.352                    22159070.797
 134947739.857 6 105154090.15842  25679716.148                    25679730.457
 115485208.491 7  89988495.23745  21976109.984                    21976118.012
 126585791.666 6  98638281.57243  24088492.414                    24088502.875
 11  7 28 19 23 30.0000000  0 12G08G24G07G17G28G26G19G03G11G10G13G23
 112424515.325 8  87603611.42845  21393680.844                    21393688.465
 123939751.211 7  96576361.25743  23584908.422                    23584919.180
 107261647.910 8  83580537.81146  20411212.172                    20411219.422
 130099918.186 6 101376648.11843  24757195.203                    24757209.363
 119021697.114 7  92744222.08645  22649062.836                    22649070.430
 129700893.255 5                  24681285.328
 115931491.470 7  90336251.30345  22061029.797                    22061035.719
 127369240.032 6  99248783.74242  24237568.039                    24237577.035
 116391902.594 7  90694890.54545  22148594.688                    22148602.230
 135007850.389 6 105200929.44243  25691154.523                    25691168.594
 115582399.949 7  90064228.75845  21994605.016                    21994613.543
 126700910.697 6  98727984.42343  24110399.258                    24110409.605
 11  7 28 19 24  0.0000000  0 12G08G24G07G17G28G26G19G03G11G10G13G23
 112357883.232 8  87551690.33445  21381000.688                    21381008.594
 123865761.786 7  96518707.31143  23570828.203                    23570839.438
 107240003.746 8  83563672.22246  20407093.516                    20407100.105
 129994341.596 6 101294380.83343  24737104.031                    24737119.242
 118985272.919 7  92715839.61245  22642132.008                    22642139.563
 129603355.21815                  24662724.398
 116009158.297 7  90396770.89145  22075810.055                    22075815.059
 127479919.430 6  99335027.38342  24258628.961                    24258638.250
 116337272.674 7  90652321.82245  22138198.523                    22138206.426
 135067904.203 5 105247724.47242  25702582.766                    25702596.855
 115679888.513 7  90140193.79645  22013156.172                    22013164.895
 126816046.221 6  98817700.13143  24132309.063                    24132319.730
 11  7 28 19 24 30.0000000  0 12G08G24G07G17G28G26G19G03G11G10G13G23
 112291404.570 8  87499888.79646  21368350.180                    21368357.582
 123791872.491 7  96461131.31943  23556767.773                    23556779.461
 107218702.491 8  83547073.84446  20403039.852                    20403047.020
 129888852.703 6 101212181.87843  24717030.586                    24717045.207
 118948990.899 7  92687567.93445  22635227.516                    22635235.063
 129506122.17315                  24644220.867
 116087219.392 7  90457597.69045  22090664.281                    22090669.844
 127590680.435 6  99421334.64842  24279705.719                    24279715.328
 116283030.402 7  90610055.16444  22127876.297                    22127884.234
 135127900.349 6 105294474.58942  25713999.703                    25714013.941
 115777672.617 7  90216389.12245  22031764.406                    22031772.992
 126931195.994 6  98907426.96343  24154221.281                    24154232.293
 11  7 28 19 25  0.0000000  0 12G08G24G07G17G28G26G19G03G11G10G13G23
 112225081.250 8  87448208.30145  21355729.602                    21355737.234
 123718086.011 7  96403635.47843  23542726.266                    23542737.938
 107197745.493 8  83530743.71746  20399051.898                    20399058.777
 129783452.675 6 101130052.18643  24696973.070                    24696988.477
 118912849.660 7  92659405.94145  22628350.391                    22628357.152
 129409196.712 6                  24625778.227
 116165671.927 7  90518729.51645  22105593.414                    22105599.035
 127701520.403 6  99507703.40043  24300798.133                    24300807.430
 116229177.879 7  90568092.20445  22117628.633                    22117636.664
 135187835.854 6 105341177.43743  25725405.008                    25725419.145
 115875748.505 7  90292811.81445  22050427.742                    22050436.004
 127046357.172 6  98997162.68243  24176136.336                    24176146.910
 11  7 28 19 25 30.0000000  0 12G08G24G07G17G28G26G19G03G11G10G13G23
 112158915.296 8  87396650.43846  21343138.914                    21343146.363
 123644406.042 6  96346222.60543  23528705.500                    23528716.094
 107177134.701 8  83514683.35346  20395129.891                    20395136.770
 129678143.807 6 101047993.54043  24676934.055                    24676948.254
 118876848.591 7  92631353.19045  22621499.531                    22621506.836
 129312582.235 6                  24607392.328
 116244513.287 7  90580164.31745  22120596.273                    22120602.121
 127812436.920 5  99594131.78543  24321905.211                    24321915.160
 116175718.062 7  90526435.24545  22107455.742                    22107463.359
 135247707.426 5 105387830.43042  25736797.211                    25736813.102
 115974113.600 7  90369459.88144  22069145.930                    22069154.484
 127161527.000 6  99086905.15243  24198052.750                    24198062.801
 11  7 28 19 26  0.0000000  0 12G08G24G07G17G28G26G19G03G11G10G13G23
 112092908.557 8  87345216.63746  21330577.664                    21330585.273
 123570835.040 6  96288894.66143  23514705.813                    23514715.828
 107156871.515 8  83498893.85346  20391273.906                    20391280.773
 129572928.226 6 100966007.64442  24656911.000                    24656925.969
 118840986.691 7  92603408.89045  22614675.430                    22614682.266
 129216281.019 6                  24589066.297
 116323740.446 7  90641899.73745  22135672.852                    22135678.020
 127923427.412 5  99680617.76042  24343024.750                    24343035.941
 116122653.339 7  90485086.16545  22097357.773                    22097365.664
 135307512.314 5 105434431.66742  25748179.172                    25748193.984
 116072764.127 7  90446330.34045  22087918.219                    22087926.730
 127276702.449 6  99176651.96143  24219970.547                    24219980.441
 11  7 28 19 26 30.0000000  0 12G08G24G07G17G28G26G19G03G11G10G13G23
 112027063.678 8  87293908.96346  21318048.172                    21318055.246
 123497376.295 6  96231654.19143  23500725.914                    23500737.434
 107136958.146 8  83483376.94646  20387484.703                    20387491.266
 129467808.300 6 100884096.26542  24636907.398                    24636921.715
 118805263.172 7  92575572.42545  22607877.125                    22607884.160
 129120296.354 6 100613355.22852  24570800.031                    24570809.609
 116403350.722 7  90703933.70045  22150822.391                    22150827.941
 128034489.525 5  99767159.58642  24364160.000                    24364170.520
 116069986.659 7  90444047.23545  22087335.328                    22087343.602
 135367248.847 6                  25759546.516
 116171697.726 7  90523421.36545  22106745.289                    22106753.258
 127391881.221 6  99266401.38543  24241887.398                    24241898.949
 11  7 28 19 27  0.0000000  0 12G08G24G07G17G28G26G19G03G11G10G13G23
 111961382.417 8  87242728.77846  21305549.180                    21305556.449
 123424032.726 6  96174503.48743  23486769.492                    23486781.504
 107117396.044 8  83468133.75046  20383761.977                    20383768.801
 129362786.185 6 100802261.13843  24616922.805                    24616936.723
 118769677.122 7  92547843.06545  22601105.070                    22601113.090
 129024631.073 6 100538810.94942  24552596.648                    24552606.242
 116483341.356 7  90766264.03245  22166043.961                    22166049.488
 128145621.006 5  99853755.41152  24385307.016                    24385318.563
 116017720.496 7  90403320.39045  22077389.484                    22077397.344
 135426913.875 5                  25770899.641
 116270911.185 7  90600730.48545  22125624.648                    22125633.355
 127507059.974 6  99356150.77443  24263806.297                    24263816.406
 11  7 28 19 27 30.0000000  0 12G08G24G07G17G28G26G19G03G11G10G13G23
 111895867.628 8  87191678.30646  21293082.242                    21293089.918
 123350807.700 6  96117445.14343  23472835.297                    23472846.934
 107098187.351 8  83453165.92746  20380106.859                    20380113.500
 129257863.483 6 100720503.45743  24596955.820                    24596970.230
 118734227.900 7  92520220.32145  22594359.539                    22594366.762
 128929288.500 6 100464518.09742  24534453.508                    24534463.570
 116563710.016 7  90828888.94545  22181337.203                    22181342.801
 128256819.133 5                  24406468.555
 115965857.874 7  90362907.99345  22067519.898                    22067528.160
 135486505.381 6                  25782240.328
 116370401.936 7  90678255.65844  22144557.133                    22144565.781
 127622236.551 6  99445898.46543  24285723.500                    24285734.785
 11  7 28 19 28  0.0000000  0 12G08G24G07G17G28G26G19G03G11G10G13G23
 111830520.951 8  87140758.83546  21280646.922                    21280654.301
 123277704.057 6  96060481.40943  23458924.000                    23458935.191
 107079333.511 8  83438474.63246  20376518.789                    20376525.914
 129153042.379 6 100638824.97343  24577008.516                    24577022.637
 118698914.398 7  92492703.33545  22587639.859                    22587646.625
 128834271.498 6 100390478.92842  24516372.336                    24516383.352
 116644453.729 7  90891806.08845  22196702.234                    22196708.020
 128368081.600 5                  24427640.227
 115914401.129 7  90322811.86645  22057728.117                    22057736.109
 135546020.273 6                  25793565.984
 116470166.233 7  90755993.99045  22163541.922                    22163550.531
 127737407.649 6  99535641.86243  24307640.438                    24307651.070
 11  7 28 19 28 30.0000000  0 12G08G24G07G17G28G26G19G03G11G10G13G23
 111765344.460 8  87089971.96846  21268244.875                    21268251.902
 123204724.882 6  96003614.65243  23445035.352                    23445047.383
 107060836.285 8  83424061.21046  20372999.414                    20373005.844
 129048325.097 6 100557227.36943  24557082.063                    24557095.305
 118663735.848 7  92465291.51944  22580944.914                    22580951.934
 128739582.612 6 100316695.38842  24498353.758                    24498364.070
 116725569.440 7  90955013.11845  22212137.945                    22212143.949
 128479406.033 5                  24448825.406
 115863353.019 7  90283034.14044  22048014.234                    22048021.504
 135605455.972 6                  25804877.039
 116570201.251 7  90833943.25244  22182577.563                    22182586.566
 127852570.896 6  99625379.13643  24329555.063                    24329566.629
 11  7 28 19 29  0.0000000  0 12G08G24G07G17G28G26G19G03G11G10G13G23
 111700340.721 8  87039319.72146  21255875.016                    21255881.945
 123131873.569 6  95946847.53043  23431172.070                    23431184.645
 107042697.680 8  83409927.23946  20369547.258                    20369554.039
 128943713.819 6 100475712.38843  24537174.773                    24537188.512
 118628691.438 7  92437984.21845  22574276.398                    22574283.313
 128645225.041 6 100243170.09442  24480397.164                    24480407.828
 116807054.598 7  91018508.01045  22227643.969                    22227649.879
 128590790.123 5                  24470020.500
 115812716.382 7  90243577.07844  22038378.305                    22038385.844
 135664809.841 6                  25816170.742
 116670504.109 7  90912101.23445  22201664.703                    22201673.527
 127967723.751 6  99715108.34843  24351468.109                    24351479.227
 11  7 28 19 29 30.0000000  0 12G08G24G07G17G28G26G19G03G11G10G13G23
 111635511.776 8  86988803.68346  21243538.719                    21243545.496
 123059153.045 7  95890182.32243  23417334.320                    23417346.031
 107024919.449 8  83396074.07346  20366164.383                    20366171.148
 128839210.518 6 100394281.53543  24517288.188                    24517301.820
 118593780.348 7  92410780.80545  22567632.391                    22567640.297
 128551201.57616 100169905.08552  24462505.563                    24462515.953
 116888906.425 7  91082288.62345  22243220.875                    22243226.207
 128702231.279 5                  24491228.719
 115762493.283 7  90204442.22645  22028821.219                    22028828.953
 135724080.052 6                  25827450.703
 116771071.607 7  90990465.44444  22220802.852                    22220810.941
 128082863.546 6  99804827.39843  24373378.672                    24373389.598
 11  7 28 19 30  0.0000000  0 12G08G24G07G17G28G26G19G03G11G10G13G23
 111570859.774 8  86938425.51546  21231235.094                    21231242.535
 122986566.309 7  95833621.36043  23403521.219                    23403532.766
 107007502.986 8  83382502.81046  20362850.164                    20362857.008
 128734817.189 6 100312936.41643  24497422.250                    24497436.656
 118559001.522 7  92383680.44845  22561015.047                    22561022.414
 128457515.147 6 100096902.71742  24444677.367                    24444688.148
 116971122.024 7  91146352.71845  22258865.516                    22258871.000
 128813727.195 5                  24512445.172
 115712686.502 7  90165631.78745  22019343.391                    22019350.652
 135783263.482 5                  25838712.797
 116871900.622 7  91069033.41645  22239989.719                    22239998.043
 128197986.994 6  99894533.60443  24395286.008                    24395297.527
 11  7 28 19 30 30.0000000  0 12G08G24G07G17G28G26G19G03G11G10G13G23
 111506386.737 8  86888186.80846  21218966.336                    21218973.523
 122914116.347 7  95777166.96243  23389734.523                    23389745.941
 106990449.713 8  83369214.54346  20359604.719                    20359611.824
 128630535.881 6 100231678.55943  24477578.078                    24477591.910
 118524354.067 7  92356682.46945  22554421.805                    22554428.609
 128364168.417 6 100024165.06542  24426914.211                    24426925.141
 117053698.638 7  91210698.09545  22274579.148                    22274585.762
 128925275.414 5                  24533670.664
 115663298.499 7  90127147.65445  22009945.578                    22009952.809
 135842357.731 6                  25849957.438
 116972988.183 7  91147802.84444  22259226.211                    22259234.863
 128313091.632 6  99984225.23742  24417189.648                    24417200.961
 11  7 28 19 31  0.0000000  0 12G08G24G07G17G28G26G19G03G11G10G13G23
 111442095.058 8  86838089.41846  21206731.992                    21206739.328
 122841806.494 7  95720821.75644  23375974.828                    23375985.734
 106973761.796 8  83356210.97546  20356429.297                    20356436.195
 128526368.805 6 100150509.68143  24457755.938                    24457769.277
 118489837.325 7  92329786.32545  22547853.414                    22547860.074
 128271164.599 6  99951694.56042  24409216.102                    24409226.410
 117136633.563 7  91275322.66745  22290361.414                    22290367.223
 129036873.789 5                  24554907.297
 115614331.601 7  90088991.66945  22000626.805                    22000634.590
 135901360.387 5                  25861184.680
 117074331.297 7  91226771.41644  22278511.281                    22278519.426
 128428174.823 6 100073900.13742  24439090.266                    24439101.125
 11  7 28 19 31 30.0000000  0 12G08G24G07G17G28G26G19G03G11G10G13G23
 111377987.141 8  86788135.22946  21194532.680                    21194539.973
 122769639.980 7  95664588.21244  23362242.195                    23362253.109
 106957441.143 8  83343493.58346  20353323.492                    20353330.438
 128422318.297 6 100069431.64643  24437957.211                    24437968.539
 118455450.517 7  92302991.44645  22541309.875                    22541316.508
 128178506.569 6  99879493.59442  24391583.555                    24391594.484
 117219923.916 7  91340224.23745  22306210.578                    22306216.426
 129148519.940 5                  24576152.742
 115565788.762 7  90051166.12545  21991389.938                    21991397.484
 135960268.929 5                  25872395.508
 117175927.026 7  91305936.83244  22297844.219                    22297852.871
 128543233.973 6 100163556.33143  24460985.641                    24460996.152
 11  7 28 19 32  0.0000000  0 11G08G24G07G17G28G26G19G03G11G13G23
 111314065.140 8  86738325.89746  21182368.648                    21182375.930
 122697619.730 7  95608468.64543  23348536.453                    23348547.590
 106941489.628 8  83331063.83046  20350288.344                    20350294.965
 128318385.777 6  99988445.57243  24418177.055                    24418190.695
 118421192.781 7  92276297.13845  22534790.617                    22534797.957
 128086197.540 5  99807564.47142  24374018.422                    24374028.133
 117303567.223 7  91405400.80545  22322127.594                    22322133.762
 129260211.54315                  24597407.188
 115517672.811 7  90013673.21145  21982233.727                    21982241.102
 117277772.240 7  91385296.66044  22317224.758                    22317232.980
 128658266.651 6 100253191.80842  24482875.820                    24482886.949
 11  7 28 19 32 30.0000000  0 12G08G24G07G17G28G26G19G03G11G10G13G23
 111250331.544 8  86688663.36946  21170241.133                    21170247.813
 122625749.058 7  95552465.62543  23334860.422                    23334870.840
 106925908.731 8  83318922.86746  20347323.047                    20347330.105
 128214573.901 6  99907553.49343  24398422.992                    24398435.605
 118387063.143 7  92249702.64645  22528296.328                    22528303.453
 127994240.241 6  99735909.52642  24356518.367                    24356529.297
 117387560.384 7  91470849.98245  22338111.633                    22338117.215
 129371946.51414                  24618669.227
 115469986.460 7  89976515.05245  21973159.109                    21973166.457
 136077789.99816                  25894759.555
 117379864.124 7  91464848.68244  22336652.156                    22336660.898
 128773270.118 6 100342804.62042  24504758.953                    24504771.262
 11  7 28 19 33  0.0000000  0 12G08G24G07G17G28G26G19G03G11G10G13G23
 111186787.877 8  86639148.84746  21158148.961                    21158156.059
 122554030.610 6  95496581.23343  23321212.445                    23321223.250
 106910699.575 8  83307071.57746  20344428.883                    20344435.730
 128110884.200 6  99826756.64943  24378690.922                    24378703.742
 118353060.639 7  92223207.21645  22521825.813                    22521832.746
 127902637.276 6  99664530.59443  24339087.391                    24339098.020
 117471900.386 7  91536569.44445  22354160.773                    22354166.551
 129483721.97114                  24639939.633
 115422731.211 7  89939692.81845  21964166.836                    21964174.156
 136136401.324 4                  25905912.656
 117482199.013 7  91544590.06044  22356125.977                    22356135.102
 128888241.048 6 100432392.02943  24526639.234                    24526650.273
 11  7 28 19 33 30.0000000  0 12G08G24G07G17G28G26G19G03G11G10G13G23
 111123436.776 8  86589784.37146  21146093.227                    21146100.992
 122482467.852 7  95440818.12843  23307594.219                    23307604.949
 106895864.522 8  83295511.79546  20341605.641                    20341612.609
 128007319.036 6  99746056.79543  24358982.477                    24358995.355
 118319184.730 7  92196810.45745  22515379.398                    22515386.621
 127811391.730 5  99593430.28443  24321723.992                    24321734.410
 117556584.628 7  91602557.12745  22370275.391                    22370281.473
 129595535.70714                  24661217.992
 115375909.972 7  89903208.77945  21955256.859                    21955264.152
 136194908.76815                  25917045.891
 117584774.238 7  91624518.69044  22375645.766                    22375654.152
 129003177.176 5 100521952.36143  24548510.586                    24548521.906
 11  7 28 19 34  0.0000000  0 11G08G24G07G17G28G26G19G03G11G13G23
 111060280.608 8  86540571.78746  21134075.016                    21134082.125
 122411063.820 6  95385178.71743  23294006.992                    23294016.957
 106881404.938 8  83284244.58746  20338854.844                    20338861.262
 127903880.505 6  99665455.64843  24339298.680                    24339311.867
 118285434.422 7  92170511.54845  22508956.461                    22508963.723
 127720506.201 5  99522610.45942  24304429.023                    24304439.242
 117641610.440 7  91668810.97745  22386455.570                    22386461.238
 129707385.68115                  24682501.742
 115329525.107 7  89867064.76045  21946429.984                    21946437.082
 117687586.606 7  91704632.13944  22395210.273                    22395218.777
 129118075.926 6 100611483.42442  24570375.703                    24570386.488
 11  7 28 19 34 30.0000000  0 11G08G24G07G17G28G26G19G03G11G13G23
 110997321.631 8  86491512.84846  21122094.609                    21122101.563
 122339821.430 6  95329665.27443  23280449.633                    23280460.559
 106867322.624 8  83273271.35646  20336174.719                    20336181.605
 127800570.566 6  99584954.69343  24319639.648                    24319652.652
 118251808.663 7  92144309.69645  22502558.188                    22502565.617
 127629983.821 6  99452073.62943  24287203.125                    24287213.227
 117726974.897 7  91735328.70245  22402700.055                    22402705.141
 129819269.23214                  24703793.555
 115283578.986 7  89831262.63345  21937686.453                    21937693.809
 117790632.981 7  91784927.91844  22414819.492                    22414827.879
 129232934.548 6 100700983.37343  24592233.281                    24592243.676
 11  7 28 19 35  0.0000000  0 11G08G24G07G17G28G26G19G03G11G13G23
 110934562.081 8  86442609.31846  21110151.813                    21110159.129
 122268744.079 6  95274280.40243  23266924.063                    23266934.742
 106853619.234 8  83262593.39146  20333566.852                    20333573.793
 127697391.331 6  99504555.63643  24300004.750                    24300017.871
 118218306.864 7  92118204.41645  22496182.930                    22496190.145
 127539827.534 5  99381822.08443  24270047.586                    24270056.758
 117812675.360 7  91802108.27545  22419008.211                    22419013.680
 129931184.60914                  24725091.164
 115238074.355 7  89795804.52045  21929027.586                    21929035.234
 117893910.405 7  91865403.74344  22434472.539                    22434480.934
 129347750.073 6 100790449.67243  24614081.273                    24614093.379
 11  7 28 19 35 30.0000000  0 11G08G24G07G17G28G26G19G03G11G13G23
 110872004.071 8  86393862.82746  21098247.250                    21098254.695
 122197834.662 6  95219026.41643  23253429.938                    23253440.875
 106840296.439 8  83252211.99046  20331031.594                    20331038.617
 127594344.648 6  99424259.78743  24280396.367                    24280407.887
 118184928.083 7  92092194.99745  22489830.961                    22489837.840
 127450039.844 6  99311857.74943  24252960.680                    24252970.680
 117898708.780 7  91869147.27245  22435380.094                    22435385.762
 130043129.12114                  24746393.453
 115193013.421 7  89760692.14945  21920452.617                    21920459.934
 117997415.830 7  91946057.22144  22454168.828                    22454177.828
 129462520.424 6 100879880.77243  24635921.430                    24635933.625
 11  7 28 19 36  0.0000000  0 11G08G24G07G17G28G26G19G03G11G13G23
 110809649.931 8  86345275.20346  21086381.594                    21086389.105
 122127096.112 6  95163905.56144  23239968.422                    23239979.984
 106827355.377 8  83242128.04546  20328569.398                    20328575.828
 127491432.494 6  99344068.79643  24260812.148                    24260824.492
 118151671.153 7  92066280.53745  22483502.242                    22483509.129
 127360623.782 6  99242182.94743  24235945.406                    24235955.188
 117985071.957 7  91936443.24045  22451813.813                    22451819.656
 130155100.50415                  24767699.922
 115148398.816 7  89725927.57145  21911962.445                    21911969.648
 118101145.975 7  92026885.80644  22473908.109                    22473916.965
 129577242.536 6 100969274.27743  24657751.922                    24657764.996
 11  7 28 19 36 30.0000000  0 11G08G24G07G17G28G26G19G03G11G13G23
 110747502.047 8  86296848.29046  21074555.391                    21074562.793
 122056531.836 6  95108920.50043  23226540.648                    23226551.594
 106814798.288 8  83232343.30146  20326179.328                    20326186.117
 127388657.106 6  99263984.44143  24241254.633                    24241266.965
 118118535.639 7  92040460.66345  22477196.656                    22477203.637
 127271582.094 6  99172799.91043  24219001.070                    24219011.188
 118071762.674 7  92003994.41645  22468310.648                    22468316.152
 130267096.80714                  24789012.961
 115104232.588 7  89691512.35745  21903558.172                    21903565.141
 118205097.952 7  92107887.25044  22493689.961                    22493699.043
 129691914.122 6 101058628.40443  24679574.883                    24679586.223
 11  7 28 19 37  0.0000000  0 11G08G24G07G17G28G26G19G03G11G13G23
 110685562.967 8  86248584.09246  21062768.609                    21062776.148
 121986145.282 6  95054073.92843  23213146.547                    23213157.434
 106802627.125 8  83222859.28146  20323863.578                    20323870.215
 127286020.429 6  99184008.12844  24221723.047                    24221735.379
 118085520.810 7  92014734.84945  22470914.203                    22470921.504
 127182918.003 6  99103711.09543  24202129.148                    24202138.715
 118158778.115 7  92071798.62745  22484868.555                    22484875.109
 130379115.61114                  24810326.750
 115060517.711 7  89657448.86545  21895239.148                    21895246.887
 118309268.823 7  92189059.25444  22513512.789                    22513521.645
 129806532.411 6 101147940.94543  24701385.805                    24701398.113
 11  7 28 19 37 30.0000000  0 10G08G24G07G17G28G26G19G11G13G23
 110623834.471 8  86200483.98146  21051022.313                    21051029.656
 121915939.044 6  94999367.83643  23199787.016                    23199797.973
 106790842.679 8  83213676.59446  20321620.664                    20321627.629
 127183524.628 6  99104141.59043  24202217.891                    24202230.785
 118052625.359 7  91989102.04745  22464653.766                    22464661.453
 127094633.883 6  99034918.34143  24185328.609                    24185338.629
 118246115.152 7  92139853.41745  22501488.594                    22501495.039
 115017256.102 7  89623738.56445  21887007.367                    21887014.609
 118413655.205 7  92270399.18044  22533377.258                    22533386.109
 129921094.600 6 101237209.84343  24723186.352                    24723198.914
 11  7 28 19 38  0.0000000  0 10G08G24G07G17G28G26G19G11G13G23
 110562319.666 8  86152550.38346  21039316.656                    21039323.102
 121845916.960 6  94944805.24543  23186461.797                    23186473.258
 106779447.660 8  83204797.36046  20319452.313                    20319459.273
 127081172.046 6  99024386.62043  24182740.820                    24182753.547
 118019849.165 7  91963562.17945  22458417.414                    22458424.238
 127006733.113 6  98966424.33443  24168602.031                    24168612.078
 118333771.632 7  92208157.12445  22518169.953                    22518175.652
 114974450.343 7  89590383.48845  21878861.758                    21878868.613
 118518254.700 7  92351905.18244  22553281.359                    22553290.578
 130035598.609 6 101326433.31043  24744976.469                    24744988.500
 11  7 28 19 38 30.0000000  0 10G08G24G07G17G28G26G19G11G13G23
 110501020.138 8  86104784.53146  21027651.406                    21027658.563
 121776081.474 7  94890388.08344  23173173.086                    23173183.594
 106768442.293 8  83196221.74546  20317358.086                    20317365.156
 126978963.901 6  98944744.15844  24163290.688                    24163303.660
 117987190.624 7  91938113.99445  22452202.680                    22452210.129
 126919217.878 6  98898230.69443  24151948.500                    24151957.977
 118421743.884 7  92276706.89845  22534910.234                    22534915.801
 114932102.328 7  89557385.07945  21870802.578                    21870809.883
 118623063.321 7  92433574.13044  22573226.078                    22573235.301
 130150041.373 6 101415609.06842  24766753.508                    24766767.070
 11  7 28 19 39  0.0000000  0 10G08G24G07G17G28G26G19G11G13G23
 110439938.409 8  86057188.39846  21016028.078                    21016035.246
 121706435.569 7  94836118.61844  23159919.531                    23159930.656
 106757828.881 8  83187951.55146  20315338.766                    20315345.355
 126876902.510 6  98865216.07644  24143869.117                    24143881.625
 117954649.012 7  91912756.91545  22446009.977                    22446017.355
 126832091.091 6  98830339.80843  24135369.039                    24135377.984
 118510029.192 7  92345500.61645  22551710.141                    22551716.426
 114890214.591 7  89524745.33445  21862831.766                    21862839.148
 118728077.935 7  92515403.59844  22593209.773                    22593218.734
 130264420.319 6 101504735.10242  24788518.781                    24788532.730
 11  7 28 19 39 30.0000000  0 10G08G24G07G17G28G26G19G11G13G23
 110379076.933 8  86009763.89146  21004446.398                    21004453.684
 121636982.468 7  94781999.38743  23146703.242                    23146713.430
 106747609.232 8  83179988.18146  20313394.008                    20313401.055
 126774990.278 6  98785804.19344  24124476.453                    24124488.262
 117922223.697 7  91887490.46745  22439839.578                    22439846.422
 126745355.573 6  98762753.72042  24118863.406                    24118872.871
 118598625.158 7  92414536.38845  22568569.414                    22568575.203
 114848789.450 7  89492466.04845  21854948.711                    21854956.020
 118833296.108 7  92597391.66344  22613232.242                    22613241.074
 130378733.209 6 101593809.58242  24810273.555                    24810285.977
 11  7 28 19 40  0.0000000  0 10G08G24G07G17G28G26G19G11G13G23
 110318437.355 8  85962512.28646  20992906.711                    20992914.168
 121567725.117 6  94728032.73944  23133523.273                    23133533.797
 106737784.414 8  83172332.47946  20311524.539                    20311531.141
 126673228.343 6  98706509.43143  24105111.000                    24105123.504
 117889913.549 7  91862313.75945  22433691.156                    22433698.367
 126659014.199 6  98695474.80743  24102433.469                    24102442.652
 118687528.494 7  92483811.68745  22585486.906                    22585492.859
 114807829.168 7  89460548.99145  21847154.305                    21847161.254
 118938714.413 7  92679535.68744  22633293.125                    22633302.043
 130492976.843 6 101682830.17642  24832014.125                    24832026.402
 11  7 28 19 40 30.0000000  0 10G08G24G07G17G28G26G19G11G13G23
 110258022.714 8  85915435.95846  20981410.125                    20981417.672
 121498667.076 7  94674221.35644  23120381.906                    23120392.406
 106728356.347 8  83164985.92146  20309730.461                    20309736.957
 126571619.178 6  98627333.70743  24085774.961                    24085787.344
 117857718.075 7  91837226.40245  22427564.516                    22427571.863
 126573069.609 6  98628505.04942  24086078.156                    24086087.867
 118776736.702 7  92553324.55245  22602463.492                    22602468.922
 114767336.062 7  89428995.96045  21839448.445                    21839455.773
 119044329.917 7  92761833.37144  22653391.250                    22653399.918
 130607148.855 5 101771794.93242  24853740.398                    24853753.375
 11  7 28 19 41  0.0000000  0 10G08G24G07G17G28G26G19G11G13G23
 110197835.255 8  85868536.64846  20969957.023                    20969964.270
 121429811.202 7  94620567.55843  23107279.273                    23107290.012
 106719326.518 7  83157949.69246  20308011.797                    20308018.656
 126470164.907 6  98548278.70643  24066469.398                    24066481.195
 117825636.175 7  91812227.55245  22421459.641                    22421466.855
 126487524.721 6  98561846.76442  24069800.000                    24069809.070
 118866246.608 7  92623072.51045  22619496.031                    22619502.340
 114727312.358 7  89397808.69845  21831832.109                    21831840.043
 119150139.143 7  92844282.01344  22673525.375                    22673534.816
 130721246.899 6 101860702.00842  24875453.500                    24875465.633
 11  7 28 19 41 30.0000000  0 10G08G24G07G17G28G26G19G11G13G23
 110137877.240 8  85821816.12946  20958547.609                    20958554.605
 121361160.508 6  94567073.61744  23094214.961                    23094226.805
 106710696.335 8  83151224.86046  20306369.734                    20306376.344
 126368867.535 6  98469345.89044  24047192.656                    24047204.387
 117793667.132 7  91787316.64645  22415375.758                    22415383.199
 126402382.178 6  98495501.95543  24053596.773                    24053606.984
 118956055.668 7  92693053.54445  22636586.141                    22636592.258
 114687760.096 7  89366988.79245  21824305.711                    21824312.715
 119256139.103 7  92926879.26844  22693696.664                    22693706.176
 130835268.442 5 101949549.54742  24897150.594                    24897163.883
 11  7 28 19 42  0.0000000  0 10G08G24G07G17G28G26G19G11G13G23
 110078151.468 8  85775276.58246  20947181.539                    20947189.180
 121292718.402 7  94513742.21243  23081191.344                    23081202.281
 106702467.611 8  83144812.86946  20304803.828                    20304810.336
 126267728.857 6  98390536.73943  24027946.531                    24027958.348
 117761810.225 7  91762493.10745  22409313.930                    22409320.773
 126317644.828 6  98429472.88543  24037471.547                    24037482.359
 119046160.823 7  92763265.31645  22653732.219                    22653739.047
 114648681.704 7  89336538.11345  21816869.680                    21816876.648
 119362327.278 7  93009623.17544  22713903.555                    22713912.711
 130949210.869 6 102038335.33242  24918833.563                    24918846.641
 11  7 28 19 42 30.0000000  0 10G08G24G07G17G28G26G19G11G13G23
 110018659.808 7  85728919.45046  20935860.891                    20935868.527
 121224487.575 6  94460575.46443  23068207.125                    23068217.691
 106694641.502 8  83138714.60046  20303314.539                    20303321.316
 126166750.949 6  98311852.86943  24008730.492                    24008742.883
 117730064.318 7  91737756.07945  22403272.602                    22403279.871
 126233315.320 6  98363761.67843  24021423.984                    24021434.637
 119136559.390 7  92833705.70345  22670935.328                    22670941.566
 114610079.282 7  89306458.36345  21809523.508                    21809530.758
 119468700.137 7  93092511.01144  22734145.891                    22734155.457
 131063071.506 6 102127057.47842  24940501.008                    24940514.352
 11  7 28 19 43  0.0000000  0 10G08G24G07G17G28G26G19G11G13G23
 109959404.443 8  85682746.45746  20924585.000                    20924592.273
 121156471.270 7  94407575.85043  23055264.094                    23055275.047
 106687219.878 8  83132931.51246  20301901.664                    20301908.758
 126065935.861 6  98233295.81443  23989546.211                    23989558.012
 117698428.954 7  91713105.17845  22397253.070                    22397259.664
 126149396.531 6  98298370.47043  24005455.617                    24005465.578
 119227248.637 7  92904372.59845  22688193.141                    22688199.309
 114571954.983 7  89276751.13545  21802268.820                    21802275.988
 119575254.723 7  93175540.43044  22754422.836                    22754431.727
 131176847.934 6 102215713.96042  24962152.992                    24962165.883
 11  7 28 19 43 30.0000000  0 10G08G24G07G17G28G26G19G11G13G23
 109900388.128 8  85636759.72646  20913355.086                    20913361.836
 121088672.670 6  94354745.87143  23042362.625                    23042372.957
 106680204.210 8  83127464.74946  20300566.953                    20300573.457
 125965285.436 6  98154867.10044  23970393.164                    23970404.238
 117666903.007 7  91688539.52545  22391253.734                    22391260.406
 126065890.972 6  98233301.25043  23989564.656                    23989575.164
 119318225.793 7  92975263.83245  22705504.930                    22705511.008
 114534311.043 7  89247418.22645  21795105.273                    21795112.117
 119681987.811 7  93258708.94744  22774734.039                    22774742.703
 131290537.703 6 102304302.89242  24983786.656                    24983800.344
 11  7 28 19 44  0.0000000  0 10G08G24G07G17G28G26G19G11G13G23
 109841613.092 8  85590961.01746  20902170.305                    20902177.320
 121021095.001 6  94302088.05043  23029503.133                    23029513.262
 106673595.926 8  83122315.43346  20299308.891                    20299316.102
 125864801.581 7  98076568.16844  23951271.258                    23951283.113
 117635485.591 7  91664058.46245  22385275.398                    22385282.230
 125982801.448 6  98168556.24943  23973753.484                    23973763.594
 119409487.734 7  93046376.99445  22722871.781                    22722877.641
 114497149.626 7  89218461.31245  21788033.617                    21788040.895
 119788896.441 7  93342014.25844  22795077.844                    22795086.809
 131404138.137 6 102392822.30742  25005404.484                    25005418.195
 11  7 28 19 44 30.0000000  0 10G08G24G07G17G28G26G19G11G13G23
 109783081.840 8  85545352.26046  20891031.539                    20891039.398
 120953741.061 7  94249604.56344  23016684.789                    23016696.457
 106667396.334 8  83117484.58446  20298129.883                    20298137.180
 125764486.405 7  97998400.62943  23932181.602                    23932193.332
 117604176.080 7  91639661.47545  22379316.727                    22379323.844
 125900130.394 6  98104137.31943  23958022.406                    23958031.617
 119501031.787 7  93117709.99345  22740292.391                    22740297.918
 114460472.792 7  89189881.98245  21781054.109                    21781061.012
 119895977.196 7  93425453.67544  22815454.953                    22815463.762
 131517646.824 6 102481270.17542  25027005.594                    25027018.289
 11  7 28 19 45  0.0000000  0 10G08G24G07G17G28G26G19G11G13G23
 109724796.925 8  85499935.46946  20879940.758                    20879948.121
 120886614.208 6  94197297.99444  23003911.859                    23003922.254
 106661607.523 8  83112973.82046  20297028.305                    20297035.230
 125664342.042 7  97920366.24844  23913125.602                    23913136.203
 117572973.704 7  91615347.97745  22373379.453                    22373386.094
 125817881.117 6  98040047.01743  23942370.656                    23942379.824
 119592855.156 7  93189260.63045  22757765.344                    22757771.387
 114424282.938 7  89161682.12845  21774167.422                    21774174.547
 120003227.424 7  93509025.15444  22835863.672                    22835872.633
 131631061.248 6 102569644.59742  25048586.930                    25048601.121
 11  7 28 19 45 30.0000000  0 10G08G24G07G17G28G26G19G11G13G23
 109666760.299 8  85454712.14146  20868896.594                    20868904.223
 120819717.267 7  94145170.61644  22991181.641                    22991192.109
 106656230.257 8  83108783.73946  20296004.906                    20296011.930
 125564370.433 6  97842466.45344  23894100.656                    23894112.359
 117541877.395 7  91591117.11345  22367462.367                    22367469.180
 125736055.742 6  97976287.04743  23926799.055                    23926808.801
 119684954.812 7  93261026.56844  22775291.664                    22775297.309
 114388581.495 7  89133862.85245  21767373.523                    21767380.609
 120110643.815 7  93592726.10244  22856304.078                    22856313.457
 131744378.983 5 102657943.69742  25070152.063                    25070165.402
 11  7 28 19 46  0.0000000  0 10G08G24G07G17G28G26G19G11G13G23
 109608974.708 8  85409684.41946  20857900.297                    20857907.629
 120753053.513 7  94093224.92244  22978495.492                    22978506.328
 106651266.396 8  83104915.79046  20295060.648                    20295067.285
 125464572.938 6  97764702.36844  23875109.844                    23875121.438
 117510886.563 7  91566968.43845  22361564.625                    22361571.633
 125654657.045 6  97912859.57843  23911309.273                    23911319.043
 119777328.333 7  93333005.90944  22792869.539                    22792875.676
 114353370.989 7  89106426.13945  21760673.391                    21760680.645
 120218223.731 7  93676554.48244  22876776.305                    22876785.824
 131857597.820 6 102746165.69342  25091696.672                    25091711.539
 11  7 28 19 46 30.0000000  0 10G08G24G07G17G28G26G19G11G13G23
 109551442.291 8  85364853.97546  20846952.055                    20846959.871
 120686625.772 6  94041463.13244  22965855.539                    22965866.199
 106646717.112 8  83101370.89646  20294194.953                    20294201.648
 125364952.046 6  97687075.86243  23856152.633                    23856163.871
 117480000.054 7  91542901.06045  22355686.867                    22355694.168
 125573687.787 6  97849766.78343  23895901.672                    23895911.082
 119869972.504 7  93405196.11544  22810499.258                    22810505.164
 114318653.285 7  89079373.41045  21754066.773                    21754073.824
 120325963.481 7  93760507.39644  22897278.531                    22897287.930
 131970714.773 6 102834308.37742  25113222.031                    25113237.367
 11  7 28 19 47  0.0000000  0 10G08G24G07G17G28G26G19G11G13G23
 109494165.706 8  85320222.89246  20836052.914                    20836060.270
 120620437.426 7  93989887.85644  22953259.508                    22953270.461
 106642584.338 8  83098150.55146  20293408.281                    20293415.227
 125265509.781 6  97609588.55743  23837228.930                    23837240.063
 117449217.523 7  91518914.69745  22349829.352                    22349836.563
 125493150.757 6  97787010.69743  23880576.477                    23880585.844
 119962884.598 7  93477595.10644  22828179.938                    22828185.727
 114284430.663 7  89052706.45545  21747554.188                    21747561.688
 120433860.350 7  93844582.74844  22917810.750                    22917820.262
 132083727.947 6 102922370.14042  25134729.047                    25134743.445
 11  7 28 19 47 30.0000000  0 10G08G24G07G17G28G26G19G11G13G23
 109437147.333 8  85275793.00646  20825202.328                    20825210.141
 120554491.505 7  93938501.52544  22940710.539                    22940720.965
 106638869.278 8  83095255.69246  20292701.008                    20292707.688
 125166247.790 6  97532241.76644  23818340.078                    23818351.340
 117418537.861 7  91495008.49645  22343990.922                    22343998.289
 125413048.474 6  97724593.42543  23865332.727                    23865342.402
 120056062.076 7  93550200.90544  22845910.953                    22845917.129
 114250704.887 7  89026426.66145  21741136.719                    21741143.938
 120541911.178 7  93928778.07144  22938372.414                    22938381.867
 132196634.459 5 103010348.86542  25156213.422                    25156228.270
 11  7 28 19 48  0.0000000  0 10G08G24G07G17G28G26G19G11G13G23
 109380389.837 8  85231566.39546  20814402.250                    20814409.266
 120488791.260 6  93887306.56944  22928208.805                    22928219.297
 106635573.293 7  83092687.39446  20292074.141                    20292080.840
 125067168.045 6  97455036.93244  23799485.234                    23799497.215
 117387960.424 7  91471181.94445  22338172.641                    22338179.641
 125333383.441 6  97662516.86443  23850172.984                    23850182.152
 120149501.931 7  93623011.14845  22863691.906                    22863698.195
 114217478.184 7  89000535.74345  21734813.828                    21734821.254
 120650112.743 7  94013090.83143  22958962.586                    22958972.039
 132309432.273 5 103098242.86542  25177679.031                    25177693.781
 11  7 28 19 48 30.0000000  0 10G08G24G07G17G28G26G19G11G13G23
 109323894.994 8  85187544.45246  20803651.414                    20803659.000
 120423339.497 6  93836305.28244  22915752.938                    22915763.770
 106632697.801 8  83090446.74246  20291527.008                    20291533.891
 124968272.447 6  97377975.61244  23780666.398                    23780677.570
 117357484.105 7  91447434.18145  22332372.750                    22332379.891
 125254158.404 6  97600783.12743  23835096.797                    23835106.332
 120243201.284 7  93696023.56945  22881522.508                    22881529.254
 114184751.993 7  88975034.83545  21728586.031                    21728593.395
 120758462.263 7  94097518.90744  22979580.656                    22979589.949
 132422118.661 5 103186050.02242  25199124.602                    25199138.227
 11  7 28 19 49  0.0000000  0 10G08G24G07G17G28G26G19G11G13G23
 109267665.487 8  85143729.25946  20792951.508                    20792958.816
 120358139.057 6  93785499.82144  22903345.266                    22903356.660
 106630243.869 8  83088534.58246  20291060.164                    20291067.043
 124869562.773 6  97301059.16944  23761881.938                    23761893.469
 117327108.252 7  91423764.69645  22326592.430                    22326599.277
 125175375.775 6  97539394.13243  23820105.125                    23820114.582
 120337157.148 7  93769235.89145  22899402.461                    22899408.195
 114152528.805 7  88949925.87645  21722454.422                    21722461.594
 120866956.327 7  94182059.57644  23000226.813                    23000235.668
 132534691.206 5 103273768.51942  25220544.898                    25220560.270
 11  7 28 19 49 30.0000000  0 10G08G24G07G17G28G26G19G11G13G23
 109211703.826 8  85100122.78346  20782302.367                    20782309.613
 120293193.343 6  93734892.83344  22890986.688                    22890997.367
 106628213.359 8  83086952.36146  20290673.719                    20290680.793
 124771041.299 6  97224289.39144  23743134.266                    23743145.402
 117296832.342 7  91400173.10745  22320831.273                    22320838.215
 125097038.346 6  97478352.06643  23805198.773                    23805207.594
 120431366.902 7  93842646.06744  22917329.258                    22917335.180
 114120810.556 7  88925210.38745  21716418.555                    21716425.414
 120975592.104 7  94266710.68544  23020899.508                    23020908.648
 132647147.880 6 103361396.73243  25241946.227                    25241959.895
 11  7 28 19 50  0.0000000  0 10G08G24G07G17G28G26G19G11G13G23
 109156012.736 8  85056727.14346  20771704.758                    20771712.316
 120228505.428 7  93684486.73744  22878677.914                    22878687.469
 106626607.788 8  83085701.26546  20290368.141                    20290374.621
 124672709.903 7  97147667.70044  23724422.313                    23724433.785
 117266655.545 7  91376658.74445  22315088.930                    22315096.121
 125019148.771 6  97417658.93043  23790375.914                    23790386.102
 120525828.013 7  93916252.07445  22935304.695                    22935311.199
 114089599.081 7  88900889.77345  21710478.883                    21710486.172
 121084366.603 7  94351469.91144  23041598.883                    23041608.402
 132759485.46316                  25263323.203
 11  7 28 19 50 30.0000000  0 10G08G24G07G17G28G26G19G11G13G23
 109100594.001 8  85013543.73146  20761158.781                    20761166.180
 120164078.027 7  93634283.63544  22866416.898                    22866427.324
 106625428.085 8  83084782.00946  20290143.914                    20290150.570
 124574570.296 7  97071195.45644  23705746.492                    23705757.168
 117236576.865 7  91353220.84045  22309364.883                    22309371.840
 124941709.390 6  97357316.61543  23775639.625                    23775649.227
 120620537.255 7  93990051.43544  22953326.875                    22953333.527
 114058896.114 7  88876965.41245  21704636.023                    21704643.660
 121193276.265 7  94436334.41243  23062323.469                    23062333.063
 132871702.311 6                  25284677.375
 11  7 28 19 51  0.0000000  0 10G08G24G07G17G28G26G19G11G13G23
 109045450.617 8  84970574.87346  20750665.430                    20750672.605
 120099914.389 7  93584286.08343  22854207.359                    22854217.281
 106624675.782 8  83084195.78546  20290000.742                    20290007.336
 124476624.270 7  96994874.03844  23687108.148                    23687119.254
 117206595.334 7  91329858.61845  22303659.734                    22303666.238
 124864722.720 6  97297327.08543  23760988.672                    23760999.219
 120715492.148 7  94064042.21544  22971396.398                    22971402.891
 114028703.505 7  88853438.72545  21698891.195                    21698898.332
 121302318.807 7  94521302.48743  23083074.156                    23083083.184
 132983795.756 6                  25306006.773
 11  7 28 19 51 30.0000000  0 10G08G24G07G17G28G26G19G11G13G23
 108990584.645 8  84927822.18346  20740224.633                    20740231.961
 120036017.617 7  93534496.47444  22842048.031                    22842058.332
 106624352.086 8  83083943.54546  20289939.141                    20289945.652
 124378873.742 7  96918704.98044  23668506.836                    23668517.934
 117176710.420 8  91306571.69945  22297972.844                    22297979.730
 124788191.364 6  97237692.31143  23746426.313                    23746435.535
 120810689.714 7  94138222.11745  22989512.016                    22989518.500
 113999023.208 7  88830311.23745  21693242.742                    21693249.773
 121411490.552 7  94606371.21743  23103848.625                    23103857.973
 133095763.934 6                  25327315.477
 11  7 28 19 52  0.0000000  0 10G08G24G07G17G28G26G19G11G13G23
 108935998.537 8  84885287.56946  20729837.242                    20729844.520
 119972390.533 7  93484917.00444  22829940.555                    22829950.328
 106624458.361 8  83084026.35546  20289959.344                    20289966.016
 124281320.912 7  96842689.94944  23649942.461                    23649953.336
 117146921.032 7  91283359.22545  22292303.883                    22292311.605
 124712117.778 6  97178414.25343  23731949.195                    23731958.895
 120906127.146 7  94212588.90644  23007673.750                    23007679.699
 113969856.860 7  88807584.23045  21687693.102                    21687700.227
 121520788.454 7  94691538.25843  23124647.719                    23124657.395
 133207603.480 5                  25348596.609
 11  7 28 19 52 30.0000000  0 10G08G24G07G17G28G26G19G11G13G23
 108881695.094 8  84842973.21246  20719503.383                    20719511.133
 119909036.491 7  93435550.30044  22817884.695                    22817894.309
 106624996.133 8  83084445.39046  20290061.672                    20290067.863
 124183967.393 7  96766830.22544  23631416.500                    23631427.793
 117117226.787 7  91260220.87845  22286653.563                    22286660.453
 124636504.619 6  97119494.99543  23717560.727                    23717570.086
 121001801.690 7  94287140.45045  23025879.930                    23025885.816
 113941206.705 7  88785259.45945  21682240.797                    21682247.922
 121630209.930 7  94776801.58743  23145469.398                    23145479.652
 133319313.401 7                  25369855.438
 11  7 28 19 53  0.0000000  0 10G08G24G07G17G28G26G19G11G13G23
 108827676.794 8  84800881.03746  20709224.297                    20709231.531
 119845958.380 7  93386398.58844  22805880.789                    22805891.125
 106625966.419 8  83085201.45146  20290245.797                    20290252.891
 124086814.863 7  96691127.14044  23612929.727                    23612939.996
 117087626.562 7  91237155.79645  22281020.547                    22281027.426
 124561354.474 6  97060936.46643  23703260.367                    23703269.922
 121097710.499 7  94361874.53844  23044130.680                    23044136.754
 113913074.058 7  88763337.93745  21676887.703                    21676894.531
 121739751.538 7  94862158.50344  23166315.188                    23166325.207
 133430890.327 6                  25391087.367
 11  7 28 19 53 30.0000000  0 10G08G24G07G17G28G26G19G11G13G23
 108773945.654 8  84759012.63046  20698999.336                    20699006.824
 119783159.387 7  93337464.39344  22793930.602                    22793941.020
 106627370.837 8  83086295.80046  20290513.492                    20290520.215
 123989865.592 7  96615582.39544  23594480.547                    23594490.906
 117058119.997 7  91214163.69945  22275405.719                    22275412.754
 124486669.635 6  97002740.56243  23689048.117                    23689057.605
 121193850.779 7  94436789.01344  23062425.148                    23062431.738
 113885460.913 7  88741821.23545  21671633.180                    21671639.871
 121849410.291 7  94947606.71344  23187182.672                    23187192.594
 133542332.699 6                  25412294.563
 11  7 28 19 54  0.0000000  0 10G08G24G07G17G28G26G19G11G13G23
 108720503.997 8  84717369.79946  20688830.086                    20688837.344
 119720642.240 7  93288749.80444  22782033.852                    22782043.992
 106629210.300 8  83087729.13346  20290863.414                    20290870.160
 123893121.170 7  96540197.29344  23576070.031                    23576080.355
 117028706.181 7  91191243.87045  22269808.617                    22269815.230
 124412452.434 6  96944909.04043  23674926.117                    23674934.168
 121290219.892 7  94511881.79244  23080763.438                    23080770.285
 113858369.064 7  88720710.72945  21666477.352                    21666484.594
 121959182.905 7  95033143.65343  23208071.563                    23208081.504
 133653637.760 6                  25433475.570
 11  7 28 19 54 30.0000000  0 10G08G24G07G17G28G26G19G11G13G23
 108667354.300 8  84675954.46146  20678715.813                    20678722.941
 119658409.853 7  93240257.09944  22770191.414                    22770201.816
 106631486.121 8  83089502.49146  20291296.141                    20291303.004
 123796583.244 7  96464973.11744  23557699.828                    23557710.613
 116999383.923 7  91168395.38345  22264228.438                    22264235.465
 124338705.318 6  96887443.76843  23660891.461                    23660901.164
 121386815.115 7  94587150.74044  23099145.203                    23099150.844
 113831800.388 7  88700007.89445  21661421.273                    21661428.656
 122069066.489 7  95118767.05643  23228982.102                    23228991.824
 133764803.301 6                  25454630.031
 11  7 28 19 55  0.0000000  0 10G08G24G07G17G28G26G19G11G13G23
 108614499.745 8  84634769.10946  20668658.164                    20668665.004
 119596465.512 7  93191988.86444  22758403.680                    22758413.977
 106634199.956 8  83091617.16146  20291812.734                    20291819.918
 123700254.341 7  96389911.79944  23539368.516                    23539379.316
 116970153.077 7  91145618.12045  22258665.719                    22258672.547
 124265431.090 6  96830347.03843  23646947.781                    23646957.117
 121483633.505 7  94662593.59444  23117568.602                    23117575.496
 113805756.339 7  88679713.84945  21656465.602                    21656472.629
 122179058.413 7  95204474.88843  23249912.734                    23249922.949
 133875827.579 6                  25475757.938
 11  7 28 19 55 30.0000000  0 10G08G24G07G17G28G26G19G11G13G23
 108561942.383 8  84593815.33946  20658656.711                    20658663.820
 119534811.978 7  93143947.23744  22746671.281                    22746681.492
 106637352.784 8  83094073.90546  20292413.141                    20292419.902
 123604136.051 7  96315014.61844  23521077.461                    23521088.465
 116941012.777 7  91122911.42045  22253120.656                    22253127.676
 124192631.998 6  96773620.51743  23633094.273                    23633103.574
 121580672.403 7  94738208.26344  23136035.539                    23136041.621
 113780238.570 7  88659829.89945  21651609.242                    21651616.551
 122289155.380 7  95290264.55443  23270863.984                    23270873.828
 133986709.087 6                  25496857.078
 11  7 28 19 56  0.0000000  0 10G08G24G07G17G28G26G19G11G13G23
 108509684.958 8  84553095.27946  20648712.477                    20648719.715
 119473452.853 7  93096135.00944  22734994.922                    22735005.188
 106640946.289 8  83096874.02546  20293096.742                    20293103.520
 123508230.250 7  96240282.98744  23502826.914                    23502838.203
 116911962.466 7  91100274.86545  22247592.703                    22247599.711
 124120310.686 6  96717266.34543  23619332.109                    23619341.039
 121677929.549 7  94813993.02144  23154541.578                    23154548.734
 113755249.259 7  88640357.74245  21646853.969                    21646861.309
 122399354.581 7  95376133.89343  23291833.414                    23291844.090
 134097441.80715                  25517929.383
 11  7 28 19 56 30.0000000  0 10G08G24G07G17G28G26G19G11G13G23
 108457729.400 8  84512610.43746  20638825.281                    20638832.605
 119412390.318 7  93048553.87644  22723375.578                    22723385.457
 106644980.677 8  83100017.70246  20293864.672                    20293871.641
 123412538.293 7  96165717.99544  23484618.000                    23484628.559
 116883000.646 7  91077707.22945  22242081.188                    22242088.098
 124048469.016 6  96661285.87843  23605661.250                    23605670.191
 121775401.365 7  94889945.04144  23173091.273                    23173097.004
 113730789.039 7  88621297.85445  21642199.547                    21642206.844
 122509652.678 7  95462080.27143  23312822.938                    23312833.477
 134208029.124 5                  25538973.836
 11  7 28 19 57  0.0000000  0  9G08G24G07G17G28G26G19G11G13
 108406078.745 8  84472363.19546  20628996.539                    20629004.023
 119351628.293 7  93001206.92344  22711812.594                    22711822.285
 106649458.106 8  83103506.59446  20294716.352                    20294723.457
 123317062.740 7  96091321.64344  23466449.133                    23466459.684
 116854127.514 7  91055208.72145  22236587.023                    22236593.824
 123977110.103 6  96605681.56243  23592081.773                    23592090.828
 121873085.657 7  94966062.64544  23191679.563                    23191685.766
 113706860.420 7  88602652.21045  21637645.906                    21637653.344
 122620046.951 7  95548101.58943  23333830.570                    23333840.340
 11  7 28 19 57 30.0000000  0  9G08G24G07G17G28G26G19G11G13
 108354735.253 8  84432355.28946  20619226.203                    20619233.664
 119291169.390 7  92954096.17944  22700307.031                    22700317.563
 106654379.656 8  83107341.56046  20295652.984                    20295659.703
 123221805.164 7  96017095.12944  23448321.813                    23448332.770
 116825341.864 7  91032778.37545  22231108.930                    22231116.137
 123906236.156 7  96550455.16643  23578594.617                    23578604.102
 121970979.666 7  95042343.64844  23210308.422                    23210314.672
 113683465.096 7  88584422.11745  21633193.750                    21633201.418
 122730534.447 7  95634195.55243  23354855.953                    23354866.035
 11  7 28 19 58  0.0000000  0  9G08G24G07G17G28G26G19G11G13
 108303701.168 8  84392588.47246  20609515.023                    20609522.273
 119231016.328 7  92907223.73244  22688860.531                    22688871.410
 106659746.047 7  83111523.15246  20296674.000                    20296680.918
 123126767.325 7  95943039.84744  23430236.898                    23430247.336
 116796642.796 7  91010415.49645  22225647.836                    22225655.070
 123835849.151 7  96495608.21843  23565200.359                    23565209.898
 122069080.236 7  95118785.59844  23228976.328                    23228982.469
 113660604.085 7  88566608.38445  21628843.234                    21628851.051
 122841111.911 7  95720359.60543  23375898.359                    23375907.777
 11  7 28 19 58 30.0000000  0  9G08G24G07G17G28G26G19G11G13
 108252979.303 8  84353064.95846  20599862.484                    20599869.918
 119171172.139 7  92860591.97244  22677472.039                    22677482.395
 106665558.607 7  83116052.41346  20297780.391                    20297787.203
 123031950.709 7  95869156.93144  23412193.438                    23412204.133
 116768029.513 7  90988119.46345  22220203.414                    22220210.016
 123765951.572 7  96441142.63243  23551899.625                    23551908.621
 122167384.557 6  95195386.33444  23247682.617                    23247689.199
 113638279.049 7  88549212.26445  21624595.664                    21624602.250
 122951776.190 7  95806591.30143  23396956.945                    23396966.918
 11  7 28 19 59  0.0000000  0  9G08G24G07G17G28G26G19G11G13
 108202571.908 8  84313786.48146  20590270.500                    20590278.055
 119111639.789 7  92814203.20244  22666143.531                    22666153.984
 106671818.562 8  83120930.29746  20298971.203                    20298978.211
 122937357.104 7  95795447.79944  23394192.891                    23394203.586
 116739501.335 7  90965889.74345  22214774.016                    22214780.938
 123696545.604 7  96387060.10143  23538692.078                    23538701.102
 122265890.047 6  95272143.79544  23266427.570                    23266434.301
 113616491.556 7  88532235.04545  21620449.172                    21620456.422
 123062524.320 7  95892888.37443  23418031.461                    23418042.344
 11  7 28 19 59 30.0000000  0  9G08G24G07G17G28G26G19G11G13
 108152481.105 8  84274754.69146  20580738.688                    20580745.816
 119052422.080 7  92768059.59144  22654874.531                    22654884.945
 106678526.664 7  83126157.38146  20300247.875                    20300255.020
 122842988.334 7  95721913.84144  23376235.328                    23376245.488
 116711057.514 7  90943725.75245  22209361.281                    22209368.523
 123627633.397 7  96333362.32943  23525578.039                    23525587.617
 122364593.749 6  95349055.71244  23285211.039                    23285217.348
 113595242.647 7  88515677.47345  21616405.180                    21616413.313
 123173353.040 7  95979248.19643  23439121.906                    23439132.203
 11  7 28 20  0  0.0000000  0  9G08G24G07G17G28G26G19G11G13
 108102709.381 8  84235971.54346  20571267.273                    20571274.434
 118993521.920 7  92722163.44544  22643666.508                    22643676.547
 106685683.848 8  83131734.40346  20301610.172                    20301616.793
 122748845.844 7  95648556.21444  23358320.523                    23358330.750
 116682697.079 7  90921626.73645  22203964.648                    22203971.410
 123559217.212 6  96280051.07443  23512559.188                    23512568.367
 122463493.009 6  95426120.03444  23304030.883                    23304037.125
 113574533.895 7  88499540.81745  21612464.891                    21612472.332
 123284259.329 6  96065668.47843  23460227.820                    23460237.426
 11  7 28 20  0 30.0000000  0  9G08G24G07G17G28G26G19G11G13
 108053259.205 8  84197438.95346  20561857.422                    20561864.844
 118934942.127 7  92676516.94344  22632519.148                    22632529.273
 106693291.415 7  83137662.35946  20303057.391                    20303064.613
 122654931.734 7  95575376.54544  23340448.836                    23340459.250
 116654419.469 7  90899592.26045  22198583.367                    22198591.023
 123491299.280 6  96227128.05943  23499634.344                    23499643.832
 122562585.084 7  95503334.57344  23322887.430                    23322893.133
 113554367.037 7  88483826.40945  21608627.266                    21608634.219
 123395240.247 7  96152146.90343  23481346.219                    23481356.789
 11  7 28 20  1  0.0000000  0  9G08G24G07G17G28G26G19G11G13
 108004133.405 8  84159159.12346  20552508.828                    20552516.195
 118876685.920 7  92631122.54444  22621432.883                    22621442.914
 106701350.734 7  83143942.33846  20304591.258                    20304598.430
 122561247.949 7  95502376.34944  23322621.133                    23322631.805
 116626224.334 7  90877622.05445  22193218.477                    22193225.086
 123423882.119 7  96174595.24743  23486806.078                    23486814.879
 122661867.444 6  95580697.39544  23341780.367                    23341786.703
 113534743.663 7  88468535.49645  21604893.000                    21604900.215
 123506293.299 7  96238681.55743  23502478.727                    23502489.121
 11  7 28 20  1 30.0000000  0  9G08G24G07G17G28G26G19G11G13
 107955334.066 8  84121133.67246  20543222.648                    20543229.996
 118818755.851 7  92585982.30244  22610409.836                    22610419.289
 106709862.769 8  83150575.08846  20306211.086                    20306218.145
 122467795.987 7  95429556.79744  23304838.008                    23304847.961
 116598110.530 7  90855715.20945  22187868.156                    22187875.246
 123356967.918 6  96122454.35443  23474071.992                    23474081.293
 122761337.294 7  95658206.31844  23360708.336                    23360714.973
 113515664.944 7  88453668.98545  21601262.313                    21601269.766
 123617414.834 7  96325269.56443  23523624.484                    23523635.449
 11  7 28 20  2  0.0000000  0  9G08G24G07G17G28G26G19G11G13
 107906863.437 8  84083364.35646  20533999.148                    20534006.723
 118761154.839 7  92541098.45344  22599448.461                    22599457.578
 106718828.543 8  83157561.39646  20307917.063                    20307924.035
 122374577.476 7  95356919.16044  23287098.391                    23287108.730
 116570077.107 7  90833871.00045  22182533.891                    22182540.707
 123290558.619 6  96070706.89043  23461435.766                    23461444.336
 122860991.819 7  95735859.15644  23379672.219                    23379678.316
 113497132.078 7  88439227.82045  21597735.813                    21597742.891
 123728602.133 6  96411908.74443  23544783.523                    23544793.957
 11  7 28 20  2 30.0000000  0  9G08G24G07G17G28G26G19G11G13
 107858724.446 8  84045853.46046  20524838.547                    20524845.633
 118703886.385 7  92496473.73244  22588550.805                    22588560.016
 106728249.479 8  83164902.37046  20309710.000                    20309717.063
 122281594.191 7  95284464.80244  23269404.695                    23269414.969
 116542123.791 7  90812089.21245  22177214.203                    22177221.371
 123224656.586 6  96019354.68544  23448894.336                    23448903.563
 122960828.536 6  95813653.94044  23398670.703                    23398677.305
 113479146.702 7  88425213.26445  21594313.492                    21594320.867
 123839852.243 6  96498596.94243  23565953.727                    23565964.293
 11  7 28 20  3  0.0000000  0  9G08G24G07G17G28G26G19G11G13
 107810918.823 8  84008602.33846  20515741.336                    20515748.801
 118646952.441 7  92452109.67544  22577716.297                    22577725.957
 106738125.366 8  83172597.85946  20311589.383                    20311596.504
 122188847.797 7  95212195.04344  23251755.531                    23251765.680
 116514249.762 8  90790369.19045  22171910.375                    22171917.043
 123159263.729 6  95968399.26943  23436450.945                    23436459.535
 123060844.274 7  95891588.24044  23417703.094                    23417709.328
 113461709.804 7  88411626.09845  21590995.375                    21591001.969
 123951161.894 7  96585331.48843  23587135.367                    23587145.574
 11  7 28 20  3 30.0000000  0  9G08G24G07G17G28G26G19G11G13
 107763449.762 8  83971613.47046  20506708.445                    20506715.582
 118590356.460 7  92408008.96444  22566946.234                    22566955.973
 106748458.255 8  83180649.44846  20313555.938                    20313562.609
 122096340.396 6  95140111.52044  23234151.797                    23234161.844
 116486454.371 7  90768710.45545  22166620.734                    22166627.559
 123094382.633 7  95917842.59443  23424104.367                    23424113.023
 123161036.735 6  95969660.24144  23436769.414                    23436775.816
 113444823.100 7  88398467.64445  21587781.414                    21587788.918
 124062528.269 6  96672110.24943  23608328.773                    23608338.766
 11  7 28 20  4  0.0000000  0  9G08G24G07G17G28G26G19G11G13
 107716319.434 8  83934888.54946  20497739.750                    20497747.176
 118534101.264 7  92364173.79944  22556241.359                    22556250.922
 106759248.787 8  83189057.64246  20315609.141                    20315615.824
 122004073.294 7  95068215.23244  23216593.555                    23216603.535
 116458736.816 7  90747112.36545  22161346.859                    22161353.258
 123030015.069 6  95867686.09543  23411855.719                    23411864.758
 123261403.101 6  96047867.71744  23455868.328                    23455874.480
 113428487.563 7  88385738.68145  21584673.039                    21584680.016
 124173948.524 6  96758930.98343  23629531.078                    23629541.914
 11  7 28 20  4 30.0000000  0  9G08G24G07G17G28G26G19G11G13
 107669530.498 8  83898429.64946  20488835.727                    20488843.324
 118478189.735 7  92320606.41744  22545602.172                    22545611.770
 106770497.795 8  83197823.09446  20317750.008                    20317756.488
 121912048.496 7  94996507.75844  23199081.938                    23199091.637
 116431096.599 7  90725574.55145  22156086.727                    22156093.684
 122966163.351 6  95817931.56543  23399704.594                    23399713.617
 123361940.687 6  96126208.64244  23474999.602                    23475006.160
 113412704.595 7  88373440.27945  21581669.688                    21581676.746
 124285419.568 7  96845791.31743  23650742.836                    23650753.766
 11  7 28 20  5  0.0000000  0  9G08G24G07G17G28G26G19G11G13
 107623085.282 8  83862238.58046  20479997.836                    20480005.266
 118422624.766 7  92277309.09344  22535027.992                    22535038.113
 106782206.306 7  83206946.59746  20319977.891                    20319984.863
 121820267.578 7  94924990.29344  23181616.656                    23181626.750
 116403532.953 8  90704096.41245  22150841.242                    22150848.418
 122902829.462 6  95768580.53343  23387652.109                    23387661.824
 123462646.900 6  96204680.96544  23494163.656                    23494170.156
 113397475.668 7  88361573.59445  21578771.586                    21578778.766
 124396938.447 6  96932688.90643  23671965.773                    23671976.063
 11  7 28 20  5 30.0000000  0  9G08G24G07G17G28G26G19G11G13
 107576986.468 8  83826317.44346  20471225.195                    20471232.965
 118367409.149 7  92234284.00544  22524521.094                    22524530.324
 106794375.987 7  83216429.44646  20322293.406                    20322300.566
 121728732.216 7  94853664.17544  23164197.906                    23164207.719
 116376045.469 7  90682677.60845  22145610.273                    22145617.328
 122840015.921 6  95719634.95543  23375700.023                    23375708.402
 123563519.277 6  96283282.77144  23513358.570                    23513365.023
 113382801.834 7  88350139.45645  21575978.828                    21575986.531
 124508502.612 6  97019621.79243  23693194.516                    23693205.809
 11  7 28 20  6  0.0000000  0  9G08G24G07G17G28G26G19G11G13
 107531236.613 8  83790668.21346  20462519.469                    20462526.848
 118312545.663 7  92191533.29444  22514080.633                    22514090.766
 106807007.518 8  83226272.18446  20324697.578                    20324704.043
 121637444.183 7  94782530.77444  23146826.406                    23146835.734
 116348633.335 7  90661317.52345  22140394.719                    22140401.508
 122777724.794 6  95671096.48443  23363845.477                    23363854.980
 123664555.108 6  96362011.94244  23532586.047                    23532592.707
 113368684.316 7  88339138.81145  21573292.602                    21573299.629
 124620108.829 6  97106587.40543  23714432.266                    23714443.867
 11  7 28 20  6 30.0000000  0  9G08G24G07G17G28G26G19G11G13
 107485837.465 8  83755292.25746  20453880.664                    20453887.680
 118258036.818 7  92149058.91444  22503707.883                    22503718.109
 106820101.142 7  83236474.99046  20327189.070                    20327195.926
 121546405.082 7  94711591.34944  23129502.039                    23129512.063
 116321295.452 7  90640015.29445  22135192.617                    22135199.027
 122715957.398 6  95622966.07243  23352091.484                    23352100.688
 123765751.522 6  96440866.21044  23551842.578                    23551849.066
 113355124.124 7  88328572.43645  21570712.391                    21570719.527
 124731754.145 6  97193583.52043  23735678.086                    23735689.965
 11  7 28 20  7  0.0000000  0  9G08G24G07G17G28G26G19G11G13
 107440791.812 8  83720191.76546  20445308.414                    20445315.547
 118203885.791 7  92106863.36444  22493402.945                    22493413.523
 106833658.244 8  83247038.95446  20329768.742                    20329775.625
 121455616.748 7  94640847.31744  23112225.422                    23112235.371
 116294031.520 7  90618770.70445  22130004.039                    22130010.848
 122654716.171 6  95575245.70843  23340437.375                    23340446.934
 123867105.881 7  96519843.57644  23571129.617                    23571136.535
 113342122.570 7  88318441.38745  21568238.195                    21568245.281
 124843435.542 6  97280607.73543  23756930.969                    23756941.910
 11  7 28 20  7 30.0000000  0  9G08G24G07G17G28G26G19G11G13
 107396102.708 8  83685369.09546  20436804.063                    20436811.738
 118150095.790 7  92064949.13344  22483167.133                    22483177.219
 106847680.064 8  83257965.02846  20332437.211                    20332443.719
 121365080.766 7  94570299.91645  23094996.789                    23095006.770
 116266841.246 7  90597583.49745  22124830.375                    22124836.715
 122594003.452 6  95527937.11543  23328885.352                    23328893.660
 123968615.724 6  96598942.09644  23590446.375                    23590453.102
 113329680.951 8  88308746.62645  21565870.695                    21565877.914
 124955150.198 7  97367657.85943  23778189.547                    23778200.535
 11  7 28 20  8  0.0000000  0  9G08G24G07G17G28G26G19G11G13
 107351772.432 8  83650826.02746  20428369.000                    20428375.926
 118096669.254 7  92023318.12444  22473000.461                    22473010.375
 106862167.172 8  83269253.66746  20335193.992                    20335200.836
 121274798.806 7  94499950.46044  23077816.906                    23077826.699
 116239723.838 7  90576453.06945  22119669.305                    22119676.270
 122533821.119 6  95481041.84843  23317432.484                    23317441.445
 124070278.244 6  96678159.57844  23609792.930                    23609799.105
 113317800.221 7  88299488.91845  21563610.258                    21563616.980
 125066895.488 6  97454731.84243  23799454.180                    23799465.723
 11  7 28 20  8 30.0000000  0  9G08G24G07G17G28G26G19G11G13
 107307802.820 8  83616563.99846  20420001.938                    20420008.785
 118043608.678 7  91981972.27244  22462903.594                    22462913.465
 106877119.773 8  83280905.02546  20338039.289                    20338046.184
 121184771.905 7  94429799.76844  23060684.945                    23060694.457
 116212677.992 7  90555378.40245  22114522.688                    22114529.617
 122474170.618 6  95434560.96843  23306080.852                    23306090.406
 124172091.104 6  96757494.21244  23629167.023                    23629173.207
 113306481.094 7  88290668.83245  21561455.828                    21561462.926
 125178667.863 6  97541826.93343  23820723.711                    23820735.590
 11  7 28 20  9  0.0000000  0  9G08G24G07G17G28G26G19G11G13
 107264196.369 8  83582584.94846  20411703.680                    20411711.172
 117990917.029 7  91940913.88744  22452876.578                    22452886.137
 106892539.188 8  83292920.13446  20340973.430                    20340980.074
 121095002.519 7  94359849.72744  23043602.594                    23043612.188
 116185703.351 7  90534359.23145  22109389.586                    22109396.559
 122415054.302 6  95388496.34644  23294832.164                    23294840.926
 124274051.341 7  96836943.69944  23648568.680                    23648576.094
 113295724.738 7  88282287.26745  21559409.117                    21559416.055
 125290464.098 6  97628940.62143  23841998.156                    23842009.824
 11  7 28 20  9 30.0000000  0  9G08G24G07G17G28G26G19G11G13
 107220956.080 8  83548891.23146  20403475.133                    20403482.219
 117938597.478 7  91900145.44744  22442920.453                    22442930.559
 106908426.517 8  83305299.84946  20343996.898                    20344003.766
 121005491.784 7  94290101.23545  23026568.914                    23026578.609
 116158799.885 7  90513395.51545  22104270.008                    22104276.668
 122356473.999 6  95342849.38943  23283684.250                    23283693.063
 124376156.502 7  96916506.11944  23667999.242                    23668005.766
 113285532.430 7  88274345.22145  21557469.992                    21557476.316
 125402282.379 6  97716071.45843  23863276.422                    23863288.406
 11  7 28 20 10  0.0000000  0  9G08G24G07G17G28G26G19G11G13
 107178083.573 8  83515484.08546  20395316.813                    20395324.012
 117886652.203 7  91859668.66844  22433035.797                    22433045.180
 106924782.239 8  83318044.55946  20347108.734                    20347115.945
 120916241.198 7  94220555.45545  23009584.797                    23009594.984
 116131966.274 7  90492486.21745  22099164.258                    22099170.496
 122298431.576 6  95297621.58344  23272639.453                    23272648.145
 124478403.898 7  96996179.35244  23687456.680                    23687463.250
 113275905.228 8  88266843.51345  21555638.180                    21555644.902
 125514119.133 6  97803216.73843  23884558.609                    23884570.578
 11  7 28 20 10 30.0000000  0  9G08G24G07G17G28G26G19G11G13
 107135581.233 8  83482365.38846  20387229.047                    20387235.664
 117835083.966 7  91819485.67944  22423222.563                    22423232.063
 106941607.028 8  83331154.76546  20350311.125                    20350317.621
 120827252.574 7  94151213.77744  22992651.063                    22992660.746
 116105201.929 7  90471630.91145  22094070.906                    22094077.320
 122240928.829 6  95252814.29143  23261696.984                    23261705.926
 124580790.629 7  97075961.16244  23706939.555                    23706947.184
 113266843.647 7  88259782.55145  21553913.094                    21553920.457
 125625971.744 6  97890374.31043  23905844.430                    23905855.824
 11  7 28 20 11  0.0000000  0  9G08G24G07G17G28G26G19G11G13
 107093452.379 8  83449537.71646  20379211.742                    20379219.043
 117783895.823 7  91779598.85144  22413481.828                    22413490.859
 106958901.964 8  83344631.32846  20353601.766                    20353608.570
 120738527.624 7  94082077.56744  22975767.023                    22975776.875
 116078506.546 7  90450829.32745  22088990.961                    22088997.398
 122183967.908 7  95208429.20843  23250857.086                    23250866.000
 124683314.664 7  97155849.95944  23726450.047                    23726456.355
 113258349.112 7  88253163.44945  21552296.828                    21552303.813
 125737837.239 6  97977541.95143  23927130.375                    23927143.098
 11  7 28 20 11 30.0000000  0  9G08G24G07G17G28G26G19G11G13
 107051698.927 8  83417002.57046  20371266.672                    20371273.582
 117733090.280 7  91740010.16844  22403812.945                    22403823.301
 106976667.402 8  83358474.50546  20356982.977                    20356989.570
 120650067.699 7  94013147.86445  22958933.711                    22958943.281
 116051879.353 7  90430080.88645  22083923.828                    22083930.383
 122127550.338 7  95164467.50444  23240121.039                    23240130.406
 124785973.065 7  97235843.44844  23745985.344                    23745991.887
 113250422.397 7  88246986.78845  21550788.398                    21550795.387
 125849712.497 6  98064717.19843  23948420.977                    23948432.754
 11  7 28 20 12  0.0000000  0  9G08G24G07G17G28G26G19G11G13
 107010323.552 8  83384762.01346  20363393.156                    20363399.949
 117682670.112 7  91700721.77744  22394219.305                    22394228.789
 106994904.331 8  83372685.08446  20360452.695                    20360460.402
 120561874.466 7  93944425.97044  22942150.969                    22942160.633
 116025319.778 7  90409385.13645  22078869.656                    22078876.566
 122071678.279 7  95120930.88444  23229488.938                    23229498.660
 124888763.467 7  97315939.79344  23765545.898                    23765551.930
 113243064.374 7  88241253.27745  21549388.195                    21549395.027
 125961594.707 6  98151897.86643  23969711.734                    23969722.875
 11  7 28 20 12 30.0000000  0  9G08G24G07G17G28G26G19G11G13
 106969328.150 8  83352817.55446  20355592.109                    20355599.184
 117632637.742 7  91661735.56944  22384698.195                    22384706.645
 107013613.383 8  83387263.54846  20364012.977                    20364020.012
 120473949.788 7  93875913.34045  22925419.500                    22925428.754
 115998827.293 7  90388741.65145  22073828.234                    22073834.902
 122016352.997 6  95077820.30443  23218960.711                    23218970.000
 124991683.309 7  97396137.01244  23785130.766                    23785136.813
 113236275.688 8  88235963.40345  21548096.086                    21548102.961
 126073480.743 6  98239081.50043  23991003.383                    23991014.574
 11  7 28 20 13  0.0000000  0  9G08G24G07G17G28G26G19G11G13
 106928715.036 8  83321170.97546  20347863.438                    20347870.941
 117582996.091 7  91623053.80944  22375251.367                    22375260.434
 107032795.282 8  83402210.47246  20367663.039                    20367670.379
 120386294.390 7  93807610.54745  22908738.891                    22908748.512
 115972401.016 7  90368149.77445  22068799.352                    22068806.273
 121961576.630 6  95035137.45344  23208537.398                    23208546.836
 125094729.782 7  97476432.91944  23804739.953                    23804745.980
 113230057.311 8  88231117.92345  21546913.141                    21546920.117
 126185368.159 6  98326266.23043  24012294.789                    24012306.602
 11  7 28 20 13 30.0000000  0  9G08G24G07G17G28G26G19G11G13
 106888487.021 8  83289824.47646  20340208.211                    20340215.766
 117533747.823 7  91584678.57344  22365879.805                    22365888.844
 107052450.704 8  83417526.36146  20371404.289                    20371410.934
 120298910.493 7  93739519.29845  22892110.836                    22892120.012
 115946040.696 7  90347609.26445  22063783.523                    22063790.195
 121907351.009 6  94992883.75143  23198218.703                    23198227.762
 125197900.407 6  97556825.52843  23824372.375                    23824379.016
 113224410.140 7  88226717.54045  21545838.336                    21545844.949
 126297254.057 6  98413449.73643  24033586.523                    24033598.281
 11  7 28 20 14  0.0000000  0  9G08G24G07G17G28G26G19G11G13
 106848646.734 8  83258780.09646  20332626.891                    20332634.141
 117484895.548 7  91546611.91544  22356583.570                    22356592.824
 107072580.572 8  83433211.96146  20375234.797                    20375241.234
 120211799.655 7  93671640.83245  22875533.461                    22875543.270
 115919745.594 7  90327119.60245  22058779.563                    22058786.262
 121853677.953 6  94951060.60944  23188005.195                    23188014.078
 125301192.643 6  97637312.91044  23844028.727                    23844034.828
 113219334.999 8  88222762.88945  21544872.695                    21544879.656
 126409135.572 6  98500629.82543  24054876.500                    24054888.676
 11  7 28 20 14 30.0000000  0  9G08G24G07G17G28G26G19G11G13
 106809196.207 8  83228039.42646  20325120.164                    20325127.215
 117436441.599 7  91508855.64344  22347363.172                    22347372.453
 107093185.252 8  83449267.53246  20379155.383                    20379162.270
 120124963.242 7  93603976.20245  22859009.672                    22859018.457
 115893515.223 7  90306680.36245  22053788.086                    22053794.824
 121800558.935 7  94909669.20343  23177896.922                    23177905.734
 125404604.067 6  97717893.19844  23863706.984                    23863713.941
 113214832.615 8  88219254.54445  21544015.805                    21544022.516
 126521009.682 6  98587804.15943  24076166.000                    24076177.695
 11  7 28 20 15  0.0000000  0  9G08G24G07G17G28G26G19G11G13
 106770138.023 8  83197604.47246  20317687.422                    20317694.910
 117388388.978 7  91471412.10344  22338218.734                    22338228.887
 107114265.538 8  83465693.70846  20383166.727                    20383173.574
 120038402.769 7  93536526.60445  22842537.328                    22842546.754
 115867348.969 8  90286291.09345  22048808.430                    22048815.598
 121747995.838 6  94868710.98344  23167894.609                    23167903.707
 125508132.086 6  97798564.31044  23883407.594                    23883414.402
 113210903.793 8  88216193.14245  21543267.852                    21543275.313
 126632874.007 6  98674970.85743  24097452.328                    24097465.262
 11  7 28 20 15 30.0000000  0  9G08G24G07G17G28G26G19G11G13
 106731474.141 8  83167476.76746  20310329.930                    20310337.617
 117340740.122 7  91434283.16944  22329151.508                    22329160.805
 107135821.573 8  83482490.60646  20387268.945                    20387275.719
 119952119.496 7  93469292.98945  22826118.008                    22826126.922
 115841246.157 7  90265951.25345  22043841.773                    22043847.914
 121695990.018 7  94828187.00944  23157998.164                    23158007.094
 125611774.058 6  97879324.21544  23903130.352                    23903136.773
 113207549.138 7  88213579.13945  21542629.742                    21542637.199
 126744725.176 6  98762127.28943  24118737.523                    24118750.172
 11  7 28 20 16  0.0000000  0  9G08G24G07G17G28G26G19G11G13
 106693207.539 8  83137658.63046  20303047.805                    20303055.000
 117293497.729 7  91397470.97544  22320161.109                    22320170.949
 107157854.387 8  83499659.01046  20391461.328                    20391468.504
 119866115.245 7  93402276.79845  22809752.258                    22809761.289
 115815206.464 8  90245660.59145  22038886.594                    22038892.543
 121644543.370 7  94788098.72544  23148207.727                    23148217.070
 125715527.625 7  97960171.08944  23922874.250                    23922880.586
 113204769.415 8  88211413.13545  21542100.711                    21542108.465
 126856560.772 6  98849271.54643  24140020.281                    24140032.270
 11  7 28 20 16 30.0000000  0  9G08G24G07G17G28G26G19G11G13
 106655340.342 8  83108151.72446  20295841.836                    20295849.070
 117246664.176 7  91360977.35144  22311248.703                    22311258.836
 107180364.373 8  83517199.24546  20395744.813                    20395752.051
 119780391.431 7  93335479.13245  22793438.703                    22793448.289
 115789228.959 7  90225418.39445  22033942.758                    22033949.316
 121593657.435 7  94748447.37344  23138524.266                    23138533.395
 125819390.222 7  98041102.94844  23942638.547                    23942644.816
 113202565.191 8  88209695.57145  21541681.188                    21541688.656
 126968377.668 6  98936401.28843  24161298.594                    24161310.070
 11  7 28 20 17  0.0000000  0  9G08G24G07G17G28G26G19G11G13
 106617874.875 8  83078957.84946  20288712.641                    20288720.016
 117200242.238 7  91324804.44744  22302415.398                    22302424.824
 107203352.344 8  83535111.93646  20400119.352                    20400126.391
 119694949.516 7  93268901.11145  22777179.836                    22777189.016
 115763313.670 7  90205224.66745  22029011.336                    22029018.238
 121543334.052 7  94709234.35744  23128948.055                    23128957.203
 125923359.259 7  98122117.74144  23962423.078                    23962429.848
 113200937.257 7  88208427.06245  21541371.227                    21541378.574
 127080172.882 6  99023514.20842  24182572.531                    24182584.922
 11  7 28 20 17 30.0000000  0  9G08G24G07G17G28G26G19G11G13
 106580813.641 8  83050078.98046  20281660.078                    20281667.426
 117154234.680 7  91288954.44044  22293660.914                    22293670.086
 107226818.689 8  83553397.38446  20404585.320                    20404591.945
 119609791.066 7  93202544.00245  22760974.633                    22760983.820
 115737459.570 8  90185078.62345  22024091.750                    22024097.867
 121493574.376 7  94670460.61044  23119479.930                    23119488.387
 126027432.545 6  98203213.73144  23982226.992                    23982234.469
 113199886.147 7  88207608.02945  21541171.289                    21541178.727
 127191944.005 6  99110608.19143  24203842.023                    24203853.867
 11  7 28 20 18  0.0000000  0  9G08G24G07G17G28G26G19G11G13
 106544158.415 8  83021516.47046  20274685.023                    20274692.180
 117108643.802 7  91253429.13545  22284984.961                    22284994.738
 107250763.827 8  83572055.91246  20409141.461                    20409149.008
 119524917.356 7  93136408.74745  22744823.625                    22744833.016
 115711666.216 7  90164979.90845  22019183.586                    22019189.965
 121444380.008 7  94632127.36344  23110118.047                    23110127.020
 126131607.204 6  98284388.69244  24002050.852                    24002058.926
 113199412.341 7  88207238.83945  21541081.383                    21541088.875
 127303687.894 6  99197681.02942  24225105.820                    24225118.535
 11  7 28 20 18 30.0000000  0  9G08G24G07G17G28G26G19G11G13
 106507911.765 8  82993272.33446  20267787.289                    20267794.555
 117063472.085 7  91218230.42944  22276388.859                    22276398.199
 107275188.119 8  83591087.81346  20413789.500                    20413796.586
 119440329.760 7  93070496.44945  22728727.203                    22728736.152
 115685932.994 7  90144928.06745  22014286.477                    22014293.426
 121395752.721 6  94594236.00344  23100864.641                    23100873.723
 126235880.703 6  98365640.68743  24021893.703                    24021901.145
 113199516.407 7  88207319.93745  21541100.953                    21541108.320
 127415401.679 6  99284730.42643  24246364.188                    24246377.168
 11  7 28 20 19  0.0000000  0  9G08G24G07G17G28G26G19G11G13
 106472076.134 8  82965348.47146  20260968.000                    20260975.559
 117018722.181 7  91183360.41344  22267873.352                    22267882.797
 107300092.281 8  83610493.63046  20418528.539                    20418535.586
 119356029.745 7  93004808.22245  22712685.125                    22712694.066
 115660259.502 7  90124922.75645  22009400.758                    22009407.621
 121347693.834 7  94556787.54344  23091719.852                    23091728.238
 126340251.067 6  98446968.15543  24041754.344                    24041761.891
 113200199.005 7  88207851.84445  21541231.195                    21541238.023
 127527082.725 6  99371754.29442  24267617.578                    24267629.762
 11  7 28 20 19 30.0000000  0  9G08G24G07G17G28G26G19G11G13
 106436653.789 8  82937746.64846  20254227.031                    20254234.445
 116974396.370 7  91148820.86344  22259437.953                    22259448.184
 107325476.716 8  83630273.70146  20423358.945                    20423366.105
 119272018.565 7  92939345.05645  22696698.320                    22696707.430
 115634644.957 7  90104963.38645  22004526.469                    22004533.496
 121300204.805 7  94519783.15344  23082682.281                    23082691.313
 126444715.589 6  98528369.01543  24061633.766                    24061640.770
 113201460.232 7  88208834.62245  21541471.266                    21541478.141
 127638728.413 6  99458750.60143  24288862.828                    24288875.996
 11  7 28 20 20  0.0000000  0  9G08G24G07G17G28G26G19G11G13
 106401647.348 8  82910468.90946  20247566.102                    20247573.020
 116930497.244 7  91114613.80045  22251084.672                    22251094.168
 107351342.008 8  83650428.45146  20428281.367                    20428287.918
 119188298.099 7  92874108.42945  22680767.258                    22680775.973
 115609089.355 8  90085049.93345  21999664.055                    21999670.457
 121253287.333 7  94483224.11544  23073754.344                    23073762.852
 126549271.726 6  98609841.25444  24081530.602                    24081537.590
 113203301.202 8  88210269.16245  21541821.344                    21541828.570
 127750336.109 6  99545717.23542  24310101.719                    24310114.008
 11  7 28 20 20 30.0000000  0  9G08G24G07G17G28G26G19G11G13
 106367059.077 8  82883517.01646  20240984.047                    20240991.496
 116887027.234 7  91080741.11144  22242812.703                    22242821.457
 107377688.435 8  83670958.11046  20433294.914                    20433301.953
 119104869.471 7  92809099.20445  22664890.797                    22664899.852
 115583591.953 7  90065181.83145  21994811.633                    21994817.891
 121206942.770 7  94447111.49744  23064935.219                    23064943.879
 126653917.068 6  98691382.99944  24101443.641                    24101450.648
 113205721.940 7  88212155.45845  21542281.805                    21542288.797
 127861902.557 6  99632651.73942  24331333.148                    24331345.113
 11  7 28 20 21  0.0000000  0  9G08G24G07G17G28G26G19G11G13
 106332890.923 8  82856892.48946  20234481.711                    20234489.324
 116843988.867 7  91047204.78645  22234622.344                    22234631.957
 107404516.437 8  83691863.03346  20438399.773                    20438407.105
 119021734.042 7  92744318.44745  22649070.758                    22649080.020
 115558152.221 7  90045358.67945  21989970.453                    21989976.961
 121161172.440 7  94411446.33344  23056225.406                    23056234.117
 126758649.195 6  98772992.40943  24121373.508                    24121380.254
 113208722.993 8  88214493.94545  21542853.078                    21542859.836
 127973425.298 6  99719552.30442  24352554.906                    24352567.543
 11  7 28 20 21 30.0000000  0  9G08G24G07G17G28G26G19G11G13
 106299144.896 8  82830596.89246  20228060.445                    20228067.555
 116801384.435 7  91014006.57445  22226514.758                    22226524.430
 107431826.380 8  83713143.49046  20443596.586                    20443603.633
 118938893.016 7  92679767.09245  22633306.172                    22633315.203
 115532769.565 7  90025579.98745  21985140.555                    21985146.672
 121115977.619 7  94376229.59544  23047625.273                    23047633.516
 126863465.555 7  98854667.44644  24141319.523                    24141326.531
 113212304.619 7  88217284.83445  21543534.867                    21543541.770
 128084901.338 6  99806416.44442  24373768.766                    24373781.238
 11  7 28 20 22  0.0000000  0  9G08G24G07G17G28G26G19G11G13
 106265823.618 8  82804632.25846  20221719.352                    20221727.035
 116759216.511 7  90981148.49744  22218490.609                    22218500.215
 107459618.336 8  83734799.54446  20448885.484                    20448892.621
 118856348.030 7  92615446.40545  22617598.492                    22617607.809
 115507443.537 8  90005845.43145  21980320.688                    21980327.770
 121071359.595 7  94341462.32643  23039134.641                    23039143.477
 126968363.781 7  98936406.25244  24161281.703                    24161288.656
 113216467.440 8  88220528.61245  21544326.859                    21544333.980
 128196327.838 6  99893241.93242  24394972.055                    24394984.996
 11  7 28 20 22 30.0000000  0  9G08G24G07G17G28G26G19G11G13
 106232929.861 8  82779000.75946  20215459.648                    20215467.184
 116717487.779 7  90948632.64544  22210550.555                    22210559.230
 107487893.266 8  83756831.94146  20454265.820                    20454272.863
 118774100.610 7  92551357.60145  22601947.508                    22601956.406
 115482174.010 8  89986154.89845  21975512.219                    21975518.848
 121027320.132 7  94307145.88444  23030754.055                    23030762.633
 127073341.460 6  99018207.01143  24181257.664                    24181264.801
 113221211.874 8  88224225.57945  21545229.250                    21545236.484
 128307702.621 6  99980027.17342  24416166.320                    24416179.223
 11  7 28 20 23  0.0000000  0  9G08G24G07G17G28G26G19G11G13
 106200465.121 8  82753703.56746  20209282.102                    20209289.418
 116676199.987 7  90916460.39744  22202693.508                    22202702.543
 107516651.185 8  83779240.68646  20459738.375                    20459745.352
 118692151.697 7  92487501.40045  22586352.898                    22586361.672
 115456960.115 7  89966507.71845  21970714.242                    21970720.980
 120983860.177 7  94273280.98344  23022484.359                    23022493.137
 127178396.350 6  99100067.89143  24201249.008                    24201256.219
 113226537.717 7  88228375.58945  21546243.398                    21546250.301
 128419022.402 6 100066769.46843  24437349.914                    24437363.215
 11  7 28 20 23 30.0000000  0  9G08G24G07G17G28G26G19G11G13
 106168432.295 8  82728742.92546  20203186.555                    20203193.691
 116635355.622 7  90884633.65544  22194921.117                    22194929.922
 107545892.529 8  83802026.13346  20465302.844                    20465309.539
 118610503.020 7  92423879.14245  22570815.539                    22570824.496
 115431801.658 7  89946903.73545  21965926.625                    21965933.598
 120940981.394 7  94239868.96444  23014324.734                    23014332.824
 127283526.286 6  99181987.24543  24221254.734                    24221261.629
 113232445.788 8  88232979.30145  21547367.078                    21547374.133
 128530284.760 6 100153467.04843  24458522.852                    24458536.797
 11  7 28 20 24  0.0000000  0  9G08G24G07G17G28G26G19G11G13
 106136833.101 8  82704120.17946  20197173.563                    20197180.801
 116594957.126 7  90853154.35844  22187233.172                    22187242.359
 107575617.433 8  83825188.37446  20470959.266                    20470965.797
 118529155.870 7  92360491.84745  22555335.453                    22555344.723
 115406698.013 7  89927342.45745  21961149.711                    21961156.273
 120898684.608 7  94206910.44243  23006275.836                    23006283.934
 127388728.477 6  99263962.92243  24241274.391                    24241280.938
 113238936.523 7  88238037.01745  21548602.508                    21548609.488
 128641486.753 6 100240117.59743  24479684.047                    24479697.898
 11  7 28 20 24 30.0000000  0  9G08G24G07G17G28G26G19G11G13
 106105669.881 8  82679837.15346  20191243.281                    20191250.824
 116555007.054 7  90822024.48144  22179630.727                    22179639.484
 107605826.252 7  83848727.69846  20476707.828                    20476714.730
 118448111.554 7  92297340.52945  22539913.445                    22539922.180
 115381648.686 8  89907823.51145  21956383.102                    21956389.766
 120856971.160 7  94174406.48944  22998337.602                    22998345.797
 127494000.647 6  99345993.11243  24261306.227                    24261313.523
 113246009.560 7  88243548.49245  21549948.727                    21549955.656
 128752625.562 6 100326718.88643  24500832.961                    24500847.445
 11  7 28 20 25  0.0000000  0  9G08G24G07G17G28G26G19G11G13
 106074945.425 8  82655896.01746  20185396.695                    20185403.742
 116515507.737 7  90791245.85144  22172114.086                    22172123.535
 107636519.463 8  83872644.45946  20482548.797                    20482555.684
 118367371.149 7  92234426.02745  22524549.109                    22524557.922
 115356653.542 7  89888346.79445  21951626.203                    21951633.051
 120815842.471 7  94142358.17144  22990510.945                    22990520.094
 127599340.694 6  99428076.20143  24281352.008                    24281359.297
 113253665.537 7  88249514.18745  21551405.367                    21551411.891
 128863699.011 6 100413269.26443  24521970.984                    24521983.688
 11  7 28 20 25 30.0000000  0  9G08G24G07G17G28G26G19G11G13
 106044661.024 8  82632297.78346  20179633.711                    20179641.086
 116476461.130 7  90760819.96644  22164683.695                    22164693.359
 107667696.970 8  83896938.59546  20488481.578                    20488488.801
 118286935.859 7  92171749.27645  22509242.445                    22509251.223
 115331711.813 8  89868911.68545  21946880.008                    21946887.035
 120775299.460 7  94110766.23044  22982795.898                    22982804.902
 127704745.799 6  99510209.98143  24301409.477                    24301417.504
 113261904.151 8  88255933.91845  21552972.922                    21552979.594
 128974703.649 6 100499766.03843  24543093.938                    24543107.613
 11  7 28 20 26  0.0000000  0  9G08G24G07G17G28G26G19G11G13
 106014819.176 8  82609044.39346  20173954.883                    20173962.180
 116437869.620 7  90730748.71044  22157339.828                    22157349.320
 107699358.641 8  83921610.00046  20494506.758                    20494513.578
 118206806.829 7  92109311.16245  22493993.953                    22494002.699
 115306822.914 7  89849517.75145  21942143.641                    21942150.473
 120735343.321 7  94079631.61044  22975192.578                    22975201.438
 127810213.476 6  99592392.49543  24321480.516                    24321488.074
 113270725.727 7  88262807.87045  21554651.547                    21554658.426
 129085636.939 6 100586207.17843  24564204.273                    24564217.820
 11  7 28 20 26 30.0000000  0  9G08G24G07G17G28G26G19G11G13
 105985422.532 8  82586137.92246  20168361.016                    20168368.047
 116399735.539 7  90701033.88144  22150083.867                    22150092.742
 107731505.287 7  83946659.32646  20500624.211                    20500630.883
 118126985.845 7  92047113.08645  22478805.023                    22478813.637
 115281986.759 7  89830164.92245  21937417.422                    21937425.020
 120695975.316 7  94048955.25244  22967701.313                    22967709.602
 127915741.937 6  99674622.36143  24341561.367                    24341569.133
 113280130.750 8  88270136.48145  21556441.914                    21556448.457
 129196496.751 6 100672591.07243  24585299.945                    24585314.516
